GFSGL_925_thetae_000.txt.gz
Theta_e
314 314 314 315 315 315 315 314 314 314 314 314 314 314 314 314 315 316 318 322 325 328 328 329 329 329 328 327 325 324 323 323 323 323 323 323 321 320 318 317 316 315 311
314 314 314 314 314 314 314 313 313 313 313 313 313 313 314 315 315 315 315 317 320 322 324 326 326 326 327 327 326 324 324 323 323 323 323 322 321 317 316 316 314 307 305
313 313 313 313 313 312 312 311 311 311 311 311 312 313 314 314 314 315 315 316 317 318 320 322 323 324 325 326 326 326 325 323 323 323 322 322 320 316 306 306 305 301 301
311 310 310 311 310 309 308 308 308 308 309 309 309 310 311 312 313 314 315 315 316 317 318 319 320 322 323 325 325 325 325 324 323 323 322 321 313 307 306 303 300 299 298
306 306 307 308 306 306 305 305 305 306 307 307 307 307 308 309 310 312 311 312 313 313 314 315 317 318 320 321 323 324 324 324 324 323 321 317 306 301 303 304 303 300 298
304 304 305 304 303 303 303 303 304 304 304 304 305 307 307 307 308 308 309 311 311 312 313 313 315 317 318 319 320 322 323 323 323 322 322 319 314 311 307 305 303 298 297
301 300 300 298 298 298 299 300 300 300 300 302 303 304 305 305 306 307 309 308 309 309 311 311 313 315 317 317 318 319 321 322 322 322 322 320 318 313 308 304 303 300 295
297 296 296 296 296 296 296 297 297 297 298 299 300 302 302 303 304 305 304 304 304 306 307 307 310 312 313 315 316 317 318 319 320 320 319 320 319 316 311 307 303 294 291
294 292 293 293 293 293 294 294 294 295 296 296 297 298 301 301 301 300 299 300 302 303 305 306 306 307 308 310 312 314 314 318 319 319 320 319 318 316 312 302 294 293 289
289 289 290 290 291 291 291 292 292 293 293 294 294 296 298 299 298 297 297 300 299 301 301 300 302 304 305 305 307 309 312 314 314 313 311 310 310 306 303 303 295 293 290
288 288 288 288 289 289 289 290 290 290 292 292 293 294 295 295 294 295 295 297 299 297 295 297 299 301 302 302 302 304 306 310 309 303 300 298 296 293 292 293 293 294 290
287 287 287 287 287 287 288 288 288 289 289 291 292 292 293 292 293 293 294 296 296 295 295 295 297 298 299 300 302 303 305 308 302 295 292 291 290 290 291 291 291 291 289
286 286 286 286 286 287 287 287 287 288 288 289 290 290 289 289 291 291 293 294 295 294 294 294 296 298 299 300 301 302 304 304 296 292 292 290 289 289 289 288 287 286 286
286 286 286 286 286 286 286 286 287 287 288 288 288 288 289 290 290 291 293 294 294 293 293 295 298 300 302 302 301 302 305 299 294 293 292 290 289 287 286 285 285 284 283
285 285 285 285 285 285 286 286 286 287 288 289 289 289 289 289 290 292 293 293 292 292 294 296 297 296 298 298 298 295 293 293 293 290 288 287 286 286 285 284 284 284 285
285 285 285 285 285 285 285 285 286 286 287 287 288 289 289 290 289 291 291 291 291 293 294 295 295 294 295 295 294 292 291 290 288 288 287 286 286 285 285 285 284 284 285
284 284 284 284 284 284 285 285 285 286 286 286 287 288 288 288 290 289 290 290 291 292 292 292 293 293 292 293 292 291 290 288 288 287 286 286 285 285 285 285 284 284 284
284 284 284 284 284 284 285 285 285 285 286 286 286 287 287 288 288 288 288 288 290 290 290 290 292 292 291 291 291 291 288 287 286 286 285 285 285 285 284 284 284 284 283
284 283 283 284 284 285 285 284 285 285 286 285 286 286 286 286 286 287 287 287 288 288 288 289 290 291 290 290 290 289 287 286 286 285 285 285 285 284 284 284 283 284 283
283 283 284 284 284 284 284 284 284 285 285 285 285 285 285 286 285 285 285 286 286 286 287 288 289 290 290 289 289 287 286 286 285 285 285 285 285 284 284 283 284 283 282
283 283 283 283 283 283 283 283 284 284 284 284 284 285 285 285 284 284 284 285 285 285 286 287 288 289 289 289 288 287 286 285 285 285 285 284 284 283 283 283 282 282 282
283 283 283 283 283 282 283 283 284 284 284 284 284 285 285 284 284 283 283 284 284 284 285 287 287 288 288 288 288 286 286 285 284 284 284 284 283 283 282 282 282 281 280
282 282 282 282 282 282 283 283 283 283 283 284 284 284 284 284 283 283 283 284 284 284 285 285 285 287 287 287 287 287 286 284 284 284 284 283 282 282 282 281 281 280 280
282 282 282 282 282 282 283 282 282 282 283 283 283 284 283 283 283 283 283 283 283 284 284 283 284 286 286 286 286 286 285 285 284 285 284 283 282 282 282 281 280 279 278
282 282 282 282 282 282 282 282 282 282 282 282 282 283 283 283 283 282 282 282 282 284 282 282 284 285 286 286 285 285 285 285 284 284 285 282 282 281 280 279 278 278 278
282 282 281 281 282 282 281 281 280 280 280 281 281 282 282 282 282 282 282 282 282 283 281 281 283 285 285 285 285 285 285 284 284 285 283 282 282 280 278 278 278 279 279

GFSGL_925_thetae_003.txt.gz
Theta_e
313 313 313 314 313 313 312 311 309 308 308 309 309 309 310 311 312 313 313 313 314 315 316 317 320 322 324 325 325 326 326 325 325 324 323 322 322 322 322 321 319 318 319
310 310 310 310 310 309 307 306 306 306 307 307 308 308 309 309 309 310 311 312 313 314 315 317 319 320 321 322 323 324 324 324 324 324 323 322 322 321 322 322 320 317 318
305 306 306 307 306 305 305 304 304 304 305 305 306 307 307 307 307 308 309 311 311 311 313 314 316 317 318 318 320 321 322 322 323 323 323 323 322 320 317 315 313 313 313
303 303 303 303 302 301 300 300 301 301 302 304 304 303 304 306 306 306 308 306 307 310 311 312 313 314 316 316 317 318 319 320 321 321 322 323 322 316 314 312 304 304 305
299 299 300 298 297 297 297 297 298 299 299 300 300 300 303 303 305 304 304 305 308 309 309 309 309 311 312 313 315 316 317 318 319 319 319 321 321 305 307 309 309 307 303
295 296 295 294 294 294 294 295 296 296 296 297 297 300 299 302 302 302 303 305 306 302 302 304 306 308 309 311 313 313 315 316 317 317 318 318 319 319 315 311 309 301 301
293 292 291 291 291 292 292 293 293 293 293 293 296 296 297 298 298 301 302 300 298 298 301 301 304 305 303 306 307 309 310 312 313 315 316 317 318 319 318 314 311 308 306
291 289 288 288 289 289 290 290 290 291 291 292 293 293 295 294 295 298 298 297 296 298 300 300 302 298 299 303 305 306 306 307 309 312 314 315 316 317 319 317 313 304 294
288 287 287 287 287 288 288 288 289 289 290 290 290 292 291 293 294 295 294 295 295 295 298 299 295 295 297 299 301 302 303 303 304 305 308 310 310 312 316 312 299 296 293
287 287 287 287 287 287 287 287 287 288 288 288 288 289 291 292 293 291 290 292 294 294 297 295 294 294 295 296 298 299 300 300 301 303 305 307 307 308 311 312 307 301 293
286 286 286 286 286 286 286 286 286 287 287 287 287 288 290 290 289 288 290 293 292 295 295 295 294 294 295 296 298 300 301 302 302 303 304 302 299 301 303 303 303 301 294
286 286 285 285 285 285 285 286 286 286 286 286 286 288 288 288 288 289 290 291 292 294 294 294 293 293 295 297 299 301 301 300 302 302 299 293 291 291 292 294 294 294 294
285 285 285 285 285 285 285 285 285 285 285 286 287 287 288 288 288 289 290 291 292 292 292 292 292 294 296 296 296 296 297 295 297 296 293 291 291 292 291 289 289 289 289
285 285 285 284 285 285 284 285 285 284 285 286 287 288 288 288 288 289 290 290 291 291 291 291 293 293 294 293 293 294 293 292 293 292 292 290 290 288 286 286 285 285 285
285 284 284 284 284 284 284 284 284 285 286 287 287 287 288 288 289 289 289 289 290 290 290 292 291 291 292 291 292 291 292 292 291 291 290 289 287 286 285 285 284 285 284
284 284 284 284 284 284 283 284 284 285 286 286 286 287 287 288 288 288 288 288 289 288 290 289 289 289 290 291 290 291 291 291 290 289 288 287 286 285 284 284 284 285 285
284 284 284 284 283 283 283 283 284 284 285 285 286 286 286 287 286 287 287 287 286 286 287 287 287 288 288 290 290 290 290 290 289 288 287 286 286 285 285 285 285 285 284
284 284 284 283 283 283 283 284 284 284 284 284 284 285 285 285 285 286 286 285 284 285 285 285 286 287 288 289 290 289 289 288 287 286 286 286 285 286 285 285 285 284 283
283 283 283 283 283 284 284 284 284 284 284 284 284 284 284 284 285 286 284 284 284 285 285 284 285 286 287 288 289 289 288 287 286 286 285 285 285 285 285 285 284 284 283
283 283 283 283 283 283 283 283 283 283 283 283 284 284 284 284 285 284 283 283 283 284 284 284 284 285 287 286 288 288 287 286 286 285 285 285 285 285 284 284 284 283 282
283 282 283 283 282 283 283 282 282 283 283 284 283 283 284 284 284 284 283 283 283 283 283 283 284 285 284 285 287 287 287 286 285 285 285 284 285 284 283 283 283 283 281
282 282 282 282 282 282 282 282 283 282 283 283 283 283 283 283 283 283 283 283 282 282 282 282 284 282 282 284 286 286 286 285 285 284 284 284 284 283 283 282 282 281 280
282 282 282 282 282 282 282 282 282 282 282 282 282 282 282 282 283 283 282 282 282 282 281 283 282 281 282 283 285 285 286 285 284 284 284 284 283 282 282 282 281 280 280
282 282 282 282 282 282 282 281 281 282 282 282 281 280 281 282 282 282 281 281 281 281 281 282 281 280 282 282 285 285 285 285 284 284 285 284 282 282 282 280 279 279 278
282 282 282 282 282 281 281 281 281 281 280 280 280 280 280 280 281 281 280 281 281 281 281 280 280 280 281 283 284 285 285 284 284 284 284 282 282 281 280 279 278 278 279
281 281 281 281 281 281 281 280 279 279 279 279 279 279 279 280 280 280 280 281 281 281 280 280 280 280 282 283 284 285 285 284 284 284 283 282 281 280 278 278 279 280 280

GFSGL_925_thetae_006.txt.gz
Theta_e
306 306 306 306 305 305 303 302 301 301 302 303 303 305 305 306 305 306 306 307 308 309 310 309 312 313 315 316 318 319 320 320 321 320 321 322 323 323 322 321 321 321 320
304 304 303 303 302 300 299 298 298 298 298 299 301 302 302 301 303 305 305 305 306 304 305 307 310 311 312 313 314 315 316 316 317 318 318 319 320 321 321 320 320 321 319
301 300 300 298 296 295 295 294 294 295 296 297 297 298 298 299 301 300 303 304 302 304 305 307 309 309 308 309 311 311 312 313 315 315 316 317 318 319 320 319 318 317 317
297 297 296 294 292 291 291 291 291 292 293 293 294 293 295 298 297 299 302 299 302 303 306 304 302 302 303 306 307 308 309 311 312 313 315 315 315 316 318 317 314 312 311
294 294 292 290 289 289 289 289 290 290 290 291 291 291 292 295 294 298 296 296 300 303 301 298 299 298 300 305 301 301 305 306 307 310 311 314 315 314 312 314 311 314 310
292 290 288 288 287 287 287 288 288 288 288 289 289 290 292 290 292 294 294 296 300 299 296 296 297 298 302 297 295 299 301 303 306 306 307 309 310 312 314 315 315 313 313
289 287 287 287 287 286 287 287 287 287 287 288 288 289 288 289 290 291 294 293 293 294 293 293 294 297 297 294 295 297 297 298 301 302 303 304 306 308 311 313 313 314 313
287 287 286 286 286 286 286 286 286 286 286 286 287 287 288 287 288 290 292 290 289 289 292 292 294 296 294 295 295 295 295 297 298 299 300 301 302 304 306 307 309 311 303
286 286 286 286 286 285 285 285 285 285 285 286 286 286 286 286 288 290 289 289 290 290 291 291 294 295 295 295 294 294 295 297 298 300 301 301 302 302 303 305 306 302 298
286 286 286 285 285 285 285 285 285 285 285 285 285 285 285 286 288 288 289 289 289 290 291 292 293 293 293 293 293 294 296 297 298 298 299 300 302 302 303 300 302 304 301
285 285 285 285 285 285 285 284 284 284 284 284 284 285 285 287 287 288 288 289 290 291 291 291 291 291 291 292 293 295 296 296 296 295 296 298 301 299 296 296 296 300 298
285 285 285 285 284 284 284 284 284 284 284 284 284 285 286 287 287 288 289 290 290 290 290 290 290 290 291 293 293 294 294 294 293 292 293 294 294 293 292 292 293 295 295
284 285 285 284 284 284 284 283 283 284 283 284 285 286 286 286 287 287 288 289 289 289 289 289 288 290 290 290 290 292 292 291 291 291 293 293 292 291 289 288 289 289 287
284 284 284 283 284 284 283 283 283 283 283 284 285 286 286 286 287 287 288 288 288 288 288 287 288 288 287 288 288 289 290 290 290 291 291 291 290 288 287 286 286 286 285
284 283 283 283 283 283 283 283 283 283 284 285 285 285 286 286 286 287 287 287 288 286 286 286 286 286 286 287 287 288 289 289 289 290 290 289 289 286 285 286 285 285 285
283 283 283 283 283 283 283 282 283 284 284 285 285 285 285 285 286 285 286 287 286 284 284 285 285 284 285 286 286 287 288 289 289 289 288 288 287 285 285 285 285 285 284
283 283 283 283 283 283 282 282 283 283 283 283 284 284 284 285 284 285 286 287 284 283 283 284 284 283 284 285 285 287 287 288 288 288 287 287 286 285 286 285 285 285 284
283 283 283 283 282 282 283 283 283 283 283 283 283 283 283 284 284 285 286 284 283 283 282 283 283 283 283 284 284 285 285 287 287 287 286 285 285 286 285 285 285 285 282
282 282 282 282 282 283 283 282 282 282 282 282 282 283 283 283 283 284 283 283 283 282 282 282 282 282 282 284 282 283 284 287 287 286 285 285 285 285 285 285 285 284 282
282 282 283 282 282 282 282 282 282 282 282 282 282 282 282 282 283 283 282 283 282 282 282 281 281 281 283 282 282 283 284 286 286 285 285 284 285 285 284 284 284 283 280
282 282 282 282 281 282 282 282 282 282 282 282 282 282 282 282 281 281 282 282 282 281 281 281 281 281 282 281 281 282 283 285 286 285 284 284 284 284 283 283 282 281 280
282 281 281 281 281 281 281 282 282 281 281 282 281 281 282 280 280 280 282 281 281 281 281 280 280 281 281 280 280 282 283 285 285 284 284 284 284 283 282 282 281 280 279
281 281 281 281 281 282 282 282 282 281 281 281 281 281 280 280 280 280 280 280 280 280 280 280 280 280 280 280 280 281 283 284 284 284 284 283 283 282 282 280 280 279 279
281 281 281 282 281 282 281 281 281 281 281 281 280 280 279 280 279 279 280 280 279 279 279 280 280 279 279 279 280 282 284 284 284 284 284 283 282 281 280 279 279 278 279
281 281 281 281 281 281 280 280 280 280 279 279 279 279 279 279 279 279 279 279 279 279 279 279 279 279 279 280 282 283 284 284 284 284 284 282 281 281 279 278 279 279 279
280 280 279 279 279 278 279 278 278 278 278 278 278 278 278 278 278 279 279 278 278 278 279 278 278 279 280 281 282 284 285 284 283 284 282 282 281 279 278 280 280 280 280

GFSGL_925_thetae_009.txt.gz
Theta_e
303 302 302 299 297 295 293 292 291 291 292 293 294 295 295 295 297 300 298 300 302 301 300 302 303 305 308 308 307 308 309 310 311 311 311 312 314 315 317 318 319 320 319
300 299 297 295 293 290 289 289 289 289 289 290 290 291 291 292 294 296 295 299 297 297 299 301 303 306 304 304 302 304 306 307 307 308 308 309 311 313 314 316 317 318 319
297 296 293 290 288 288 288 288 288 288 288 288 289 289 290 290 293 292 293 296 293 294 297 299 303 300 301 299 299 304 302 300 301 304 308 307 308 310 312 314 315 316 317
294 292 289 288 287 287 287 287 287 287 287 287 288 288 288 289 289 290 292 292 293 295 297 299 296 296 297 298 300 297 295 297 299 300 302 304 305 306 308 311 313 314 314
291 288 287 287 287 286 286 286 286 286 286 286 286 286 287 287 288 289 290 292 294 291 290 292 292 292 292 295 298 296 295 296 297 296 299 301 301 303 305 306 308 309 312
288 287 287 286 286 286 286 286 286 286 286 285 285 285 286 286 287 289 291 293 291 288 288 289 291 291 291 295 295 295 296 295 295 296 297 297 299 300 301 303 303 305 307
287 286 286 286 286 286 285 285 285 285 285 285 285 285 285 285 286 288 290 290 288 288 289 289 290 290 291 294 294 294 294 294 294 294 296 297 298 299 300 300 301 302 305
286 286 285 285 285 285 285 285 284 284 284 284 284 285 285 285 286 288 288 288 288 288 289 289 289 290 292 292 292 292 292 292 292 294 296 297 298 298 300 301 301 302 303
285 285 285 285 285 285 284 284 284 284 284 284 284 284 284 284 285 287 288 288 288 289 289 289 290 290 290 290 291 291 291 291 292 295 295 295 296 295 296 299 301 302 303
285 285 285 285 285 284 284 284 284 283 283 283 283 283 284 284 285 287 288 288 289 289 290 289 289 289 289 290 290 290 292 293 294 294 294 292 292 292 295 297 296 297 297
284 285 285 284 284 284 284 284 283 283 283 283 283 283 284 285 286 286 287 288 288 289 288 288 288 288 289 288 289 290 291 291 292 292 291 291 291 292 292 293 292 291 292
284 284 284 284 284 283 284 283 283 283 282 282 283 283 284 285 285 286 287 287 288 288 287 288 288 287 287 287 287 287 288 289 290 290 289 290 291 290 290 290 289 288 289
284 284 283 283 283 284 283 283 283 282 282 282 283 284 285 285 285 285 286 287 287 287 288 287 286 285 286 285 285 286 287 287 289 289 290 290 290 290 289 288 287 286 285
283 283 283 283 283 283 283 283 282 282 282 283 284 285 285 285 285 285 286 286 286 286 287 285 283 284 284 283 283 284 285 286 287 288 289 289 289 288 288 287 286 286 284
283 283 283 282 283 283 283 282 282 282 283 284 284 284 284 284 284 285 286 285 286 288 285 283 282 283 283 282 283 284 284 285 286 286 288 288 287 287 287 286 285 286 285
282 282 282 282 283 282 282 282 282 283 283 284 284 284 284 284 284 285 284 285 286 284 283 282 282 282 282 282 282 283 284 284 284 285 287 287 287 286 286 285 285 285 284
282 282 282 282 282 282 282 282 282 282 282 282 283 283 283 283 283 283 284 285 284 283 282 282 281 281 281 281 281 282 283 282 283 284 287 287 286 285 286 285 285 285 283
282 282 282 282 282 282 282 282 282 282 282 282 282 282 282 282 282 283 283 282 281 282 282 281 281 281 281 281 281 282 281 282 283 284 286 285 285 285 285 285 285 283 282
282 281 281 282 282 282 282 281 281 281 282 281 281 281 281 281 282 283 281 280 280 282 281 281 280 280 280 280 281 281 281 281 283 284 286 285 284 285 285 285 285 284 282
281 281 282 282 281 281 281 281 281 281 281 281 281 281 281 281 282 280 279 279 281 281 280 280 280 280 279 280 281 280 280 281 282 284 285 284 284 284 284 284 283 282 281
281 281 281 281 280 281 281 281 281 281 282 281 281 281 281 282 280 279 279 279 280 280 279 279 279 279 279 280 280 280 280 280 282 284 284 283 283 282 283 282 281 280 279
281 280 280 280 281 281 281 281 282 281 281 281 281 281 281 280 279 279 279 279 279 279 279 279 279 279 279 279 279 279 280 281 282 284 283 283 282 282 281 280 279 278 278
280 280 280 280 281 281 281 281 281 281 281 280 280 280 279 279 279 279 279 279 279 279 278 278 278 279 278 279 279 279 279 280 283 283 283 282 281 281 280 279 279 279 279
280 281 281 281 280 280 280 280 280 279 279 279 279 279 279 279 279 278 278 278 278 278 277 277 278 278 278 278 279 279 281 283 284 283 283 282 281 280 279 278 277 278 278
281 280 280 279 279 278 278 278 278 278 278 278 278 278 278 278 278 278 278 278 277 277 277 277 277 278 278 279 280 281 283 284 283 283 282 281 280 278 279 280 280 279 281
280 279 278 277 277 277 277 277 277 277 277 277 278 278 278 278 278 278 278 277 277 277 277 277 278 278 279 279 281 282 285 284 283 282 281 280 278 280 281 281 282 282 282

GFSGL_925_thetae_012.txt.gz
Theta_e
300 297 296 293 290 289 288 288 288 288 288 288 288 288 288 288 288 289 291 291 293 294 292 293 295 297 301 300 302 299 298 301 304 303 299 298 299 303 307 309 309 310 313
297 294 291 289 288 288 287 287 287 287 287 287 287 287 287 287 287 288 289 289 292 291 292 294 296 298 295 296 296 294 297 301 296 296 296 297 299 299 302 304 306 307 309
293 290 288 287 287 287 287 287 287 286 286 286 286 286 286 286 286 287 288 289 290 291 292 291 289 291 291 291 292 292 296 297 295 295 296 297 296 296 300 301 301 302 306
290 288 287 287 286 286 286 286 286 286 285 285 285 285 285 285 286 287 288 289 290 292 289 288 287 288 289 291 291 292 296 295 295 295 295 295 295 296 297 298 298 299 301
288 287 286 286 286 286 286 285 285 285 285 285 285 285 285 285 285 287 288 289 289 289 288 288 288 288 289 290 291 292 293 294 294 294 294 293 294 294 295 296 298 299 300
287 286 286 286 286 285 285 285 285 285 284 284 284 284 284 284 285 287 288 288 288 288 288 288 288 288 289 290 290 291 291 292 292 292 292 292 292 292 294 297 298 298 299
286 286 286 285 285 285 285 284 284 284 284 284 283 284 284 284 285 286 287 288 287 287 288 288 288 289 289 289 289 290 290 290 290 290 291 291 291 293 295 295 295 296 297
286 285 285 285 285 285 284 284 284 284 283 283 283 283 283 283 284 286 287 287 287 287 288 288 288 289 289 288 289 289 289 289 289 290 291 292 292 294 294 294 295 294 295
285 285 285 284 284 284 284 284 284 283 283 283 283 283 282 283 284 285 286 287 287 287 287 288 289 288 287 288 289 288 288 289 288 289 290 291 292 291 291 292 292 293 295
284 284 284 284 284 284 283 283 283 283 282 282 282 282 282 283 284 285 286 286 287 287 287 288 287 287 287 287 287 287 287 286 287 288 289 289 289 289 290 290 291 292 292
284 284 284 284 283 283 283 283 283 283 282 282 282 282 282 283 284 285 285 286 286 287 287 286 286 287 287 285 285 286 285 286 287 287 287 288 288 289 289 289 290 290 290
284 284 283 283 283 283 283 283 283 282 282 281 281 282 283 284 284 284 285 285 286 286 286 285 286 286 284 284 284 284 284 285 284 285 285 287 287 288 288 289 288 288 287
283 283 283 283 283 283 283 283 282 281 281 281 282 283 284 284 284 284 284 285 286 285 285 286 284 283 282 282 282 283 283 282 283 284 285 286 286 287 288 287 287 287 286
283 283 283 282 282 282 282 282 282 281 281 282 283 284 284 283 283 283 284 285 285 285 286 285 283 282 281 281 281 281 281 282 283 284 284 284 284 286 287 287 287 286 285
282 282 282 282 282 282 282 281 282 282 282 283 283 283 283 283 283 284 285 284 285 285 284 283 282 281 281 281 281 281 280 281 283 282 282 283 284 286 286 286 286 285 285
282 281 281 282 282 281 281 281 281 282 282 282 283 283 283 283 283 284 283 284 284 282 281 281 281 280 280 280 280 280 280 281 282 281 282 282 283 286 285 286 285 285 284
281 281 282 282 281 281 281 281 281 281 281 282 282 282 282 283 283 283 283 283 281 280 280 281 280 280 280 280 280 280 279 280 281 281 281 283 284 285 285 285 285 284 283
281 281 281 281 281 281 281 281 281 281 281 281 281 281 282 282 282 282 283 281 279 279 280 280 280 279 279 280 279 279 279 280 280 281 281 282 285 284 284 285 285 283 282
281 281 281 281 281 281 281 281 281 281 281 281 281 281 281 281 281 282 280 279 279 279 279 279 279 279 279 279 279 279 280 280 281 280 281 283 284 284 284 285 285 284 282
280 280 281 281 281 281 280 280 281 281 281 281 281 281 280 281 282 279 279 279 279 279 279 279 279 278 279 279 278 279 279 279 280 280 281 283 283 283 283 283 282 282 281
280 280 280 280 280 280 280 280 281 281 281 281 280 280 281 281 279 279 279 279 279 278 278 278 278 278 278 278 278 279 279 279 280 280 282 283 282 282 282 281 281 280 279
280 280 280 280 280 280 280 281 280 280 280 280 280 279 279 279 279 279 279 278 278 278 278 278 277 277 277 278 278 278 279 279 279 280 283 282 282 281 280 279 278 278 278
280 280 280 280 280 280 279 280 279 279 279 279 279 278 278 278 278 278 278 278 277 277 277 277 277 277 277 278 278 278 278 279 280 282 282 282 281 280 279 278 278 278 279
280 280 280 280 279 279 279 278 278 278 278 278 277 278 278 278 278 278 277 277 277 277 277 276 276 276 277 277 278 278 279 281 283 283 282 281 280 278 278 278 278 278 279
280 280 279 279 278 277 277 277 277 277 277 276 277 277 277 277 277 277 277 277 277 277 276 276 276 276 277 278 279 280 282 284 283 281 280 279 279 281 280 280 280 281 281
279 278 277 277 276 276 276 276 276 276 276 276 277 277 277 276 277 277 277 277 276 276 276 276 276 277 278 279 281 281 284 283 281 280 279 280 281 282 283 282 283 284 284

GFSGL_925_thetae_015.txt.gz
Theta_e
295 293 291 289 288 288 288 287 287 287 287 286 286 286 287 287 287 287 287 288 288 290 290 291 292 292 290 290 293 293 293 292 296 295 298 298 297 295 296 296 296 296 301
292 290 288 288 288 287 287 287 286 286 286 286 286 286 286 286 286 286 286 287 288 289 290 292 290 289 288 289 289 290 291 291 293 296 297 295 294 295 296 295 295 298 299
290 289 288 287 287 287 286 286 286 286 286 285 285 285 285 285 285 285 287 288 288 289 289 289 288 288 288 288 289 290 291 291 292 294 294 294 294 294 294 294 294 295 296
289 288 287 287 286 286 286 286 285 285 285 285 284 284 284 284 284 285 287 288 288 288 288 288 288 288 288 289 290 291 291 291 291 292 292 293 293 292 292 292 293 293 295
288 287 286 286 286 286 286 285 285 285 284 284 284 283 283 284 284 286 287 288 288 288 287 287 287 288 288 289 290 290 290 290 290 291 291 292 292 291 292 291 291 292 295
286 286 285 285 285 285 285 284 284 284 284 283 283 283 283 283 284 286 287 287 287 287 287 287 287 287 288 289 288 289 289 289 290 290 290 291 290 291 291 292 293 293 295
285 285 285 285 285 285 284 284 284 284 283 283 283 283 283 283 284 285 286 287 287 286 286 287 287 287 288 288 288 288 289 288 287 288 289 289 289 289 290 291 292 292 293
285 285 284 284 284 284 284 284 284 283 283 282 282 282 282 282 283 285 286 286 286 286 286 286 287 287 287 287 287 289 287 286 286 287 287 287 288 288 289 290 291 291 291
285 284 284 284 284 283 283 283 283 283 283 282 282 282 282 282 283 284 286 286 286 286 286 286 287 286 286 287 289 286 285 286 285 285 286 287 287 287 288 289 290 291 291
284 284 284 284 283 283 283 283 283 283 282 282 282 281 281 282 282 284 285 285 286 286 286 287 285 285 286 288 286 285 285 285 285 286 285 284 285 285 287 288 289 290 290
284 284 284 283 283 283 283 283 283 282 282 281 281 281 282 282 283 284 284 285 285 286 286 286 285 285 287 285 284 283 283 285 284 283 283 284 284 285 286 286 288 288 289
283 283 283 283 283 283 283 282 282 281 281 281 281 282 282 283 283 283 284 284 285 285 285 285 285 287 284 283 282 282 283 283 281 281 282 283 284 284 284 284 285 286 288
283 283 283 283 282 282 282 282 281 281 281 281 282 283 283 283 283 283 283 284 285 285 285 285 284 283 283 282 281 281 281 281 281 282 283 283 283 283 283 284 285 287 286
283 282 282 282 282 282 282 281 281 281 281 282 283 283 283 283 283 283 284 284 284 284 285 282 281 281 282 281 280 280 280 280 281 281 281 282 282 282 283 284 286 286 286
282 282 282 281 282 281 281 281 281 281 282 283 283 283 283 283 283 284 284 284 284 284 282 281 280 281 280 280 280 280 280 280 281 280 281 282 282 282 283 284 286 286 287
282 281 281 281 281 281 280 280 281 281 282 282 282 282 283 283 283 283 283 283 284 282 281 280 280 281 280 280 280 280 280 280 280 280 281 281 282 282 283 285 285 286 286
281 281 281 281 280 280 280 281 281 281 281 281 281 282 282 282 282 282 282 284 281 280 280 279 279 279 279 279 279 279 279 279 279 280 281 281 281 282 285 285 286 285 284
281 281 280 280 280 281 281 281 281 280 281 281 280 281 281 281 281 282 283 281 279 279 279 279 279 279 279 279 279 279 279 279 279 280 280 280 281 284 285 286 284 284 284
280 280 280 280 281 281 281 280 280 280 280 280 281 281 280 280 281 282 280 279 279 279 279 279 278 278 278 278 278 278 279 279 280 279 280 281 283 283 284 284 284 285 283
280 280 280 280 280 280 280 280 280 280 281 280 280 280 279 280 281 279 279 279 279 279 278 278 278 278 278 277 278 278 278 279 279 279 280 281 282 282 282 282 282 282 281
280 280 280 280 279 280 280 280 280 280 280 280 279 279 280 280 279 278 278 278 278 278 278 277 277 277 277 277 277 278 278 278 279 279 280 282 282 282 281 280 280 280 281
280 279 279 279 280 280 280 280 279 279 279 278 278 278 278 278 278 278 278 278 277 277 277 277 277 277 277 277 277 277 278 278 279 279 281 282 281 280 279 279 279 281 281
280 280 279 279 279 280 279 279 278 278 278 278 278 277 277 277 277 277 277 277 277 277 277 277 277 276 276 276 277 277 278 278 279 280 281 280 279 279 278 278 278 280 281
280 280 279 279 279 279 278 277 277 277 277 277 277 276 277 277 277 277 276 276 277 277 276 276 276 276 276 276 277 278 279 281 282 280 279 279 279 280 280 280 280 279 280
280 279 278 278 277 277 276 276 276 276 276 276 276 276 276 276 276 276 276 276 276 276 276 276 276 276 276 277 279 281 284 283 281 279 279 281 281 281 281 281 281 281 281
278 278 277 276 276 276 276 276 275 275 275 276 276 276 275 275 276 276 276 276 275 275 275 276 276 277 277 279 282 283 283 282 280 280 283 283 283 284 284 283 284 284 286

GFSGL_925_thetae_018.txt.gz
Theta_e
295 294 293 291 291 290 290 290 289 289 289 289 288 288 288 288 288 288 289 289 289 290 290 291 291 292 291 290 290 290 290 291 295 293 293 293 293 293 294 294 294 295 295
294 292 291 290 290 290 289 289 288 288 288 288 288 288 288 288 287 287 288 288 289 290 290 290 290 290 289 289 289 289 290 291 292 294 292 292 292 292 293 293 293 293 293
292 291 291 290 290 289 289 288 288 287 287 287 287 287 287 287 287 287 287 288 289 289 289 289 289 289 289 289 289 290 290 291 291 291 292 291 292 292 292 292 292 292 292
291 290 290 289 289 288 288 287 287 287 287 287 286 286 286 286 286 286 287 288 288 289 289 289 288 288 288 288 289 289 290 290 290 290 291 291 291 291 291 292 292 291 292
290 289 289 288 288 287 287 287 287 286 286 286 286 286 286 286 286 286 287 287 288 288 288 288 287 287 288 288 289 289 289 289 290 291 291 290 290 290 291 290 291 291 291
289 288 287 287 287 287 287 286 286 286 286 286 286 285 285 285 285 285 286 287 287 288 287 287 287 287 287 288 288 288 288 289 289 290 290 290 289 289 289 289 289 291 291
288 287 287 286 286 286 286 286 286 286 286 286 285 285 285 285 284 285 286 286 287 287 287 286 287 287 287 287 287 287 288 289 288 287 288 288 288 288 288 289 289 290 291
287 287 286 286 286 286 286 286 286 286 286 285 285 285 284 284 284 284 285 286 286 286 286 286 286 287 287 287 287 288 289 287 286 286 285 286 287 287 287 287 288 289 289
287 286 286 285 285 285 285 285 285 285 285 285 284 284 284 283 284 284 285 285 286 286 286 286 286 287 286 286 287 288 287 286 284 284 285 286 285 285 285 287 288 289 291
286 285 285 285 285 285 285 285 285 284 284 284 284 284 283 283 284 284 285 285 285 285 286 286 286 286 285 286 287 285 285 284 284 285 285 284 283 284 285 285 286 288 289
285 285 285 285 284 284 284 284 284 284 284 284 283 283 283 284 284 284 285 285 285 286 286 286 285 285 286 285 284 284 284 284 284 283 283 283 283 284 284 285 285 285 286
284 284 284 284 284 284 284 284 284 283 283 283 283 284 284 284 284 284 284 284 285 286 285 285 285 285 283 283 283 283 283 283 282 282 282 283 283 283 283 284 283 283 284
284 284 284 284 284 284 284 283 283 283 283 283 283 284 284 284 284 284 284 284 285 285 284 285 285 283 282 282 283 282 282 281 282 282 283 283 282 282 282 283 284 284 285
284 284 284 284 284 284 283 283 283 283 283 283 284 284 284 284 284 284 284 285 284 284 285 284 282 282 281 281 281 281 281 281 281 282 282 282 282 282 283 283 284 285 286
284 284 284 284 284 283 283 282 282 282 283 283 283 283 283 283 283 283 284 284 284 284 283 282 281 281 281 281 281 281 281 281 281 281 281 281 282 282 283 283 284 285 288
283 284 283 283 283 282 282 282 282 282 282 282 282 282 282 282 283 283 283 283 284 283 281 281 281 280 281 280 280 280 280 280 280 280 280 281 282 282 283 284 286 287 286
283 283 283 283 282 282 282 282 283 282 282 282 282 282 282 282 282 282 282 283 282 281 280 280 280 280 280 280 280 280 280 280 279 280 280 281 281 282 284 286 285 285 285
282 282 282 282 282 282 282 282 282 282 282 282 282 282 281 281 281 281 282 281 280 280 280 280 280 279 279 279 279 279 279 279 279 280 280 280 281 282 284 285 285 286 285
282 282 281 282 282 282 282 281 281 282 282 282 281 281 281 280 281 281 280 279 279 280 279 279 279 279 279 279 279 279 278 279 280 279 280 280 281 283 284 283 283 283 283
282 281 281 281 281 281 281 281 281 281 281 281 281 281 280 280 281 280 279 279 279 279 279 279 278 278 278 278 278 278 278 278 279 279 280 281 283 283 283 282 281 282 283
281 281 281 281 281 281 281 281 281 281 281 280 280 280 280 280 279 279 279 278 278 278 278 278 278 278 278 278 278 278 278 278 279 280 281 282 283 282 281 281 281 283 284
281 281 281 281 281 281 281 281 280 280 280 279 279 279 279 278 278 278 278 278 278 277 278 278 278 278 277 277 277 277 278 279 279 280 281 282 281 282 282 282 282 283 284
281 281 281 281 280 280 280 280 279 279 279 279 279 278 278 278 278 278 277 277 277 277 277 277 277 277 277 277 277 278 278 279 280 281 281 280 281 282 283 283 283 284 284
281 281 280 280 279 279 279 279 279 278 278 278 278 277 277 277 277 277 276 277 277 277 277 276 277 277 277 277 277 279 280 282 282 281 280 280 282 283 283 284 284 284 284
280 280 279 279 278 278 278 278 278 278 277 277 277 277 277 276 276 276 276 276 276 276 276 276 276 277 277 277 279 281 282 282 282 281 281 281 282 283 284 284 285 286 285
279 278 278 278 278 277 277 277 277 277 277 277 277 276 276 276 276 276 276 276 275 275 275 276 276 277 277 279 281 281 282 282 283 283 283 283 284 285 286 286 286 287 287

GFSGL_925_thetae_021.txt.gz
Theta_e
299 298 296 295 294 294 293 292 291 291 290 290 290 290 290 290 290 289 289 289 289 290 290 291 291 291 291 291 291 291 291 291 292 292 292 292 292 291 292 292 292 293 293
297 296 295 294 293 293 292 291 290 290 290 290 289 289 289 289 289 288 288 289 288 289 290 290 290 290 290 290 290 290 290 290 290 292 291 291 291 291 291 292 291 291 291
296 295 294 293 292 291 291 290 290 289 289 289 289 289 288 288 288 288 288 288 288 289 289 289 289 290 289 289 289 289 289 290 290 290 290 290 290 291 291 290 289 289 291
294 294 293 292 291 290 290 289 289 289 289 289 288 288 288 288 287 287 287 287 287 288 288 288 289 289 288 288 288 289 289 290 289 290 290 290 290 290 290 288 288 289 290
293 292 291 290 290 289 289 289 288 288 288 288 288 288 288 287 287 287 287 287 287 287 288 288 288 288 288 288 288 289 288 289 289 289 290 290 290 288 288 288 288 288 288
292 291 290 289 289 289 288 288 288 288 288 288 288 288 287 287 287 287 286 286 286 287 287 288 287 287 287 287 288 288 288 288 288 288 289 290 287 287 286 287 287 288 288
291 290 289 288 288 288 288 288 288 288 288 288 288 287 287 286 286 286 286 286 286 287 287 287 287 287 287 287 287 287 287 287 288 287 287 287 286 285 286 287 287 287 287
290 289 288 288 288 287 287 288 288 288 287 287 287 286 286 285 285 285 285 286 286 286 286 286 286 286 287 287 287 287 288 287 286 285 286 285 285 286 286 286 286 286 287
289 289 288 287 287 287 287 287 287 287 287 286 286 285 285 285 285 285 286 286 286 286 286 286 286 286 286 287 287 287 285 285 284 284 285 285 284 285 285 285 285 286 286
288 287 287 287 287 287 286 287 286 286 286 285 285 285 285 285 285 286 286 286 286 286 286 286 286 285 286 287 286 285 284 284 285 284 284 283 283 283 283 284 284 285 285
287 287 286 286 286 286 286 286 286 286 285 285 285 285 285 285 285 285 285 286 286 286 286 286 285 285 286 286 284 283 283 285 283 283 282 283 283 283 283 283 283 283 284
286 286 286 286 286 286 286 286 285 285 285 284 284 285 285 285 285 285 285 285 285 285 285 285 285 286 284 283 283 282 283 283 282 282 282 283 283 282 282 282 282 282 283
286 286 286 286 286 286 286 285 285 284 284 284 284 285 285 285 284 284 284 284 285 285 284 284 286 283 282 282 281 282 282 281 282 282 282 282 282 281 281 282 282 283 284
286 286 286 286 286 286 285 285 284 284 284 284 284 284 284 284 284 284 284 284 284 284 284 285 282 282 281 281 281 281 281 281 281 282 281 281 281 281 282 282 283 283 284
286 286 286 286 285 285 285 284 284 283 284 284 284 284 283 283 283 283 284 283 283 284 284 282 281 281 281 281 281 280 280 281 281 280 280 280 281 281 282 282 283 285 286
285 285 285 285 285 284 284 284 283 284 284 283 283 283 283 283 283 283 283 283 283 283 282 281 280 280 280 280 280 280 280 280 280 280 280 280 281 281 281 283 285 286 285
284 284 284 284 284 284 284 283 283 283 283 283 283 283 283 283 282 282 282 283 282 281 280 280 280 280 280 280 280 280 280 279 279 279 279 280 280 281 282 284 284 284 285
284 284 284 283 283 283 283 283 283 283 283 283 282 282 282 282 282 281 282 281 280 280 280 280 280 279 279 279 279 279 279 279 279 279 280 280 281 282 283 284 283 283 283
283 283 283 283 282 283 283 282 282 282 282 282 282 282 281 281 281 281 280 280 279 279 279 279 279 279 279 279 279 279 279 279 279 279 279 280 281 282 283 283 282 283 285
283 283 283 282 282 282 282 282 282 282 282 282 281 281 281 281 281 280 279 279 279 279 279 278 278 278 279 279 279 278 278 278 279 279 280 281 282 283 283 283 282 282 284
282 282 282 282 282 282 282 282 282 282 281 281 281 280 280 280 279 279 279 279 278 278 278 278 278 278 278 278 278 278 278 278 279 280 281 282 282 281 282 283 283 283 285
281 282 282 282 282 282 281 281 281 281 280 280 280 280 279 279 278 278 278 278 277 277 278 278 278 278 277 278 278 278 278 279 280 281 282 282 281 281 283 284 284 284 285
281 282 282 282 281 281 280 280 280 280 280 279 279 279 278 278 278 278 277 277 277 277 277 277 277 277 277 277 278 278 279 280 281 282 282 282 281 281 284 284 285 284 284
282 282 282 281 280 280 280 279 279 279 279 279 278 278 278 278 277 277 277 277 277 277 276 276 276 277 277 277 277 278 279 281 283 283 284 283 282 283 284 284 285 286 286
281 281 280 279 279 279 279 279 279 279 278 278 277 277 277 277 276 277 277 277 276 276 276 276 276 277 277 277 278 279 281 283 284 285 284 284 284 285 286 287 287 287 287
280 279 278 278 278 278 278 278 278 278 277 277 277 277 276 276 276 276 276 276 275 275 275 275 276 277 277 278 280 281 282 284 285 285 285 285 286 286 287 287 287 287 288

GFSGL_925_thetae_024.txt.gz
Theta_e
298 297 295 294 294 293 292 291 290 290 290 290 289 289 289 289 289 288 288 288 288 288 288 288 289 289 289 290 289 290 289 289 289 289 288 288 290 289 289 289 289 290 291
297 295 294 294 293 292 291 290 290 290 289 289 289 289 289 288 288 288 288 288 287 287 287 288 288 288 288 289 289 288 288 288 288 288 289 289 288 288 288 288 289 290 290
296 295 294 293 292 291 290 290 289 289 289 289 289 288 288 288 288 288 287 287 287 287 287 287 287 287 288 288 288 288 287 288 288 289 288 288 288 288 288 289 289 288 287
294 294 293 292 291 290 290 289 289 288 288 288 288 288 288 288 288 287 287 287 287 286 286 286 287 287 288 287 287 288 288 288 288 288 288 288 288 288 288 288 287 286 285
293 292 291 290 290 289 289 289 288 288 288 288 288 288 288 288 287 287 287 287 286 286 286 286 286 287 287 287 288 288 288 287 288 289 288 287 288 286 286 286 285 284 285
292 291 290 289 289 289 288 288 288 288 288 288 288 288 287 287 287 287 287 287 286 285 285 286 286 286 286 286 287 286 287 288 288 287 287 287 285 285 285 285 284 285 286
291 290 289 289 288 288 288 287 287 288 288 287 287 287 286 286 286 286 286 286 286 286 286 285 285 286 285 285 286 287 287 287 287 286 285 284 284 285 285 285 285 285 286
290 289 289 288 287 287 287 287 287 287 287 287 286 286 285 285 285 286 286 286 286 286 285 285 285 285 286 286 286 287 287 286 285 284 284 284 285 285 285 284 284 284 284
290 289 288 287 287 287 287 286 286 286 286 286 286 285 285 285 285 285 286 286 286 285 285 285 285 285 285 286 286 287 285 284 283 283 285 285 283 283 283 283 283 284 284
288 288 287 287 286 286 286 286 286 286 286 285 285 285 284 284 284 286 286 286 286 285 285 285 285 285 285 286 286 285 284 283 283 284 282 281 281 282 282 282 283 283 283
287 287 286 286 286 286 286 286 286 285 285 285 284 284 284 284 285 285 285 285 285 285 285 285 284 284 286 285 284 283 283 284 283 281 281 281 281 282 282 282 282 282 282
286 286 286 286 286 286 286 286 285 285 284 284 283 283 284 284 284 284 284 284 285 285 284 284 283 285 284 283 282 282 283 282 280 280 281 282 281 281 280 280 281 281 281
286 286 286 286 286 286 285 285 285 284 284 283 283 283 283 283 283 283 283 284 284 284 283 284 285 283 282 281 281 281 281 280 280 281 281 281 280 280 280 280 281 282 282
286 286 286 286 286 285 285 285 284 284 283 283 283 283 283 283 283 283 284 284 283 283 284 284 282 281 280 280 280 280 279 280 280 281 280 280 280 280 280 281 281 282 283
285 285 285 285 285 285 284 284 284 284 284 284 284 283 283 283 283 284 284 283 283 283 283 281 280 280 279 279 279 279 279 280 280 280 280 279 280 280 280 281 282 283 283
285 285 284 284 284 284 283 283 283 283 283 283 283 283 283 283 283 283 283 283 283 282 281 279 279 279 279 279 279 279 279 280 279 279 279 279 280 280 280 282 282 283 283
284 284 284 284 284 283 283 282 282 282 282 282 282 283 283 283 282 282 282 282 281 280 279 279 279 279 279 279 279 279 279 279 279 279 279 279 279 280 281 282 283 283 282
284 284 284 283 283 283 282 282 282 282 281 281 281 282 282 281 281 282 281 280 279 279 279 279 279 278 278 279 279 279 279 278 278 279 279 279 280 280 281 282 283 282 283
283 283 283 283 283 282 282 282 282 281 281 281 281 281 280 280 281 281 279 279 279 279 278 278 278 278 278 278 278 278 278 278 279 278 279 279 280 281 282 282 283 283 284
283 283 283 283 282 282 282 281 281 281 281 281 280 280 280 280 280 278 278 278 278 278 277 277 278 278 278 278 278 278 278 278 278 279 279 280 281 282 281 281 283 283 283
282 282 282 282 282 282 282 281 281 281 280 280 280 279 280 280 278 278 278 278 277 277 277 277 277 277 277 277 277 277 278 278 278 279 280 281 282 281 281 281 283 284 284
281 281 281 282 282 281 281 281 280 280 279 279 279 279 279 278 278 277 277 277 277 277 277 277 277 277 277 277 277 277 277 278 278 279 280 282 282 282 281 283 284 284 284
281 281 282 282 281 280 280 279 279 279 279 279 278 278 277 277 277 277 276 276 276 276 276 276 276 276 276 276 277 277 277 278 279 280 281 284 283 283 283 284 284 284 285
281 281 281 281 279 279 278 278 278 278 278 278 278 277 277 277 276 276 276 276 276 276 275 275 275 275 276 276 277 278 279 279 281 284 285 285 284 285 285 286 286 286 287
280 280 280 279 278 278 278 278 278 278 277 277 277 277 277 276 276 276 276 276 275 275 275 275 275 276 276 278 279 280 281 282 286 286 286 286 286 286 286 287 287 287 288
279 278 278 278 278 277 277 277 277 277 277 277 276 276 276 276 276 275 275 275 274 274 274 275 276 277 279 280 281 281 283 286 287 287 287 287 286 286 287 287 288 288 288

GFSGL_925_thetae_027.txt.gz
Theta_e
297 296 295 294 294 293 293 291 290 290 289 289 289 289 289 288 288 288 288 287 287 287 286 286 286 286 287 287 287 287 288 288 287 288 287 287 287 288 288 287 288 287 287
296 295 294 294 293 292 291 291 290 289 289 289 289 289 288 288 288 288 287 287 287 287 287 286 286 286 286 286 287 287 287 287 287 287 287 288 288 287 287 288 287 287 288
295 294 294 293 293 292 291 290 289 289 288 288 288 288 288 288 288 287 287 287 287 287 286 286 285 285 286 286 286 287 287 287 288 288 288 287 287 288 287 287 286 286 286
294 294 293 292 291 290 289 289 289 288 288 288 288 288 288 287 287 287 287 287 287 286 286 285 285 285 286 286 286 287 287 287 287 286 287 288 287 287 286 285 284 284 284
294 293 292 291 290 289 289 288 288 288 288 288 287 287 287 286 286 287 287 287 287 286 286 286 285 285 286 286 286 286 286 286 287 288 287 287 286 284 284 284 283 284 285
293 292 290 290 289 288 288 288 287 287 287 287 287 286 286 286 286 287 287 287 286 286 286 285 285 285 285 285 285 286 286 287 287 287 287 285 284 284 283 283 284 285 285
291 290 290 289 288 288 287 287 287 287 287 286 286 286 285 285 285 286 286 286 286 286 286 285 285 285 285 285 285 286 286 287 287 286 285 284 284 283 284 285 284 284 284
290 289 289 288 287 287 287 286 286 286 286 286 285 285 285 284 285 285 286 286 286 285 285 285 285 285 285 285 285 286 286 286 285 284 284 283 284 284 284 283 283 283 283
289 289 288 287 287 286 286 286 286 286 286 285 285 284 284 284 284 285 286 285 285 285 285 285 285 284 284 284 285 286 284 283 282 283 284 284 282 282 282 282 283 282 282
288 288 287 287 286 286 286 286 286 285 285 285 284 284 283 283 283 284 285 285 285 284 285 284 284 283 284 286 285 284 282 282 283 283 280 280 280 281 282 281 281 281 281
287 287 287 286 286 286 286 286 285 285 285 284 283 283 283 283 283 284 284 284 284 285 284 284 283 283 286 284 283 281 281 283 282 280 280 280 280 281 280 280 280 280 281
287 286 286 286 286 286 286 285 285 284 284 283 283 283 283 283 283 283 284 284 285 284 284 283 283 285 282 282 281 281 282 282 279 279 280 281 280 280 280 280 280 280 280
286 286 286 286 286 286 285 284 284 283 283 283 282 283 283 283 283 283 284 284 284 284 283 284 283 281 280 280 280 280 280 279 280 280 280 280 280 280 280 280 280 281 281
286 285 285 285 285 285 284 284 283 283 283 283 283 283 283 283 283 283 284 284 283 283 283 281 280 279 279 279 279 279 279 279 280 280 280 279 279 279 280 280 280 281 282
285 285 285 285 284 284 283 283 283 283 283 283 283 283 283 283 283 284 283 283 283 283 282 279 279 279 279 279 279 279 279 279 280 279 279 279 279 280 280 280 280 282 282
285 284 284 284 284 283 282 282 282 282 283 283 283 283 282 283 283 283 283 283 282 281 280 279 278 278 278 278 279 279 279 279 279 279 279 279 279 279 280 281 281 282 283
284 284 284 283 283 283 282 282 281 281 281 281 281 282 282 282 282 282 282 281 280 279 278 278 278 278 278 278 278 278 278 278 278 278 278 279 279 279 280 281 282 282 283
284 283 283 283 283 283 282 282 281 281 281 280 280 281 281 281 281 281 280 279 278 278 278 278 277 277 278 278 278 278 278 278 278 278 279 278 279 279 280 281 281 282 284
283 283 283 283 282 282 281 281 281 281 280 280 280 280 279 280 281 280 278 277 277 278 277 277 277 277 278 277 277 277 277 277 278 278 278 279 279 280 281 281 281 283 285
283 282 282 282 281 281 281 281 280 280 280 279 279 279 279 280 279 277 277 277 277 277 276 277 277 277 277 277 277 277 277 277 277 277 278 279 280 281 282 281 281 282 283
282 281 281 281 281 281 281 280 280 279 279 279 279 278 280 279 277 277 277 277 276 276 276 277 277 276 276 276 276 276 276 277 277 277 278 279 280 282 283 282 282 283 283
281 281 281 281 281 280 280 279 278 278 278 278 278 278 278 277 277 277 276 276 276 276 276 276 276 276 276 276 276 276 276 276 277 278 278 279 280 283 283 283 284 284 284
281 280 281 281 280 279 279 278 278 278 278 278 277 277 277 277 277 276 276 276 276 276 275 275 275 275 275 275 276 276 276 277 278 278 279 280 283 284 284 284 285 285 285
280 280 280 279 278 278 277 277 277 277 277 277 277 276 276 276 276 275 275 275 275 275 274 275 275 275 276 276 277 278 278 279 279 282 286 285 285 285 285 285 286 286 286
278 278 278 277 277 277 277 277 277 276 276 276 276 276 275 275 275 275 275 274 274 274 274 275 275 276 276 278 280 282 284 284 287 288 286 286 285 286 287 287 287 288 286
277 277 277 277 276 276 276 276 276 276 276 275 275 275 275 275 275 274 274 273 273 273 274 275 276 278 279 280 283 284 285 287 287 286 286 286 286 286 287 287 287 288 287

GFSGL_925_thetae_030.txt.gz
Theta_e
297 296 296 295 294 294 293 291 290 290 289 289 289 289 289 288 288 288 287 287 287 286 287 286 286 286 285 285 285 285 286 286 286 287 286 287 287 287 287 287 287 287 287
296 295 294 294 293 293 292 291 290 289 289 288 288 288 288 288 287 287 287 286 287 287 287 286 286 285 285 285 285 285 285 286 286 286 287 287 287 286 286 286 287 287 286
295 294 294 293 293 292 291 290 289 288 288 288 288 288 287 287 286 286 286 287 287 287 286 286 285 285 285 285 285 285 286 286 286 286 286 286 286 286 287 286 285 284 284
294 294 293 293 292 290 289 289 288 288 288 288 287 287 286 286 285 286 286 287 287 286 286 286 286 285 285 285 285 286 286 285 285 286 286 287 287 286 286 284 283 283 283
294 293 292 291 290 289 288 288 288 287 287 287 286 286 285 285 285 286 287 287 286 286 286 286 285 285 286 286 286 286 285 286 286 287 286 286 286 284 284 283 283 283 283
293 293 291 290 289 288 288 287 287 287 287 286 286 285 285 284 285 286 287 286 286 286 285 285 285 285 285 285 285 285 285 286 286 286 287 285 284 283 283 283 283 284 283
293 291 290 289 288 287 287 287 287 286 286 286 285 284 284 283 285 286 286 286 285 285 285 285 284 284 284 284 284 284 285 285 286 284 284 283 283 283 283 284 283 282 283
291 290 289 288 287 287 287 286 286 286 285 285 284 284 283 283 284 285 286 285 285 284 284 284 284 284 284 284 284 285 285 283 283 282 282 283 284 283 282 282 282 282 282
289 289 288 287 287 286 286 286 286 285 285 284 284 283 283 283 283 284 285 285 284 284 284 284 284 284 283 284 287 284 283 282 281 282 283 282 281 281 281 282 282 282 281
289 288 287 287 286 286 286 286 285 285 284 284 283 283 283 283 283 284 285 284 284 284 284 285 284 283 284 286 284 283 281 281 282 283 280 279 280 280 281 281 281 281 281
288 287 287 286 286 286 286 285 284 284 283 283 283 283 283 283 283 284 284 285 284 285 284 284 283 283 284 283 282 281 281 283 282 279 279 280 280 280 280 280 280 280 280
287 286 286 286 286 286 285 284 284 283 283 283 283 283 283 283 283 283 284 284 285 284 284 283 283 283 282 281 281 281 282 281 279 279 280 280 280 280 280 280 280 280 280
286 286 286 286 286 285 284 283 283 282 282 283 282 283 282 282 282 283 283 284 283 284 283 283 282 281 280 279 279 280 280 279 279 280 280 280 279 279 279 279 280 280 280
286 285 285 285 285 284 283 283 282 282 282 283 283 282 282 282 282 282 283 283 283 283 283 281 280 279 279 279 278 279 278 279 279 280 279 279 279 279 279 280 280 280 280
285 285 285 284 284 283 283 282 282 282 283 283 283 282 282 282 282 283 283 283 283 282 281 279 278 278 278 278 278 278 278 279 279 278 278 278 279 279 279 279 280 281 281
284 284 284 284 283 283 282 282 282 282 282 282 282 282 282 282 282 282 282 282 282 280 279 278 278 277 278 278 278 278 278 278 278 278 278 278 278 279 279 280 280 281 282
284 284 284 283 283 282 282 281 281 281 281 281 281 281 281 281 281 282 282 281 279 279 278 277 277 277 277 277 278 278 277 277 277 277 277 278 278 278 279 280 280 281 281
284 283 283 283 282 282 282 281 281 280 280 280 279 280 280 280 281 281 280 278 277 277 277 277 277 277 277 277 277 277 277 277 277 277 278 277 278 278 279 280 281 281 283
283 283 282 282 281 281 281 281 280 280 280 279 278 278 278 279 280 279 278 277 277 277 276 276 276 277 277 277 276 276 276 276 277 277 277 277 278 278 279 280 282 283 284
283 282 282 281 281 281 281 280 280 279 278 278 278 278 278 280 278 277 277 276 276 276 276 276 276 276 276 276 276 276 276 276 276 276 277 277 278 279 280 281 283 282 283
282 281 281 281 281 280 279 279 278 278 278 278 278 278 279 279 277 277 276 276 276 276 275 276 276 276 275 275 275 275 275 276 276 276 277 277 278 279 280 283 283 283 284
281 280 280 280 280 279 279 278 277 277 277 277 277 277 277 276 276 276 276 275 275 275 275 275 275 275 275 275 275 275 275 276 276 277 277 278 279 279 281 283 283 284 284
280 279 279 279 278 278 277 277 277 277 277 277 276 276 276 276 276 275 275 275 275 274 274 274 274 275 275 275 275 275 275 276 277 278 278 279 280 283 284 283 284 284 285
278 278 278 277 277 277 276 276 276 276 276 276 276 276 276 275 275 275 275 274 274 274 274 274 275 275 276 276 276 278 278 279 279 281 284 286 285 284 284 285 286 286 286
277 277 277 276 276 276 276 276 276 275 275 275 275 275 274 274 274 274 274 273 273 273 273 275 276 276 276 277 280 283 284 282 285 286 285 286 285 285 284 286 286 286 285
276 276 276 276 275 275 275 275 275 274 274 274 274 274 273 274 274 273 273 273 272 273 275 276 277 278 279 281 285 286 286 286 286 286 287 286 285 285 286 287 287 286 285

GFSGL_925_thetae_033.txt.gz
Theta_e
298 297 297 295 295 294 294 292 290 289 289 289 288 288 288 288 287 287 286 286 286 286 286 286 286 286 285 285 285 284 284 285 285 285 285 285 286 285 285 285 286 286 286
296 295 295 294 294 293 292 290 289 289 288 288 288 288 287 287 286 286 285 286 286 287 287 286 286 286 285 285 285 284 284 284 284 285 286 285 285 285 285 285 286 286 286
295 295 293 293 293 292 290 289 288 288 288 288 288 287 286 286 285 285 286 286 287 286 286 286 285 285 285 285 285 284 284 285 286 285 285 285 285 286 286 286 285 284 283
294 294 293 293 292 290 289 288 288 288 287 287 287 286 285 285 284 285 286 287 286 286 286 285 285 285 285 285 285 285 286 285 285 285 285 286 285 285 284 283 283 283 283
294 293 292 291 290 289 288 288 287 287 287 286 286 285 285 284 284 286 287 287 286 285 285 284 284 284 285 285 285 285 285 285 285 285 285 285 283 283 282 282 282 283 283
293 292 291 290 289 288 287 287 287 287 286 286 285 285 284 283 284 286 287 287 286 285 284 284 284 284 284 284 284 284 285 285 286 286 283 283 282 282 282 282 283 284 282
293 291 290 289 288 287 287 287 287 286 286 285 285 284 283 283 284 286 286 286 285 284 284 284 284 283 284 284 283 284 285 285 284 283 282 281 281 282 283 283 282 282 282
291 290 289 288 287 287 287 287 286 286 285 285 284 283 283 283 284 285 285 285 284 284 284 284 283 284 284 284 285 286 283 282 282 282 282 282 283 283 282 282 282 282 282
290 289 288 287 287 286 286 286 286 285 284 284 283 283 283 283 283 284 285 284 284 284 284 284 284 284 283 284 285 283 282 281 281 282 283 282 281 281 282 282 282 281 281
289 288 287 287 286 286 286 285 285 284 283 283 283 283 283 283 283 284 284 284 284 284 285 284 283 283 284 285 283 282 281 280 282 283 280 279 279 280 281 281 281 280 280
288 287 286 286 286 286 285 285 284 283 283 283 283 283 283 282 282 283 284 284 284 285 283 283 283 283 284 283 282 281 281 283 281 279 279 279 280 280 280 280 280 280 280
287 286 286 286 286 286 285 284 283 283 282 282 283 283 282 282 282 282 283 284 284 283 284 283 283 283 282 281 280 281 282 281 278 279 279 280 279 279 279 279 279 279 280
286 285 286 286 286 285 284 283 283 282 282 282 282 282 282 282 282 282 283 283 283 284 283 283 282 281 280 279 279 280 280 278 278 279 279 279 279 278 278 279 279 280 280
285 285 285 285 285 284 283 283 282 282 282 282 282 282 282 281 281 282 283 283 283 283 282 281 280 279 278 278 278 278 278 278 279 279 278 278 278 278 278 279 279 279 280
285 285 285 284 284 283 282 282 282 282 282 283 282 282 282 281 282 283 283 283 283 282 281 279 277 277 277 277 277 277 278 278 278 277 277 277 277 277 278 279 279 280 280
285 284 284 284 283 282 282 282 281 281 282 282 282 282 281 281 282 282 282 282 282 280 279 277 277 277 277 277 277 277 277 277 277 277 277 277 277 278 278 279 279 280 281
284 284 284 283 282 281 281 281 280 280 280 280 280 280 281 281 281 281 282 281 279 278 277 277 276 276 276 277 277 277 277 276 276 276 276 276 277 277 278 278 279 280 282
284 283 283 282 281 281 281 281 280 280 279 279 278 279 279 280 280 281 280 278 276 276 276 276 276 276 276 276 276 276 276 276 276 276 277 276 276 277 277 278 279 280 284
283 282 282 281 281 281 281 280 279 279 278 278 277 278 278 278 280 279 278 276 276 276 276 276 276 276 276 276 276 276 276 276 277 276 276 276 277 277 278 278 279 282 285
282 281 282 281 280 280 280 279 279 278 277 277 277 277 277 279 278 276 276 276 276 275 275 275 275 275 275 275 275 275 275 275 275 276 276 276 277 277 278 279 280 282 283
281 281 281 280 280 279 278 279 277 277 277 277 277 277 278 279 276 276 276 275 275 275 275 275 275 275 275 275 275 275 275 275 275 276 276 277 277 278 279 279 280 283 283
281 279 279 279 278 277 278 277 277 276 276 276 276 276 277 276 276 275 275 275 274 274 274 274 274 274 275 275 275 275 275 275 276 276 277 277 278 279 280 281 283 283 283
279 278 278 277 277 277 277 276 276 276 276 276 276 275 275 275 275 274 274 274 274 273 273 273 274 274 275 275 275 275 275 276 276 277 277 278 280 281 283 284 283 283 284
278 277 277 276 276 276 276 276 275 275 275 275 275 275 275 274 274 274 274 273 273 273 273 274 274 275 276 276 277 278 278 278 279 282 285 285 285 285 285 285 285 285 285
277 276 276 276 275 275 275 275 274 274 274 274 274 274 274 273 273 273 273 273 273 273 274 275 276 276 277 279 282 283 284 283 286 286 286 286 285 285 286 286 286 285 284
276 276 275 275 275 275 274 274 274 273 273 273 273 272 272 272 272 272 272 272 272 273 275 276 278 279 281 284 285 286 286 287 286 286 287 287 286 286 287 286 286 284 284

GFSGL_925_thetae_036.txt.gz
Theta_e
299 298 296 295 295 294 293 291 290 289 289 289 288 288 288 287 286 286 285 285 286 286 286 286 286 286 285 285 285 285 284 284 284 284 284 284 285 284 284 284 285 285 285
297 296 295 294 293 293 291 290 289 289 288 288 288 288 287 286 286 285 285 286 286 286 286 286 285 285 285 285 284 284 284 284 283 284 284 284 284 284 284 285 285 285 285
295 294 293 293 293 291 290 289 288 288 288 288 288 287 286 285 285 284 285 286 286 286 286 285 285 284 284 284 284 284 284 284 285 285 284 284 284 285 285 284 283 282 282
294 293 293 292 291 290 289 288 288 288 288 287 287 286 285 285 284 285 286 287 286 286 285 285 284 283 284 284 284 285 285 284 284 284 285 285 285 283 283 282 281 282 282
293 293 292 291 290 289 288 287 287 287 287 287 286 285 285 284 284 286 287 287 286 286 285 284 284 284 284 285 285 285 284 285 285 285 285 283 283 282 281 281 281 282 283
293 292 290 290 289 288 287 287 287 287 286 286 285 285 284 283 283 286 287 286 286 285 284 284 284 283 283 284 284 284 285 286 286 284 283 282 282 281 281 282 283 282 282
292 290 290 289 288 287 287 287 287 286 286 285 284 284 283 283 284 286 286 286 285 284 284 284 284 284 284 284 284 284 285 285 283 283 282 281 281 282 283 283 282 282 282
291 289 289 288 287 286 287 287 286 286 285 284 284 283 283 283 283 285 285 285 284 284 284 284 284 284 284 284 284 286 284 282 282 282 282 282 283 283 282 282 282 282 282
289 289 288 287 286 286 287 286 286 285 284 284 283 283 283 283 283 284 285 284 284 284 284 284 284 284 283 284 286 284 283 281 281 282 283 282 281 281 281 282 281 281 281
289 288 287 286 286 286 286 286 285 284 283 283 283 283 282 282 282 283 284 284 284 284 284 283 283 283 283 285 283 282 281 280 281 283 279 279 279 279 280 280 280 280 280
288 287 286 286 286 286 285 285 284 283 283 282 282 283 282 282 282 283 283 284 284 284 283 283 283 283 284 283 282 281 281 283 281 278 278 279 279 279 279 279 279 279 279
287 286 286 286 286 285 285 284 283 283 282 282 282 282 282 282 282 282 283 284 284 283 283 283 282 283 282 281 280 281 282 281 278 278 278 279 279 278 278 278 278 278 278
286 286 285 285 285 285 284 283 283 282 281 282 282 282 282 281 281 281 283 283 283 283 283 283 282 281 280 279 279 280 279 277 278 278 279 278 278 277 277 277 278 278 279
285 285 285 285 285 284 283 283 282 282 281 282 282 282 281 281 281 281 282 283 283 283 282 281 280 278 278 278 277 277 277 277 278 278 278 277 277 277 277 277 278 278 279
285 285 284 284 284 283 283 282 282 281 282 283 282 282 281 281 281 282 283 283 283 282 281 279 277 277 277 277 277 277 277 277 277 277 277 276 277 277 277 277 278 278 279
284 284 284 284 283 282 282 282 281 281 281 282 281 281 281 281 281 282 282 282 282 280 279 277 276 276 276 276 276 277 277 277 276 276 276 276 276 276 277 278 277 278 279
284 284 283 283 282 281 281 281 280 280 280 280 280 280 280 280 281 281 282 281 279 278 277 276 276 276 276 276 276 276 276 276 276 276 276 276 276 276 277 277 277 278 280
284 283 283 282 281 281 281 280 279 279 278 278 278 278 279 279 280 281 280 278 276 276 276 276 275 275 275 275 276 276 276 276 275 275 276 276 276 276 276 277 277 278 281
283 283 282 281 281 281 280 279 279 278 277 277 277 277 277 278 279 279 277 276 276 275 275 275 275 275 275 275 275 275 275 275 276 276 275 276 276 276 276 277 278 280 282
282 282 282 280 280 279 278 278 278 277 277 276 276 276 276 278 278 276 276 275 275 275 275 275 274 274 275 275 275 275 275 275 275 275 276 276 276 276 277 278 279 280 281
281 280 280 279 278 278 277 278 277 276 276 276 276 276 278 278 276 275 275 275 274 274 274 274 274 274 274 274 274 274 274 275 275 275 276 276 277 277 278 279 280 281 283
280 279 278 278 277 277 278 277 276 276 276 276 276 275 276 275 275 275 274 274 274 273 273 273 273 274 274 274 274 274 274 275 275 276 276 277 278 279 280 280 281 283 283
278 278 277 277 276 277 276 276 275 275 275 275 275 274 274 274 274 274 273 273 273 273 273 273 274 275 275 275 275 275 275 276 277 278 278 279 280 281 283 284 284 283 283
277 277 276 276 276 276 275 275 275 275 274 274 274 274 274 274 273 273 273 273 273 273 274 275 275 275 276 277 278 278 279 281 280 282 285 286 285 286 286 285 285 284 284
276 276 276 275 275 275 275 274 274 274 273 273 273 273 273 272 272 272 272 273 273 274 275 276 277 277 278 280 282 283 285 285 286 287 287 287 286 286 286 286 285 284 284
276 276 275 275 275 274 274 273 273 273 273 273 273 273 272 272 272 272 273 273 274 275 276 278 279 280 281 283 285 285 286 286 287 287 287 287 287 286 286 285 285 284 284

GFSGL_925_thetae_039.txt.gz
Theta_e
300 299 297 295 295 294 293 292 291 290 289 289 289 288 288 287 287 286 285 285 286 286 286 286 285 285 285 285 285 285 285 285 286 285 285 285 285 285 285 285 285 285 285
296 296 295 294 293 293 291 290 290 289 289 288 288 288 287 286 286 285 285 286 286 286 286 286 285 285 284 284 284 284 284 284 285 285 285 285 285 285 285 285 285 284 283
294 294 292 292 292 291 290 289 289 288 288 288 288 287 286 286 285 284 285 286 286 286 286 285 284 284 284 284 284 284 284 285 285 285 285 285 285 285 285 284 283 282 282
293 292 292 292 291 290 289 288 288 288 288 287 287 286 285 285 284 285 286 287 287 286 286 285 284 284 284 284 285 285 285 285 285 285 285 286 285 284 283 283 283 283 283
292 292 291 290 290 289 288 287 287 288 287 287 286 285 285 284 284 286 287 287 286 286 285 284 284 284 285 285 285 285 285 285 285 286 286 285 284 283 283 283 283 283 283
292 291 290 289 288 288 287 287 287 287 286 286 285 285 284 284 283 286 287 286 286 285 284 284 284 284 283 284 284 284 285 285 286 286 284 284 283 282 283 283 283 284 284
291 289 289 288 287 287 287 287 287 286 286 285 285 284 283 283 284 286 286 286 285 284 284 284 284 283 284 283 283 284 285 286 285 284 283 282 282 283 283 284 283 283 283
289 289 288 287 287 286 287 287 286 286 285 284 284 283 283 283 283 285 285 285 284 284 284 283 283 283 283 284 284 285 284 283 283 282 282 282 283 284 282 282 282 282 282
288 288 287 287 286 287 287 286 286 285 284 284 283 282 283 282 282 284 285 284 284 284 283 283 283 283 283 284 285 284 283 282 281 282 283 283 281 281 281 282 282 281 282
288 287 287 287 287 287 286 286 285 284 284 283 282 282 282 282 282 283 284 284 284 284 284 284 283 283 283 285 284 283 282 281 282 283 281 280 279 280 280 280 280 280 280
287 287 286 286 287 286 286 285 284 284 283 282 282 282 282 282 282 283 283 284 284 284 283 283 283 283 284 283 282 282 281 283 282 280 279 279 280 280 280 279 279 279 279
287 286 286 286 286 285 285 284 283 283 282 282 282 282 282 282 281 282 283 284 284 283 283 283 283 283 282 281 281 280 282 281 279 279 279 279 279 279 278 278 278 277 278
286 286 286 285 285 285 284 283 283 282 281 282 282 282 282 281 281 281 282 283 283 283 283 283 283 281 280 279 279 280 279 278 278 278 279 279 278 278 277 277 278 278 278
285 285 285 285 284 284 283 283 282 281 281 282 282 282 282 281 281 281 282 283 283 283 282 282 280 279 278 278 278 278 278 278 278 279 278 278 277 277 278 278 277 278 279
285 285 284 284 284 283 282 282 281 281 282 282 282 281 281 281 281 282 282 283 283 282 282 280 278 277 277 277 277 277 278 278 278 277 277 277 277 277 277 277 278 278 278
284 284 284 283 283 282 281 281 281 281 281 281 281 281 281 281 281 282 282 283 282 281 279 277 277 277 277 277 277 277 277 277 277 277 276 277 277 277 277 278 278 278 279
284 284 283 282 282 281 281 280 280 280 279 279 279 280 280 280 280 281 282 281 279 278 277 276 276 276 276 276 276 276 276 276 276 276 276 276 277 277 277 277 277 278 279
284 283 282 282 281 281 280 280 279 278 278 278 278 278 279 279 280 281 280 278 276 276 276 276 276 275 275 275 276 276 276 276 276 276 277 277 276 276 277 277 278 278 280
283 283 282 281 280 280 279 278 278 277 277 277 277 277 277 278 279 279 277 276 276 276 275 275 275 275 275 275 275 275 275 275 276 276 275 276 276 277 277 277 278 280 282
282 282 281 280 279 278 278 278 277 276 276 276 276 276 276 278 278 276 275 275 275 275 274 274 274 274 274 275 275 275 275 275 275 276 276 276 277 277 277 278 279 280 281
281 280 279 278 278 277 277 277 276 276 276 276 276 276 277 278 276 275 275 275 274 274 274 274 274 274 274 274 274 274 274 275 275 275 276 276 277 278 279 279 281 281 282
279 278 278 277 277 277 277 276 276 275 275 275 275 275 276 275 275 274 274 274 274 273 273 273 273 274 274 274 274 274 274 275 275 276 277 277 278 279 280 281 282 284 284
278 278 277 277 276 276 276 276 275 275 275 275 274 274 274 274 274 274 273 273 273 273 274 274 274 275 276 275 275 275 274 276 277 277 278 280 280 282 283 285 285 284 284
277 277 276 276 276 276 275 275 274 274 274 274 273 274 273 273 273 273 273 273 273 274 275 275 276 276 277 278 279 279 279 280 281 282 284 286 285 285 285 286 284 283 283
277 276 276 275 275 275 275 274 273 273 273 273 273 273 273 273 273 273 273 274 274 275 277 278 279 278 279 281 283 283 285 284 285 287 287 286 286 286 286 285 284 284 283
276 275 275 275 275 274 274 273 273 273 273 273 273 273 273 273 274 274 274 275 275 276 278 279 281 281 283 284 284 285 286 287 287 287 287 287 286 286 286 285 284 283 283

GFSGL_925_thetae_042.txt.gz
Theta_e
304 300 297 296 296 296 294 294 293 292 291 291 290 290 290 289 288 288 288 288 288 288 288 288 288 287 287 287 287 286 286 286 288 287 287 287 286 286 286 287 286 286 286
298 297 294 295 294 294 293 292 291 291 290 290 289 289 288 288 287 287 287 288 288 288 288 288 287 287 286 286 286 286 286 286 286 288 286 286 286 286 287 286 286 285 284
296 294 293 294 293 293 292 291 290 290 289 289 289 288 287 287 286 286 287 287 288 288 288 287 287 286 286 286 286 286 286 286 286 287 287 286 287 287 287 286 285 285 285
293 293 293 294 292 291 291 290 290 289 289 288 288 287 286 286 285 286 287 288 288 288 287 287 286 285 285 285 286 286 286 286 286 286 287 287 288 287 286 285 285 284 285
292 293 293 292 291 290 289 289 289 289 288 287 287 286 286 285 285 287 288 288 288 288 287 286 286 285 285 285 286 286 286 285 286 287 287 288 287 286 285 285 285 285 285
292 291 291 290 290 289 289 288 288 287 287 286 286 285 285 285 284 286 287 287 287 287 286 286 285 285 285 285 285 285 285 286 286 288 286 286 285 284 284 285 285 286 286
292 291 290 290 289 289 288 288 288 287 287 286 285 285 285 284 283 286 286 286 287 286 286 285 285 285 285 284 284 285 285 286 286 285 285 284 284 284 284 285 285 284 284
292 291 290 289 288 288 288 287 286 286 286 286 285 284 284 284 283 285 285 286 286 285 285 285 285 285 285 285 285 285 286 285 284 284 283 283 284 284 284 283 283 283 283
291 290 289 288 288 288 287 286 286 286 286 285 284 284 284 284 283 284 285 285 285 285 285 285 285 284 284 285 285 286 284 284 283 283 283 284 284 283 283 282 283 283 284
290 288 288 288 288 287 286 286 285 285 285 284 284 284 283 283 283 284 284 285 285 285 285 285 284 284 284 285 285 284 284 283 282 283 284 282 282 282 282 282 282 282 282
288 287 287 286 286 286 286 285 285 285 284 284 284 284 284 283 283 283 284 284 285 285 285 284 284 284 284 284 283 283 282 282 283 282 282 282 282 282 282 282 281 281 281
287 286 286 286 285 285 285 285 284 284 284 284 284 284 284 283 283 283 283 284 284 284 284 284 284 284 283 282 282 281 282 282 281 281 281 281 282 281 281 280 280 279 279
286 285 285 285 285 285 285 285 285 284 284 284 284 284 284 283 283 282 283 283 284 284 284 284 284 283 281 280 280 281 280 280 280 280 281 281 281 280 279 279 280 280 280
286 286 285 285 285 284 284 283 284 284 284 284 284 283 283 283 282 282 283 283 283 284 283 283 282 281 280 280 280 280 280 280 280 280 280 280 280 280 280 280 280 280 280
286 286 286 285 285 284 283 283 283 283 283 283 283 282 282 282 282 282 283 283 283 283 282 281 280 280 280 280 280 280 280 280 280 280 279 279 279 279 280 280 280 281 281
286 285 285 284 284 283 283 283 281 281 280 281 281 281 281 281 282 282 282 283 282 281 280 280 279 279 279 279 279 279 279 279 279 279 278 279 279 279 279 280 280 280 281
286 285 284 284 283 283 282 282 282 281 280 280 280 280 280 280 280 281 282 281 280 279 279 279 279 279 278 278 278 278 279 279 278 278 278 278 279 279 279 280 280 281 282
284 283 283 283 282 282 281 281 280 280 280 280 279 279 279 279 280 281 280 279 278 278 278 278 278 278 278 278 278 278 278 278 278 278 278 279 278 279 279 280 281 281 282
284 283 282 281 281 280 280 280 280 279 279 279 279 279 278 278 280 279 278 277 277 278 277 277 277 277 277 277 277 277 277 277 278 278 277 278 279 279 280 280 281 282 283
284 282 281 280 280 279 279 279 279 279 279 279 279 278 278 279 279 278 277 277 277 277 277 277 277 277 277 277 277 277 277 277 277 277 278 278 279 279 280 281 282 283 284
281 281 279 279 279 278 279 279 278 278 278 278 278 278 278 278 277 277 277 277 276 276 276 276 276 276 276 276 276 276 276 277 277 277 278 278 279 280 281 282 283 284 285
280 279 278 278 278 278 279 278 278 278 277 278 277 277 277 276 276 276 276 276 276 276 276 276 276 276 276 276 276 276 276 276 277 277 278 279 279 280 282 283 285 286 285
278 278 277 277 277 278 277 277 277 277 277 277 276 276 276 276 276 276 276 276 276 276 276 275 275 276 276 276 276 276 276 277 278 278 278 279 280 282 283 286 287 286 285
277 277 277 277 276 277 277 277 276 276 276 275 275 275 275 275 275 275 275 276 275 275 275 276 276 277 277 278 279 280 281 282 281 281 282 285 286 286 286 287 286 286 285
277 277 276 276 276 276 276 276 275 275 275 275 275 275 275 275 275 275 275 275 275 275 277 278 278 279 280 281 283 284 285 286 285 287 287 286 286 286 286 286 285 285 285
276 276 275 275 275 275 275 275 275 275 274 274 275 275 274 274 275 275 275 276 276 277 278 279 280 282 283 284 284 285 287 287 286 286 285 285 286 286 286 285 285 285 285

GFSGL_925_thetae_045.txt.gz
Theta_e
316 309 303 299 295 295 295 295 294 294 294 294 293 292 292 291 290 290 290 289 289 290 290 290 290 289 289 288 288 288 288 288 288 288 288 288 288 287 287 287 288 287 287
308 303 299 295 295 295 295 294 294 294 293 293 292 292 291 290 289 289 289 289 289 290 290 289 289 289 288 288 287 287 287 287 288 288 288 287 287 287 287 288 288 288 286
303 298 295 295 295 295 294 294 293 293 292 291 291 291 290 289 288 288 288 289 289 290 289 289 289 288 288 287 287 287 287 287 287 287 287 287 287 287 288 288 286 286 286
299 296 295 295 294 294 293 293 292 292 291 291 290 289 288 288 287 287 289 289 290 290 289 289 288 288 287 286 286 286 287 287 287 286 286 287 287 288 287 286 286 285 285
296 295 294 295 293 293 292 292 291 291 290 289 289 288 287 287 287 287 288 289 289 289 289 288 287 287 286 286 286 286 286 286 286 286 287 287 287 286 286 285 285 285 285
295 294 294 293 292 292 291 291 290 289 289 288 288 287 287 286 285 285 288 288 288 288 288 287 287 286 286 286 286 286 286 286 286 287 287 287 286 285 285 285 284 285 286
293 292 293 292 291 291 290 290 290 289 289 288 287 287 287 286 285 285 287 287 287 287 287 287 286 286 286 286 285 285 286 286 286 286 286 285 285 284 284 284 285 285 284
292 292 292 291 291 290 290 289 288 288 288 288 287 286 286 286 285 284 286 286 286 286 286 286 286 286 286 286 286 286 286 286 286 285 285 284 284 284 285 285 284 284 283
292 292 291 291 290 290 289 288 288 288 287 287 286 286 286 285 285 284 285 285 285 286 286 286 286 286 285 286 286 286 286 284 284 284 284 284 285 285 284 284 283 284 283
292 291 290 290 289 289 288 288 287 287 286 286 286 285 285 284 285 284 285 285 285 285 285 285 285 285 286 286 285 285 284 283 283 283 284 283 283 282 283 283 283 284 283
290 289 289 288 288 288 287 287 287 286 286 286 285 286 285 285 284 284 284 284 285 285 285 285 285 285 285 285 285 284 283 283 283 283 282 282 282 282 282 283 282 282 282
287 287 287 287 287 287 287 286 286 286 286 286 286 286 285 285 284 284 284 284 285 285 284 284 284 284 285 284 283 282 282 283 282 282 281 281 281 282 281 281 280 280 280
287 286 286 286 287 287 287 286 287 286 286 286 285 285 285 284 284 284 283 284 284 284 284 284 284 284 283 282 281 282 282 281 281 281 281 281 281 281 280 280 281 281 281
287 287 286 286 286 286 285 285 286 285 285 285 284 284 284 283 283 283 283 283 283 283 284 283 283 282 281 281 281 281 281 281 281 281 281 281 280 280 280 280 281 281 281
287 287 287 286 286 286 285 285 285 284 283 283 283 282 282 282 282 283 283 283 283 283 283 282 281 281 280 280 280 280 280 280 280 280 280 280 280 280 280 280 280 281 281
287 287 286 286 286 285 285 285 284 282 281 280 281 281 281 282 282 282 282 282 283 282 281 280 280 280 280 280 280 279 279 280 280 280 279 279 279 279 280 281 281 280 281
287 286 285 286 285 285 284 283 283 282 282 281 281 280 281 281 281 281 282 282 280 280 279 279 279 279 279 279 279 279 279 279 279 279 279 279 279 280 280 280 280 281 282
285 285 285 285 284 283 282 282 281 281 281 281 281 281 280 280 280 281 281 279 279 279 279 279 279 279 278 278 279 279 279 278 279 278 279 279 279 279 280 280 281 281 282
285 285 284 283 282 281 281 281 281 281 280 280 280 280 280 279 280 280 279 278 278 278 278 278 278 278 278 278 278 278 278 278 279 279 278 279 279 280 280 280 281 282 284
284 282 282 281 281 280 280 280 280 280 280 280 280 279 279 279 279 278 278 278 278 278 278 278 277 277 278 278 278 278 278 278 278 278 278 279 279 280 280 281 282 283 283
283 282 280 280 280 279 280 280 279 279 279 279 279 279 279 279 278 278 278 278 277 277 277 277 277 277 277 277 277 277 277 277 278 278 278 279 279 280 280 281 282 283 284
281 280 279 279 279 279 279 279 279 279 279 279 278 278 278 277 277 277 277 277 277 277 277 277 277 277 277 277 277 277 277 277 278 278 278 279 279 280 281 282 283 285 287
280 279 279 279 278 279 279 279 279 278 278 278 277 277 277 277 277 276 276 276 276 276 277 277 277 277 278 278 278 277 277 278 279 279 279 279 280 281 282 284 286 286 285
279 279 278 278 278 278 278 278 278 277 277 277 276 277 276 276 276 276 276 276 276 277 277 277 277 278 279 279 279 281 282 283 282 282 285 285 286 286 286 286 286 284 285
278 278 278 277 277 277 277 277 277 277 277 276 276 276 276 276 275 276 276 276 276 277 277 278 279 280 280 281 283 284 286 286 286 286 285 285 285 286 286 285 285 284 285
277 277 277 277 277 277 277 277 276 276 276 276 276 276 275 275 275 275 276 276 276 277 279 279 281 282 283 284 284 285 287 287 287 286 285 285 285 286 286 286 285 285 284

GFSGL_925_thetae_048.txt.gz
Theta_e
321 311 307 304 302 299 297 297 296 295 295 294 294 293 292 291 291 291 290 290 289 290 290 290 290 289 289 289 288 288 287 287 286 287 287 287 287 287 287 287 286 287 287
305 303 299 298 296 295 295 295 295 295 294 293 293 292 291 290 290 289 289 289 289 289 289 289 289 289 289 288 288 287 287 287 287 286 287 286 286 286 286 286 287 288 287
301 298 296 295 295 295 295 294 294 294 293 292 292 291 290 289 289 288 288 289 289 289 290 289 289 289 288 288 287 286 286 286 286 286 286 286 285 285 286 287 286 285 285
296 295 295 295 295 294 294 293 293 292 292 291 290 290 289 289 288 288 289 289 289 290 289 289 289 288 287 287 286 286 286 286 286 286 285 285 285 286 286 285 285 284 284
296 295 295 294 294 293 293 292 292 291 291 290 289 289 288 288 287 287 286 288 288 288 288 288 288 287 287 287 287 287 287 286 286 286 286 286 286 286 285 285 284 284 283
295 295 294 293 292 292 291 291 291 290 289 289 288 288 288 287 287 285 287 286 286 287 287 287 287 286 286 287 286 286 287 286 286 285 286 286 286 285 284 284 283 283 284
294 293 293 292 291 291 291 290 289 289 289 288 288 287 287 287 286 285 286 285 285 286 286 286 286 286 286 286 286 286 286 286 286 286 285 285 284 284 283 283 284 285 285
293 292 292 291 290 290 290 289 289 289 288 288 287 287 286 286 286 285 285 284 285 285 285 285 286 286 286 286 286 286 286 285 285 285 284 284 284 284 285 285 285 284 283
292 291 291 290 290 289 289 289 288 288 288 287 287 286 286 285 285 285 285 285 284 284 285 285 285 285 285 286 286 286 285 285 284 283 283 284 284 284 284 283 283 283 283
291 291 291 290 289 289 288 288 288 288 287 287 286 286 285 285 285 285 285 284 284 284 284 284 285 285 285 285 286 286 284 283 283 283 283 282 282 282 282 282 282 282 282
291 291 290 289 288 288 288 287 287 287 287 286 286 286 286 285 285 285 285 284 284 284 285 284 284 284 285 285 285 284 283 283 283 283 281 281 281 281 281 281 281 281 281
288 288 288 288 289 288 287 287 286 286 286 286 285 285 285 285 284 284 285 285 285 285 284 284 284 285 285 284 283 282 283 283 281 280 281 281 281 281 281 280 280 280 280
287 288 288 287 287 287 287 286 286 286 285 285 285 284 284 283 283 283 284 284 284 284 283 283 284 283 283 282 281 282 282 280 280 280 281 281 280 280 280 280 279 280 280
287 287 287 287 286 286 286 286 286 285 284 284 283 283 282 282 282 282 283 283 282 283 283 283 282 281 281 280 280 280 280 280 280 280 280 280 280 280 279 279 279 279 279
287 287 287 286 286 286 285 285 284 284 283 281 282 281 281 281 281 283 283 283 283 283 283 281 280 279 279 279 279 279 279 279 279 279 279 279 279 279 279 279 279 280 280
287 286 286 286 285 285 285 284 284 283 282 281 281 281 281 281 282 282 282 283 283 282 281 279 279 279 279 279 279 278 278 279 278 279 279 279 279 279 279 279 280 279 279
286 286 286 285 285 284 283 283 282 282 282 282 282 281 281 281 281 281 282 282 280 280 279 278 278 278 278 278 278 278 278 278 278 278 278 278 278 278 279 279 279 279 280
286 285 285 284 284 283 282 281 281 281 280 280 280 281 281 281 281 281 281 279 278 278 278 278 278 278 277 277 278 278 278 278 278 278 278 279 279 278 279 279 279 280 280
285 284 284 283 281 281 280 280 280 280 280 280 280 279 279 279 280 279 278 278 278 278 277 277 277 277 277 277 277 277 277 277 278 279 278 278 278 279 279 279 279 281 282
284 283 282 281 280 280 280 280 280 279 279 279 279 279 279 279 278 277 277 277 277 277 277 277 277 277 277 277 277 277 277 277 277 278 278 278 278 279 279 279 280 281 281
283 281 281 280 280 279 279 279 279 279 279 278 278 278 279 279 277 277 277 277 277 276 276 277 277 277 277 277 277 277 277 277 277 278 278 278 279 279 280 280 280 281 283
281 280 279 279 279 279 279 279 278 278 278 278 277 277 278 277 277 276 276 276 276 276 277 277 277 277 277 277 277 277 277 277 278 279 279 279 280 280 280 281 281 282 284
280 279 279 279 278 278 278 278 278 278 277 277 277 276 276 276 276 276 276 276 276 276 277 277 277 278 278 278 278 279 279 280 280 281 280 281 282 284 284 285 285 285 284
279 279 278 278 278 278 277 278 277 277 277 277 276 276 276 276 276 275 275 276 276 277 278 277 278 278 279 280 281 283 283 284 284 284 286 285 284 284 285 285 286 285 284
278 278 277 277 277 277 277 277 277 276 276 276 276 276 275 275 275 275 275 276 277 277 278 278 280 280 280 281 283 284 285 286 287 287 286 285 285 285 285 285 285 285 284
277 277 277 276 276 276 276 276 276 276 275 275 275 274 274 274 274 275 276 276 277 277 278 280 281 282 283 284 283 283 286 287 287 286 286 285 284 285 285 285 284 283 283

GFSGL_925_thetae_051.txt.gz
Theta_e
318 313 315 312 311 307 305 302 300 297 298 298 297 295 294 293 292 292 291 290 290 290 290 290 290 289 289 289 288 288 287 287 285 286 286 286 286 286 285 285 285 285 286
311 312 308 307 304 303 301 298 297 296 296 295 294 293 292 291 291 291 290 289 289 289 289 289 289 289 289 288 288 287 287 286 286 285 285 285 285 285 285 285 285 286 286
307 303 300 298 299 297 297 296 295 295 295 294 293 292 291 290 290 289 289 289 289 289 289 290 289 289 288 288 287 287 286 286 286 286 285 285 285 285 285 285 285 285 285
298 297 296 296 295 295 295 295 294 294 293 292 292 291 290 289 289 288 289 289 289 289 289 288 288 288 287 287 287 287 287 286 286 286 285 285 285 285 285 285 284 284 284
297 296 295 295 294 294 293 293 293 293 292 291 292 292 290 289 288 288 287 287 287 286 286 287 287 287 287 287 287 287 287 287 286 286 285 285 285 285 285 284 283 283 283
295 295 295 294 293 292 291 291 292 292 291 290 290 290 288 287 287 286 286 286 285 285 286 286 286 286 286 286 286 286 287 287 286 286 286 285 285 284 283 283 283 283 283
294 293 293 292 291 291 292 291 290 290 290 289 288 288 287 287 286 286 285 285 284 285 285 285 285 285 285 285 285 286 286 286 286 286 285 284 284 283 283 283 283 284 284
292 292 292 291 291 290 290 290 290 290 290 288 287 287 286 286 286 285 286 285 284 284 284 285 284 285 285 285 286 286 286 285 285 285 284 284 283 284 284 284 284 283 282
291 291 291 290 290 290 289 289 288 288 288 287 287 286 286 286 285 285 285 285 284 284 284 284 285 284 284 286 286 286 286 285 284 283 284 284 284 283 283 283 282 281 281
290 290 290 290 289 289 290 290 289 288 287 287 286 286 286 285 285 285 285 285 284 284 285 284 284 284 285 286 286 285 284 283 283 284 283 282 281 281 281 281 281 281 281
291 291 291 293 293 291 288 288 287 287 287 286 286 285 285 285 285 285 285 285 285 285 284 283 283 283 285 285 285 284 283 284 283 281 280 280 280 280 280 280 280 280 280
292 292 292 290 288 287 287 287 287 286 286 285 285 285 284 284 284 284 285 285 285 284 283 283 283 284 284 283 283 282 283 283 280 280 280 280 280 280 280 280 280 279 279
287 287 288 289 287 287 287 286 286 285 285 284 284 283 282 282 282 282 283 283 283 283 283 283 284 283 281 280 280 281 281 279 279 279 279 280 279 279 279 279 279 279 279
290 290 287 287 286 286 286 286 285 284 283 282 282 281 281 281 281 283 283 282 283 283 283 282 281 280 279 279 279 279 279 279 279 279 279 279 278 279 279 279 278 278 278
287 286 287 286 286 285 285 284 284 283 282 281 281 281 281 281 281 283 283 283 283 283 282 280 279 278 278 278 278 278 278 278 278 278 278 278 278 278 278 278 278 278 279
286 286 286 285 285 284 284 283 283 282 282 282 282 282 281 282 282 282 282 283 282 281 279 278 277 278 278 277 278 277 278 278 278 277 277 277 278 278 278 278 279 279 279
286 286 285 284 284 283 282 281 281 281 281 281 281 282 282 282 281 282 281 281 279 279 277 277 277 277 277 277 277 277 277 277 277 277 277 277 278 278 279 278 278 278 279
285 285 284 283 282 281 281 281 280 280 279 280 280 280 280 280 281 280 280 278 277 277 277 277 277 277 277 277 277 277 277 277 277 277 278 278 278 278 278 278 278 279 279
285 284 283 281 281 280 280 280 280 279 279 279 279 279 278 279 280 278 278 277 277 277 276 276 277 277 277 276 276 276 276 276 278 278 277 278 278 278 278 279 279 280 281
283 282 281 281 280 280 280 280 279 279 278 278 278 278 278 279 278 277 276 276 276 276 276 277 277 277 277 277 277 277 276 277 277 277 277 278 278 279 279 279 280 280 280
282 281 281 280 279 279 279 279 278 278 278 278 277 277 279 278 276 276 276 276 276 276 277 277 277 277 277 277 277 277 276 277 278 278 278 279 279 280 280 280 281 281 281
281 280 280 279 278 279 279 278 278 278 277 277 277 277 277 276 276 276 275 276 276 277 277 277 277 277 277 277 277 277 277 278 279 279 279 280 280 281 282 283 283 283 284
280 280 279 278 278 278 278 278 277 277 277 277 276 276 276 276 275 275 275 275 276 277 278 277 277 278 279 279 280 280 279 280 281 282 281 282 283 284 284 284 284 285 285
279 279 278 278 278 277 277 277 277 277 276 276 275 275 275 275 275 275 275 276 277 278 278 278 278 278 279 280 282 282 283 284 284 284 286 284 284 284 284 284 285 284 284
278 278 277 277 277 277 276 276 276 276 275 275 275 275 274 274 275 275 276 277 277 278 278 279 280 280 281 282 282 283 285 286 287 287 286 286 286 286 285 285 284 283 283
278 277 277 277 277 276 276 276 276 275 275 275 274 274 274 274 275 275 276 277 277 278 279 280 281 282 283 283 282 283 285 287 287 287 287 287 286 286 286 285 285 283 283

GFSGL_925_thetae_054.txt.gz
Theta_e
318 319 316 315 315 315 311 309 308 306 304 301 300 299 296 295 294 293 292 291 290 290 290 290 290 290 289 289 289 288 288 287 284 285 285 286 286 286 286 285 284 285 285
317 314 312 312 310 309 308 306 304 302 299 299 298 296 295 294 293 291 290 291 293 291 289 289 289 289 289 289 288 288 287 287 286 284 285 286 286 286 285 285 284 285 285
310 310 308 307 305 304 302 300 299 297 296 296 295 295 293 291 291 291 289 289 289 289 290 289 289 289 288 288 287 287 287 287 286 285 285 285 285 285 285 284 284 284 284
305 304 302 301 301 300 298 296 295 295 295 294 293 292 290 289 289 289 290 291 291 289 289 288 288 287 287 287 287 287 287 286 286 286 285 285 285 285 284 284 284 283 283
297 297 296 296 296 295 294 293 293 293 293 294 291 289 289 291 293 291 290 288 287 286 286 286 286 286 287 288 287 287 287 286 286 286 284 284 284 284 284 283 283 283 283
296 296 295 295 294 293 292 291 292 291 292 292 292 292 292 290 289 288 287 286 285 285 285 285 285 285 285 286 287 286 287 287 287 286 286 284 284 284 283 283 282 282 283
294 294 293 292 291 290 291 292 292 292 292 291 290 288 288 289 288 287 286 285 284 284 284 284 284 284 284 284 285 286 286 286 286 286 285 284 284 284 283 283 282 283 283
291 291 291 291 291 292 293 292 291 290 289 289 290 291 289 287 288 287 285 285 284 284 284 284 284 284 284 285 285 286 286 286 285 285 285 284 284 284 284 284 283 282 282
291 291 291 293 292 291 289 289 289 289 287 287 287 286 286 286 285 285 285 285 285 284 284 284 284 284 284 285 286 286 285 284 284 284 284 284 284 284 283 283 282 281 280
291 291 293 294 291 289 288 288 288 290 291 288 286 285 285 285 286 286 286 285 285 284 284 284 283 283 284 285 286 285 283 283 283 283 283 282 281 281 281 281 280 280 280
290 291 290 289 290 290 291 292 289 287 285 285 285 285 285 284 284 285 286 285 285 284 283 283 282 283 285 285 284 283 282 283 283 282 280 280 281 280 280 280 280 279 279
290 290 291 292 292 292 291 287 286 285 285 285 284 284 283 283 283 284 284 284 284 283 283 283 283 284 283 282 282 281 282 282 280 279 279 279 279 279 279 279 279 279 279
292 292 291 290 288 286 286 285 285 285 284 284 283 282 281 281 281 282 283 283 283 283 283 283 283 282 280 280 280 281 281 279 279 278 279 279 279 278 278 278 279 279 278
288 288 288 287 286 286 285 285 285 283 282 282 281 281 281 281 282 283 283 283 283 283 283 281 280 279 279 279 279 279 279 278 279 279 278 278 278 278 278 278 278 278 278
289 287 286 285 285 285 284 283 283 282 282 281 281 281 281 281 282 283 283 283 283 282 281 279 278 278 277 278 278 278 278 278 278 278 277 277 277 277 278 278 277 277 278
286 286 285 285 284 284 284 283 284 283 283 282 282 282 282 282 282 282 282 282 281 281 279 277 277 277 277 277 277 277 277 277 277 276 276 276 277 277 277 278 279 278 278
286 285 285 284 284 283 282 281 281 280 280 281 282 282 281 281 281 281 281 280 279 279 277 276 277 277 277 277 277 276 276 277 277 276 276 277 277 278 279 278 278 278 278
286 285 285 284 282 281 281 280 280 279 279 279 279 280 280 280 281 280 279 277 277 277 276 276 276 277 277 276 276 276 276 276 276 277 278 278 278 277 278 278 278 278 278
285 284 283 281 280 280 280 280 279 279 278 278 278 278 279 280 279 278 277 276 276 276 276 276 277 277 277 277 276 276 276 276 277 278 277 278 278 278 278 279 279 280 282
283 282 281 280 280 280 279 279 278 278 278 278 277 277 278 279 277 276 276 276 276 276 276 277 277 277 277 277 277 277 276 277 277 277 278 279 279 279 279 279 280 281 281
282 281 280 280 279 279 279 278 278 278 277 277 277 277 279 277 276 276 275 276 276 276 277 277 277 278 278 277 277 277 277 277 279 279 279 280 280 280 281 281 281 282 282
281 280 279 279 279 279 278 278 277 277 277 277 276 276 277 276 275 275 275 276 276 277 277 277 278 278 278 278 277 278 278 279 281 280 280 280 281 282 283 283 283 284 284
280 280 279 278 278 278 277 277 277 277 277 276 276 275 275 275 275 275 275 276 277 277 278 278 279 279 279 279 280 280 280 282 282 282 281 282 283 285 284 284 284 284 284
280 279 278 278 278 277 277 277 277 276 276 275 275 275 275 274 275 275 275 276 277 278 279 279 280 279 280 280 282 282 282 284 285 284 285 286 286 285 284 284 285 285 283
279 278 278 277 277 277 277 276 276 275 275 275 275 274 274 274 275 275 276 277 278 279 280 280 281 281 281 281 282 282 284 286 286 287 286 286 286 286 285 285 286 285 283
278 278 277 277 277 277 277 276 275 275 275 275 274 274 274 275 275 275 276 278 279 279 280 281 282 282 283 283 283 283 285 287 287 287 286 285 285 285 285 286 285 285 284

GFSGL_925_thetae_057.txt.gz
Theta_e
314 314 314 316 320 320 318 316 314 312 310 309 307 305 303 299 297 295 293 292 291 291 291 291 291 291 290 289 289 288 288 287 285 286 286 286 286 286 286 285 285 284 284
315 315 314 315 314 314 312 310 309 307 305 305 303 300 297 296 294 292 292 292 292 292 292 290 289 289 289 289 288 288 287 287 285 284 285 285 286 286 286 285 285 284 284
309 310 310 309 309 308 306 305 304 302 300 298 297 295 294 293 292 292 292 292 291 289 289 291 290 289 289 288 288 287 287 286 286 285 284 285 285 286 285 285 284 284 283
303 304 304 304 303 303 301 300 298 297 296 295 296 295 293 291 291 291 289 289 290 290 290 289 288 288 287 287 287 287 287 287 286 286 285 285 285 286 285 284 283 283 283
299 299 299 299 298 297 295 294 293 292 291 293 292 290 290 289 289 291 293 292 290 287 286 286 286 286 287 287 288 287 287 287 286 286 284 285 285 284 284 284 283 282 282
295 295 295 294 293 292 291 290 291 291 291 291 291 290 291 293 293 291 288 287 285 285 285 285 285 285 285 285 286 286 287 287 287 286 286 284 285 284 283 283 283 282 283
292 291 291 291 291 291 291 291 291 291 291 291 293 293 291 291 290 289 286 285 284 284 284 284 284 284 284 284 284 285 286 286 286 286 285 285 284 284 284 283 283 282 283
292 291 292 292 291 291 291 292 292 293 293 293 292 292 291 290 289 288 285 285 285 284 284 284 284 284 284 284 285 285 285 286 285 285 284 284 284 284 285 284 283 282 282
292 292 292 291 291 291 290 290 291 291 291 291 291 288 287 288 287 286 285 285 285 284 284 284 284 283 283 285 285 286 285 284 284 283 284 284 284 283 283 282 281 281 280
291 290 290 291 291 290 291 291 291 292 291 291 285 286 285 285 287 286 286 285 284 284 284 283 282 283 284 285 286 284 283 282 283 283 283 282 281 281 281 281 280 279 280
290 291 291 291 291 292 291 291 290 289 286 284 284 284 284 284 285 286 286 285 284 284 283 283 283 283 285 284 284 282 282 283 283 282 280 281 281 281 281 280 279 279 279
291 292 291 291 291 291 291 288 286 284 284 284 284 283 283 283 282 283 284 285 284 283 283 283 283 284 283 282 281 281 282 282 280 280 279 279 279 279 280 280 279 279 279
291 291 291 291 290 287 286 285 284 284 284 283 283 282 281 281 281 283 283 284 283 284 283 283 282 281 280 279 280 281 281 280 279 278 278 279 279 278 279 279 279 278 278
291 289 287 286 285 285 285 284 284 283 282 281 281 280 281 281 282 283 283 283 283 282 282 281 279 278 278 279 279 280 279 279 278 279 278 278 278 278 278 278 277 277 277
287 286 285 285 285 284 283 283 282 282 282 281 281 281 281 281 282 283 283 283 282 281 281 279 278 278 278 278 278 279 278 278 278 277 276 277 277 277 277 278 277 277 277
286 286 285 284 284 284 283 284 284 284 283 283 282 282 282 282 282 282 282 281 280 280 278 277 277 277 277 277 277 277 278 277 277 276 276 276 277 277 277 278 279 278 277
286 285 284 284 283 282 281 281 280 280 280 281 281 281 281 281 281 281 280 280 278 278 277 277 277 277 277 277 277 277 276 277 277 277 277 277 277 277 279 277 277 278 278
285 284 284 283 281 281 281 280 280 279 279 279 279 279 280 280 281 279 279 277 277 277 276 276 277 277 277 277 277 276 277 277 277 278 278 278 278 277 278 278 278 279 279
285 284 283 281 281 281 280 279 279 278 278 278 278 278 278 279 278 277 277 276 276 276 276 277 277 277 277 277 277 277 277 277 277 278 278 278 279 279 279 279 279 281 282
284 283 282 281 280 280 279 279 278 278 278 277 277 277 278 278 277 276 276 276 276 276 276 277 277 277 277 277 277 277 278 278 279 278 278 278 280 280 280 280 281 281 282
283 282 281 280 280 279 279 278 278 277 277 277 277 277 279 278 276 275 275 275 276 276 277 277 277 278 278 278 278 278 278 279 280 279 279 280 280 280 281 281 281 282 284
282 281 280 279 279 279 278 278 277 277 277 276 276 276 277 276 275 275 275 276 276 277 277 277 278 278 278 278 279 279 279 280 281 280 280 281 281 282 283 283 284 284 284
281 280 279 279 278 278 278 277 277 277 276 276 276 275 275 275 275 275 276 276 277 278 278 278 278 279 280 280 280 281 281 281 281 282 282 282 283 285 286 285 284 285 285
280 279 279 278 278 277 277 277 277 276 276 276 275 275 275 275 275 275 276 277 278 279 279 279 280 280 281 281 282 282 281 282 283 284 284 285 286 285 285 285 285 285 285
280 279 278 278 278 277 277 277 276 276 275 275 275 275 275 275 276 276 276 277 278 279 280 280 281 281 282 282 283 282 282 285 284 286 287 286 285 285 285 285 285 285 284
279 278 278 277 277 277 277 276 276 275 275 275 275 275 275 276 276 276 276 277 278 280 280 281 282 282 283 283 284 283 282 285 285 286 287 286 285 285 285 286 286 285 285

GFSGL_925_thetae_060.txt.gz
Theta_e
313 313 313 313 314 316 318 319 319 318 316 313 310 309 307 306 302 300 296 293 292 291 291 291 290 291 292 291 290 289 288 288 286 286 286 287 286 286 286 286 286 285 285
310 311 312 311 311 312 313 313 313 312 310 309 306 304 300 299 297 295 293 292 291 291 291 292 290 290 290 288 289 288 288 287 286 284 285 285 286 286 286 286 286 285 284
308 309 307 307 306 307 309 309 308 306 304 301 301 298 296 295 294 292 292 292 292 291 290 290 291 291 289 288 288 287 287 286 286 285 284 285 285 286 286 286 285 284 283
304 304 304 304 304 302 302 300 299 298 298 296 294 293 292 292 291 291 291 290 290 291 291 291 290 288 287 286 286 287 287 287 286 286 285 285 285 286 285 284 283 283 283
299 300 298 298 299 298 296 296 294 293 292 292 292 292 292 292 292 291 291 293 293 291 289 287 286 286 287 287 288 287 287 287 286 286 285 285 284 284 284 284 283 282 282
295 293 293 293 292 292 292 292 292 291 291 291 291 290 290 291 292 294 293 290 288 285 285 284 284 284 284 284 285 286 287 287 287 286 286 284 284 284 284 283 283 282 283
292 292 292 292 291 291 291 291 290 290 290 290 291 292 293 292 292 293 291 288 285 284 284 284 284 284 284 284 284 285 285 286 286 286 286 285 284 284 284 283 283 283 283
292 292 291 291 291 291 291 290 291 292 293 293 293 293 292 291 290 286 285 284 284 284 284 284 284 284 283 284 285 285 285 286 285 284 284 284 284 284 285 284 283 282 281
291 291 291 291 291 291 291 291 292 293 292 291 291 291 289 289 288 287 285 285 285 284 284 284 283 283 283 285 286 286 284 283 283 283 283 284 284 283 283 282 281 280 280
290 290 291 290 291 291 291 291 291 291 290 289 287 287 287 287 287 286 286 285 285 284 284 283 283 283 285 285 285 284 282 282 282 283 283 282 281 282 281 281 280 279 279
290 290 290 291 292 291 291 291 291 290 287 285 284 283 284 285 287 287 286 285 284 284 283 283 283 283 284 284 283 282 281 283 283 282 281 281 281 281 281 280 279 278 278
291 291 292 292 291 291 291 289 285 284 283 283 283 283 283 283 283 285 285 285 284 284 283 283 282 283 282 281 281 281 283 282 280 280 279 279 279 280 281 281 280 279 279
292 291 291 291 290 288 285 284 284 284 283 283 282 281 281 281 282 283 283 284 283 283 282 282 281 280 279 279 280 281 280 280 279 279 278 279 279 280 280 280 280 280 279
291 290 287 285 284 284 284 284 284 283 282 281 281 281 281 282 283 283 283 282 282 282 281 281 279 278 279 279 280 280 280 279 279 278 278 278 279 279 279 279 278 278 276
286 285 285 284 284 283 282 282 282 282 281 281 281 281 281 281 282 283 283 282 282 281 280 278 278 278 279 279 279 279 279 279 278 278 277 276 278 278 278 279 278 278 277
285 284 284 284 283 283 284 284 284 284 284 283 283 282 282 282 282 282 282 281 280 280 278 277 277 278 278 278 278 278 279 279 278 277 277 277 277 277 278 279 279 278 277
285 284 284 284 283 283 282 281 280 281 281 281 281 281 281 281 282 281 280 280 278 278 277 277 277 277 277 277 277 277 277 278 277 278 278 278 278 278 279 278 278 278 278
285 284 284 283 282 281 280 280 279 279 279 279 279 279 280 281 280 279 279 277 277 277 277 277 277 277 277 277 277 277 277 278 278 278 278 278 279 278 278 279 279 279 280
285 284 283 281 280 280 280 279 279 279 278 278 278 278 278 279 278 277 277 276 276 276 276 277 277 277 278 277 277 277 277 278 277 278 279 280 280 279 279 280 280 281 283
284 283 282 281 280 280 279 279 278 278 278 277 277 277 278 278 277 276 276 275 276 276 277 277 278 278 278 278 277 277 278 279 279 279 280 280 281 280 280 281 282 282 282
284 282 281 280 280 279 279 278 278 277 277 277 277 277 278 278 276 276 275 275 276 276 277 278 278 278 278 278 278 278 278 280 280 280 280 281 280 280 281 282 282 282 283
283 282 281 280 280 279 278 278 277 277 277 277 276 276 277 276 275 275 275 276 276 277 277 278 279 279 279 279 278 278 279 280 280 280 281 281 280 281 282 284 285 285 284
282 281 280 279 279 279 278 277 277 277 277 276 276 276 276 275 275 275 276 276 276 277 278 279 280 280 280 280 280 280 280 281 281 281 281 281 281 282 285 285 285 285 285
281 280 280 279 278 278 277 277 277 277 276 276 276 276 275 275 275 275 276 276 277 278 279 280 280 281 281 281 282 282 282 282 280 281 282 283 285 286 285 285 284 285 285
280 280 279 278 278 278 277 277 277 277 276 276 276 276 275 275 276 276 276 276 277 278 279 280 281 281 282 282 283 283 284 283 281 283 284 285 286 286 285 285 285 286 286
280 279 279 278 278 277 277 277 277 276 276 276 275 275 275 275 276 276 276 276 277 278 279 280 281 282 283 283 284 284 284 284 284 285 286 286 286 286 285 286 286 286 285

GFSGL_925_thetae_063.txt.gz
Theta_e
309 310 311 312 312 313 314 315 316 316 317 317 317 315 312 311 310 308 305 301 298 293 292 292 291 290 291 292 291 290 290 289 288 288 287 287 287 287 286 286 286 286 285
307 308 308 309 309 310 310 312 311 313 313 313 312 309 307 305 302 301 297 294 292 290 290 291 292 293 293 292 292 290 289 288 287 287 286 286 286 286 286 286 286 285 285
305 306 306 307 309 309 309 308 309 309 308 306 303 301 298 296 295 294 292 291 291 291 292 293 292 292 292 291 290 288 287 286 286 285 286 285 285 286 285 285 285 284 284
301 302 302 302 302 301 300 299 299 299 298 297 295 294 293 292 292 291 291 292 293 293 293 293 293 292 291 289 287 286 287 287 286 286 286 286 285 285 285 284 285 284 284
295 295 295 296 297 296 295 294 294 292 292 291 292 292 291 291 292 292 292 292 293 293 292 292 289 287 287 287 287 287 287 286 286 286 286 286 286 286 285 285 284 284 284
293 293 293 293 293 293 293 293 293 292 292 292 292 292 292 292 293 293 294 293 292 290 285 284 284 285 285 284 286 286 287 287 287 286 286 286 286 285 284 284 284 284 284
292 292 292 292 292 292 292 292 291 291 292 292 292 292 292 292 292 293 293 291 288 285 284 284 284 284 284 283 283 285 285 286 286 286 286 285 284 284 284 284 284 284 284
292 292 291 291 291 291 291 291 291 291 291 291 292 292 291 290 289 286 286 284 284 284 284 284 284 283 283 285 285 285 286 285 284 284 284 283 284 284 284 284 283 283 283
291 291 291 290 290 290 290 290 291 292 292 291 290 289 289 288 287 285 285 284 284 284 284 283 283 283 284 286 286 285 284 283 282 282 283 283 283 283 282 283 283 282 281
290 290 291 291 291 291 291 291 291 290 289 288 288 287 287 287 287 287 285 285 284 284 283 283 283 284 285 285 285 283 282 282 282 283 282 282 282 282 282 281 281 281 280
291 291 291 291 291 291 291 290 290 289 287 284 284 284 286 287 288 287 285 284 284 284 283 283 282 284 284 283 283 282 282 284 283 282 281 281 282 282 281 281 280 279 279
292 291 291 291 291 291 290 286 284 283 283 283 283 283 283 284 284 285 285 285 285 283 283 282 282 282 281 281 281 282 283 282 281 280 280 280 280 281 282 281 281 280 279
291 291 291 291 289 285 284 284 283 283 283 282 281 281 281 282 283 284 284 283 283 282 282 282 280 280 279 280 280 281 280 280 279 279 280 280 279 280 281 281 281 281 280
291 288 286 285 284 284 284 284 283 283 282 281 280 281 281 282 283 283 283 282 282 281 281 280 278 279 279 280 280 280 280 279 279 279 278 278 279 279 279 280 279 279 278
286 285 284 284 283 282 282 282 282 281 281 281 281 281 281 282 283 283 283 282 282 281 280 278 278 279 279 279 279 279 279 279 278 277 277 278 278 278 279 280 279 278 278
285 284 284 283 283 283 284 284 284 284 284 283 282 282 281 282 282 282 282 281 280 280 278 277 277 277 277 277 278 278 278 278 278 277 277 277 277 278 279 280 280 279 279
285 284 284 283 283 283 283 281 281 282 281 281 281 281 281 281 282 281 280 279 278 278 277 277 277 277 277 277 277 277 277 278 278 278 278 278 278 279 279 280 280 280 281
285 284 284 283 281 281 280 280 279 279 279 279 278 279 280 281 280 279 279 277 276 277 277 277 277 277 277 277 277 277 277 278 278 278 278 278 280 279 278 280 281 281 282
285 284 283 282 281 281 280 279 279 279 278 278 278 278 278 279 278 277 276 276 276 276 277 277 277 278 278 278 278 278 277 278 277 278 279 280 281 279 279 280 281 282 283
284 283 282 281 280 280 279 279 278 278 278 277 277 277 278 278 278 276 276 276 276 276 277 277 278 278 278 278 278 278 278 279 279 279 279 280 281 280 280 281 281 282 283
284 282 281 280 280 280 279 279 278 278 277 277 277 277 278 278 276 275 275 276 276 276 277 278 278 279 279 279 279 278 278 279 280 280 280 281 280 279 281 281 282 282 284
283 282 281 280 280 279 279 278 278 277 277 277 277 276 277 276 275 275 276 276 276 276 277 278 278 279 279 279 279 279 279 279 280 280 280 280 280 280 281 281 282 285 285
283 282 280 280 280 279 279 278 278 277 277 277 276 276 276 276 275 276 276 276 276 277 277 278 279 280 280 280 280 280 280 281 281 280 280 280 280 281 281 283 285 285 285
282 281 280 280 279 279 278 278 277 277 277 277 276 276 276 275 275 276 276 276 276 277 277 278 279 280 280 281 281 282 282 283 283 282 281 282 282 283 285 286 285 285 285
282 281 280 280 279 279 278 278 277 277 277 276 276 276 276 275 276 276 276 276 276 276 278 279 280 281 281 282 283 283 284 284 283 282 282 283 284 285 286 285 285 285 286
281 281 280 279 279 278 278 278 277 277 277 276 276 276 275 275 275 276 276 276 276 276 278 279 281 281 282 283 284 284 284 284 285 285 285 286 286 285 285 285 286 286 286

GFSGL_925_thetae_066.txt.gz
Theta_e
308 309 309 310 310 311 312 312 312 313 313 314 315 316 316 315 313 311 310 308 304 301 298 297 294 291 291 292 293 293 293 293 292 291 291 290 288 287 288 288 287 287 287
306 308 308 309 310 310 310 309 310 311 311 312 312 311 309 308 306 305 301 298 299 294 292 291 291 291 293 294 294 294 292 291 290 289 287 287 287 287 287 287 287 287 286
305 306 306 306 306 306 305 305 304 304 303 304 305 304 302 301 300 297 295 293 292 291 291 291 292 293 293 293 293 292 291 289 287 287 287 287 287 287 287 287 287 287 286
301 301 301 299 300 299 298 297 297 296 295 295 294 293 294 293 293 292 292 292 291 292 293 293 293 294 293 292 291 289 287 287 288 288 288 288 288 287 287 287 287 286 286
298 298 297 296 295 295 295 294 293 293 293 292 292 292 292 292 291 291 292 293 294 293 293 292 292 291 290 288 288 288 288 288 287 288 288 288 288 288 287 286 286 286 286
296 296 295 294 294 293 293 293 292 292 292 292 292 293 293 293 293 293 293 293 293 292 291 290 287 286 287 287 286 287 287 288 288 288 288 288 288 287 286 285 286 285 286
294 294 294 294 293 292 292 291 292 292 292 292 292 292 292 292 292 292 292 291 290 287 285 284 285 285 284 284 284 285 286 286 286 287 287 287 286 285 285 285 285 285 285
294 293 293 292 292 290 291 291 291 292 292 291 291 291 290 288 289 289 286 285 284 284 285 285 285 284 284 285 286 287 287 286 286 285 285 285 285 285 285 285 285 285 285
293 292 292 291 291 291 291 290 291 291 290 290 289 288 288 287 286 285 285 285 285 285 284 284 284 284 284 286 287 287 286 285 283 283 283 284 284 284 284 284 284 285 285
291 291 291 291 291 290 290 290 290 290 289 289 288 288 288 288 288 286 285 285 285 285 284 284 283 285 285 285 285 285 284 283 284 284 284 283 283 283 282 283 283 283 283
291 291 291 291 291 291 291 291 290 289 288 286 286 286 287 288 288 287 285 285 285 285 284 284 283 284 283 283 283 283 283 284 284 283 283 283 284 284 284 283 283 282 282
292 291 291 291 291 290 290 287 286 285 285 284 284 284 284 285 286 286 285 285 285 284 283 283 283 282 281 281 282 283 283 283 282 282 283 284 284 284 283 282 282 281 280
292 291 291 290 287 285 285 285 284 284 284 284 283 283 283 283 284 284 284 283 283 283 282 282 281 280 280 281 281 281 281 281 282 282 283 283 283 282 281 281 282 281 281
290 289 286 285 284 284 284 284 284 284 284 283 283 283 283 283 284 284 283 283 282 282 281 280 279 279 280 280 281 281 281 281 281 282 282 281 281 281 282 282 282 282 281
287 286 285 284 284 283 283 283 283 282 283 283 283 283 283 283 284 283 283 283 282 282 281 279 280 280 281 281 281 281 281 281 281 281 280 281 281 281 282 282 282 282 282
286 285 284 284 285 285 286 286 285 284 284 283 283 282 282 282 283 282 282 281 280 280 279 279 280 281 281 281 281 281 281 280 280 280 280 280 280 280 281 282 282 282 282
285 285 284 284 285 285 284 285 285 283 282 282 281 281 282 282 281 281 280 279 278 278 279 279 280 280 280 280 280 280 280 280 278 278 279 279 279 280 281 282 282 283 283
285 284 284 284 284 283 282 281 281 281 281 280 279 280 280 281 280 279 279 277 278 278 278 279 279 279 279 280 280 279 279 279 279 279 279 279 280 280 281 282 282 282 283
285 284 283 282 281 281 280 280 280 280 280 279 279 278 278 279 279 278 277 277 277 278 278 278 279 279 279 279 278 278 278 278 278 279 278 278 279 280 281 281 282 283 284
284 284 283 281 282 280 280 280 280 279 279 279 279 278 278 279 279 278 277 277 277 277 277 278 278 278 278 278 278 277 277 278 279 279 279 280 280 280 281 281 282 283 284
284 283 282 281 281 280 280 280 279 279 279 279 278 277 278 279 278 277 277 277 277 277 277 277 278 278 278 278 277 277 277 278 278 279 279 280 280 280 281 281 282 283 284
284 283 282 281 280 280 279 279 279 278 278 278 278 277 277 277 277 277 277 277 277 276 276 277 277 278 278 278 278 277 277 278 279 279 279 279 279 280 280 281 282 284 284
284 283 281 280 280 280 280 278 278 278 278 278 278 277 277 277 276 276 276 276 276 276 276 276 277 278 279 279 280 279 279 281 281 280 278 278 279 280 280 282 284 286 286
284 283 281 280 280 280 279 279 278 278 278 278 277 277 277 276 276 276 276 276 276 276 276 277 277 278 279 280 281 281 282 282 282 281 281 281 280 281 282 284 286 285 286
283 282 280 280 280 280 278 278 278 278 277 277 277 276 276 276 276 276 276 276 276 276 277 277 278 279 280 281 282 283 283 284 283 281 282 283 284 284 285 286 285 286 286
283 282 281 280 280 279 279 278 278 278 278 277 276 276 276 276 276 276 276 276 276 276 276 277 278 280 281 282 283 283 284 284 283 284 285 285 285 285 285 285 286 286 286

GFSGL_925_thetae_069.txt.gz
Theta_e
310 311 312 312 312 313 314 313 313 314 314 314 314 314 314 315 316 315 315 314 313 310 305 302 299 298 297 294 294 294 296 296 295 291 291 291 292 292 291 288 288 288 287
309 310 310 310 311 310 310 309 309 310 310 309 311 310 309 310 311 310 309 306 304 300 298 297 295 293 293 294 293 293 294 294 294 291 289 290 290 288 287 287 287 288 288
306 307 305 305 305 304 302 301 302 302 300 299 299 299 298 299 299 299 299 297 296 295 294 294 292 292 293 293 293 292 292 291 290 289 289 288 288 288 288 288 288 288 288
303 303 301 301 300 299 298 297 296 295 295 295 294 294 294 294 294 293 293 292 292 291 292 292 292 293 293 292 291 290 289 288 288 288 289 289 289 288 288 288 288 287 286
301 300 299 298 296 296 295 295 294 294 293 293 293 293 292 292 292 292 292 292 292 292 293 292 291 291 291 291 289 288 289 289 289 289 289 289 289 289 288 288 287 286 287
299 298 297 297 296 295 295 295 294 294 294 293 293 293 293 293 293 292 292 293 292 291 290 289 288 288 288 288 287 287 288 288 288 289 289 288 288 288 287 286 286 286 286
297 297 296 295 294 294 293 293 291 291 292 292 292 293 291 291 291 292 292 290 289 288 286 286 286 285 284 284 285 286 286 287 287 287 287 287 287 286 286 285 285 285 285
296 295 295 294 292 291 291 290 290 291 291 291 290 290 288 288 290 291 290 288 286 285 285 285 285 285 284 285 286 287 287 287 287 286 286 285 285 285 286 286 286 285 285
294 293 294 292 291 290 290 290 290 290 289 289 289 288 288 287 287 286 285 285 285 285 284 285 285 285 285 287 287 287 287 286 285 284 283 284 285 285 285 285 284 285 285
293 292 291 291 291 291 291 290 289 289 289 289 288 289 289 288 287 286 286 286 286 286 285 285 284 285 285 285 285 285 285 284 283 285 285 284 284 284 284 284 283 284 284
291 291 291 290 290 290 291 290 290 290 288 288 288 289 289 288 287 287 286 286 285 285 285 284 284 284 283 283 283 283 283 284 285 285 284 284 284 284 284 284 284 284 283
291 291 291 291 290 290 291 289 287 287 286 286 286 285 286 286 286 286 285 285 285 284 284 283 283 282 282 282 282 283 284 284 283 283 283 284 284 284 284 283 282 282 281
291 291 291 291 289 287 287 287 286 286 286 285 284 284 284 284 285 284 284 283 284 283 283 282 281 281 281 282 282 282 282 282 282 283 284 284 284 283 282 282 282 282 282
293 292 289 287 286 286 286 286 286 285 285 284 284 284 284 284 285 285 284 284 283 283 283 282 280 280 281 281 281 282 282 282 282 282 282 282 282 282 282 282 282 282 282
290 287 287 286 286 285 285 285 284 284 284 284 284 283 284 284 284 284 283 283 282 282 281 280 280 281 282 282 282 282 282 282 282 282 281 281 281 281 281 282 282 282 283
288 287 286 285 286 287 286 286 285 285 283 283 282 283 283 282 283 283 282 282 281 280 280 280 281 282 282 282 282 282 282 282 281 281 280 279 280 280 280 281 282 282 283
287 286 286 286 287 287 287 287 285 283 282 281 281 281 281 282 282 281 281 280 279 279 279 280 281 281 281 281 281 281 281 280 280 279 279 279 279 279 280 281 282 283 283
286 286 285 286 286 285 284 283 283 283 282 281 280 280 280 281 281 280 280 279 279 279 279 280 280 280 280 281 280 280 280 279 279 279 279 279 279 280 280 281 282 283 283
286 285 285 284 284 283 282 282 282 281 281 281 280 280 279 279 279 279 278 278 278 278 279 279 280 280 280 280 280 279 279 279 279 279 280 280 280 280 280 281 281 283 283
286 285 284 284 283 282 282 281 281 281 281 280 280 280 279 279 281 280 279 278 278 278 278 278 279 279 279 279 279 278 278 278 279 279 280 280 280 281 281 281 281 282 282
285 284 284 283 283 282 282 281 281 281 280 280 280 279 278 279 280 279 278 278 278 278 278 278 278 279 279 279 279 278 279 279 279 279 279 280 280 280 280 281 281 281 282
285 284 284 283 282 281 281 281 280 280 280 280 280 279 278 278 278 278 278 278 278 277 277 277 277 278 278 278 278 278 278 278 278 279 279 279 279 280 280 280 281 282 283
285 284 284 282 282 281 281 280 280 280 280 280 279 279 278 278 278 278 277 277 277 277 277 277 277 277 278 278 278 278 278 280 280 280 279 279 279 279 279 280 281 282 283
285 284 283 282 281 281 281 280 280 279 279 279 279 279 278 278 277 277 277 277 277 277 277 277 277 277 277 278 279 280 280 281 281 280 280 280 280 281 281 281 282 285 285
285 284 282 282 281 281 281 280 279 279 279 278 278 278 278 277 277 277 277 276 276 276 277 276 276 277 277 278 280 281 282 282 282 280 281 282 283 283 284 285 285 285 285
284 283 283 282 281 281 280 280 279 279 279 279 279 278 278 277 277 277 276 276 276 276 276 276 277 277 277 279 281 282 282 283 282 282 282 283 284 285 285 286 286 285 286

GFSGL_925_thetae_072.txt.gz
Theta_e
310 311 311 312 312 312 311 311 312 313 313 313 313 312 311 312 313 314 314 316 316 315 313 310 306 303 301 300 300 300 300 299 297 292 292 292 291 291 292 293 291 289 288
308 308 307 307 306 305 304 305 306 306 306 307 308 307 307 308 308 308 308 307 306 305 303 301 300 298 296 296 296 296 296 296 296 292 291 291 292 292 289 288 287 288 288
304 303 302 302 301 299 299 299 299 300 300 300 301 301 300 299 300 300 300 300 298 297 296 296 294 295 294 293 293 294 293 293 294 292 290 289 288 289 288 288 288 288 288
302 300 299 298 297 297 296 296 296 296 297 297 296 296 295 295 295 295 295 294 294 293 293 292 292 293 293 293 292 291 291 290 289 288 289 289 289 289 288 288 288 287 287
300 298 297 297 296 295 295 294 294 294 294 294 294 294 293 293 293 293 292 292 292 292 292 292 292 292 291 291 290 289 289 289 289 289 288 289 289 288 288 288 287 286 286
298 297 297 296 295 294 294 294 294 293 293 293 293 293 293 293 292 291 292 292 292 290 289 289 289 290 289 288 288 289 288 288 288 288 288 288 288 288 286 286 285 285 285
297 296 295 294 293 293 292 291 290 291 291 291 291 292 291 292 291 292 293 292 290 289 288 287 286 285 285 285 286 286 286 287 287 287 287 287 286 286 285 285 285 285 285
295 295 294 292 291 291 291 289 290 290 289 289 289 289 290 290 291 291 291 290 289 288 287 286 285 284 284 286 287 287 287 287 287 286 286 285 285 284 285 285 285 285 284
294 294 292 291 290 290 290 289 289 289 289 288 289 288 287 288 288 286 286 285 285 284 284 284 285 285 286 287 286 287 286 285 285 284 284 285 285 286 286 286 284 283 284
293 292 291 291 290 290 290 289 290 289 288 289 289 289 287 287 287 287 286 286 285 285 285 284 285 285 285 285 284 284 284 283 283 285 285 284 284 284 284 284 284 283 283
291 291 290 290 291 290 289 290 290 288 288 288 289 288 288 287 287 287 286 285 285 285 284 284 283 284 283 283 283 282 283 284 284 284 283 283 284 284 284 284 284 284 284
291 291 290 290 290 291 290 289 287 287 287 286 286 286 286 286 286 286 285 285 284 283 283 283 283 283 282 282 282 283 284 284 283 283 283 284 284 284 283 283 282 282 282
291 291 291 291 290 288 287 287 286 286 285 284 284 284 284 284 284 284 284 284 283 283 282 282 282 281 281 282 282 283 282 282 282 282 283 283 283 282 282 281 282 282 282
292 292 290 288 287 287 286 286 286 285 284 284 284 284 284 284 284 284 284 283 283 282 282 282 281 281 281 282 282 282 282 282 282 282 282 282 281 281 281 281 281 282 282
293 289 287 287 286 285 285 285 285 284 284 284 284 283 283 284 284 284 283 282 282 281 282 280 280 281 281 282 282 282 282 282 282 281 281 281 280 280 280 280 280 281 282
288 287 286 286 285 285 285 285 285 283 283 283 283 283 283 282 283 282 282 282 281 281 280 279 280 281 281 281 281 281 281 281 281 280 279 279 279 279 279 280 280 281 282
287 287 286 286 286 287 286 286 284 283 282 281 281 281 281 281 282 281 281 281 280 279 279 279 280 281 281 281 281 280 280 280 280 279 279 279 279 279 280 280 280 280 281
287 286 286 286 287 287 286 286 285 284 283 282 281 280 280 280 281 281 280 280 279 279 279 279 279 280 280 280 280 280 279 279 279 279 279 279 280 280 280 279 279 280 281
287 286 286 286 286 285 284 283 282 282 281 281 281 280 280 280 280 281 280 278 278 278 278 279 279 279 279 280 279 279 279 279 279 279 279 279 280 280 280 280 280 281 282
287 286 286 285 284 283 283 282 282 281 281 281 280 280 280 279 280 281 280 279 278 278 278 278 278 278 279 279 279 279 279 279 279 279 279 279 279 279 279 280 280 280 281
286 286 285 284 284 283 282 282 282 281 281 281 280 280 280 279 279 280 280 278 278 278 277 278 278 278 278 278 279 278 278 278 278 278 279 279 279 279 279 279 279 280 280
286 286 285 284 284 283 282 282 281 281 281 280 280 280 280 280 279 278 278 278 278 278 278 277 277 277 277 277 278 278 277 277 278 279 279 279 279 278 279 279 279 279 280
287 286 285 284 284 283 282 282 281 281 280 280 280 280 279 279 278 278 278 278 278 277 277 277 277 277 277 277 277 277 277 277 279 279 279 278 278 278 279 278 279 280 281
286 286 285 284 283 282 282 282 281 281 280 280 280 280 279 279 278 278 278 277 277 277 277 277 277 277 277 277 277 277 277 279 280 280 279 279 280 280 280 280 281 281 282
287 285 285 284 283 283 282 282 281 281 280 280 279 279 279 279 278 278 278 277 277 277 277 277 277 277 277 276 277 278 279 280 281 279 280 281 281 282 282 283 284 285 285
286 286 285 284 283 283 282 282 282 281 280 280 279 279 279 279 278 278 278 277 277 277 277 277 277 277 277 277 278 279 280 281 280 280 281 282 283 283 283 284 285 285 285

GFSGL_925_thetae_075.txt.gz
Theta_e
309 309 309 309 309 310 310 310 311 312 312 313 312 312 311 311 311 311 312 311 312 313 313 311 309 305 304 302 302 301 301 302 299 293 293 294 294 294 293 292 292 292 292
306 306 305 305 304 304 303 304 305 306 307 308 308 308 307 306 307 306 307 307 307 307 305 303 301 300 299 298 298 298 298 298 297 292 291 292 292 292 292 292 289 287 288
303 303 302 301 300 299 299 299 300 301 301 302 302 301 301 301 301 301 302 302 301 299 298 298 296 296 295 295 295 294 295 295 295 293 291 291 291 289 288 288 288 288 288
301 300 298 298 297 297 297 297 298 298 298 298 297 297 296 296 297 297 297 296 296 295 295 294 294 293 293 293 293 292 292 292 291 291 289 289 289 289 288 288 288 288 287
299 298 296 296 295 295 295 295 295 295 294 294 294 294 294 294 294 294 294 293 292 292 292 292 292 292 292 291 291 290 289 289 289 289 288 289 289 288 288 287 286 286 285
297 296 295 295 294 294 294 294 293 292 292 293 293 293 292 292 291 292 292 292 292 292 291 291 290 290 289 289 289 289 288 288 288 288 288 288 287 287 286 286 285 285 284
296 295 294 294 293 292 292 291 290 291 292 292 291 291 292 292 292 292 292 292 291 290 290 289 289 287 286 285 286 287 287 287 287 287 287 287 286 285 285 285 285 285 285
295 294 293 292 291 290 290 289 289 290 290 289 290 291 291 291 290 290 291 290 289 288 287 285 285 285 285 287 287 287 287 287 287 286 286 285 285 284 284 285 285 285 284
294 293 292 291 290 290 290 290 290 289 288 288 289 289 288 288 286 286 285 285 284 284 284 285 285 285 287 287 286 286 286 285 285 284 284 285 286 286 287 286 285 284 283
293 292 291 291 291 290 290 289 289 288 288 288 287 286 287 287 288 287 286 285 285 284 284 284 285 285 285 284 284 283 283 283 283 284 285 284 284 284 284 284 284 284 283
292 292 291 291 290 290 290 289 288 289 289 288 288 287 287 287 287 287 285 285 284 284 284 283 283 284 283 283 283 282 282 284 284 284 283 283 284 284 284 284 284 283 283
292 290 290 291 290 289 290 288 288 287 287 287 286 286 286 286 285 286 285 285 283 283 283 283 283 283 282 282 282 283 284 284 282 282 283 283 283 283 283 282 281 282 282
291 290 291 291 291 291 289 287 286 286 285 284 284 284 284 284 284 285 285 284 284 283 282 283 283 281 281 281 283 283 283 282 282 282 282 282 282 282 281 281 281 281 282
291 292 291 291 289 287 287 286 286 285 284 284 284 284 283 284 284 284 284 283 283 282 282 281 281 281 281 282 282 282 282 282 282 282 281 281 281 280 280 281 281 281 280
292 292 290 288 286 286 286 286 285 285 284 284 284 284 283 283 284 284 283 282 282 282 282 280 280 280 281 282 281 281 281 281 281 281 280 280 279 279 280 279 280 280 280
293 290 286 286 286 285 285 284 284 284 284 284 283 283 282 282 283 282 282 282 282 281 280 279 280 280 281 281 281 281 281 281 280 280 279 279 279 279 279 280 280 280 280
292 288 286 286 285 285 285 285 285 284 282 282 281 281 281 281 282 281 281 281 281 281 279 279 279 280 280 280 280 280 280 280 279 279 279 279 279 279 279 280 279 279 279
291 288 286 286 285 286 286 286 285 284 283 282 281 281 281 280 281 281 281 280 278 279 279 278 279 279 280 280 280 280 279 279 279 279 279 279 279 279 279 279 279 278 279
289 287 286 286 286 286 286 286 285 284 282 281 281 281 281 281 280 281 281 280 279 278 278 278 278 278 279 279 279 279 279 279 279 279 279 279 279 279 279 279 279 280 281
289 287 287 286 286 286 285 284 283 282 282 281 281 281 280 280 280 280 281 280 279 278 278 278 278 278 278 278 279 279 279 278 278 278 278 278 279 279 279 279 278 279 279
289 287 286 286 286 285 285 283 283 282 282 281 281 281 281 280 280 279 279 280 279 278 278 278 278 277 277 277 278 278 278 278 278 278 278 278 279 278 279 278 278 279 279
290 287 286 286 285 284 284 283 282 282 282 281 281 281 281 281 280 280 279 279 278 278 278 278 277 277 277 277 277 277 277 277 277 277 278 278 278 278 278 278 278 278 278
289 287 286 286 285 284 283 283 282 282 282 281 281 280 280 280 280 279 279 279 278 278 278 277 277 277 277 277 277 276 276 276 276 277 277 277 277 278 278 278 278 278 280
290 287 286 285 285 284 284 283 282 282 281 281 281 280 280 280 280 279 279 278 278 278 277 277 277 277 277 277 276 276 276 276 276 277 278 278 278 279 279 279 279 280 281
287 286 285 285 285 284 283 283 282 282 282 281 281 280 280 280 279 279 279 278 278 278 278 277 277 277 277 277 277 277 277 277 278 279 278 279 280 280 281 281 281 282 283
286 286 285 285 285 284 284 283 283 282 282 282 281 280 280 279 279 279 279 278 278 278 277 277 277 277 278 278 278 278 278 279 278 279 280 280 280 281 282 283 283 283 284

GFSGL_925_thetae_078.txt.gz
Theta_e
308 308 309 309 309 309 309 309 310 311 312 313 312 312 312 311 312 311 311 311 310 309 309 308 308 307 305 303 302 302 302 302 300 294 295 294 294 294 295 294 295 293 292
305 306 305 304 304 305 304 304 304 306 307 308 308 307 307 307 307 305 306 306 306 306 305 305 303 301 301 300 300 299 298 298 297 294 292 292 292 293 292 292 292 290 288
303 302 301 300 300 300 299 300 301 301 302 302 303 303 302 302 302 303 303 302 301 300 300 300 299 298 297 296 296 295 295 295 295 294 291 291 291 291 290 288 288 288 288
300 299 299 298 297 297 297 297 298 298 299 299 298 298 298 298 298 298 298 297 297 296 295 295 295 294 294 293 293 293 293 293 292 291 290 289 289 288 288 288 288 288 287
299 298 296 296 296 295 295 295 295 295 295 295 295 295 295 295 295 296 295 294 293 292 292 292 292 292 292 293 292 291 291 291 290 289 288 288 288 288 288 287 286 286 286
298 296 295 295 295 295 294 293 293 293 293 293 292 292 292 292 292 293 293 293 293 292 291 291 291 291 290 290 290 289 288 288 288 289 288 288 287 287 286 285 285 285 285
296 295 295 294 294 293 293 292 292 292 292 292 292 292 292 292 292 292 293 293 292 291 290 290 289 286 285 285 286 287 287 288 287 287 287 286 286 286 285 284 285 285 285
295 294 294 293 292 291 291 290 291 291 291 291 292 292 292 291 291 291 291 291 290 287 285 285 285 285 286 287 286 287 286 286 286 286 286 285 285 284 284 284 285 285 284
294 294 293 292 291 290 289 289 289 289 290 291 291 290 288 288 286 285 284 284 284 284 284 285 285 286 287 286 285 286 286 285 284 285 285 285 286 286 287 286 286 285 283
293 293 292 291 290 290 290 289 289 289 289 288 287 287 287 288 288 286 285 285 285 284 284 285 285 285 285 284 284 283 283 283 283 283 284 284 283 283 284 284 284 284 283
293 292 291 291 290 290 289 289 288 288 287 286 286 286 287 287 287 286 285 284 284 284 283 283 283 284 283 283 283 282 282 284 284 283 283 283 283 284 284 284 284 283 283
292 291 291 290 290 290 288 288 288 288 288 287 287 286 286 285 285 286 285 285 283 282 282 282 282 283 282 283 283 283 284 284 282 282 282 283 283 282 282 282 282 281 281
292 291 290 290 290 290 288 288 287 287 286 285 285 285 284 284 285 285 285 284 284 283 282 283 283 282 281 281 283 283 283 282 282 282 282 282 281 281 280 281 281 281 281
291 290 291 290 290 290 288 287 286 285 284 284 283 283 283 283 284 284 284 283 283 282 282 281 280 281 281 282 282 282 282 281 282 281 281 281 280 280 280 280 280 280 280
291 291 290 291 290 287 286 286 285 285 284 284 284 284 283 283 283 284 283 282 282 282 282 279 280 280 281 281 281 281 281 281 281 280 280 280 280 279 279 279 279 280 279
292 292 291 290 288 286 285 285 284 285 285 284 284 283 283 282 283 283 282 282 282 282 281 279 279 280 280 281 281 281 280 280 280 279 280 279 279 279 279 279 280 279 279
292 292 290 286 286 285 285 285 285 285 284 283 282 282 282 282 283 282 281 281 282 282 280 279 279 279 280 280 280 280 280 279 279 279 279 279 279 279 279 279 279 279 278
293 293 288 286 286 285 285 285 285 284 283 282 282 282 281 281 282 282 281 281 280 279 279 279 278 278 279 279 279 280 279 279 279 279 279 279 279 278 278 278 279 278 278
293 292 289 287 286 285 285 285 285 285 284 283 282 282 282 282 281 282 282 282 281 280 279 278 278 278 278 278 278 279 279 279 279 279 279 278 278 278 278 278 278 279 280
293 292 289 287 286 285 286 286 286 285 284 282 281 281 281 280 281 281 280 281 281 280 279 278 278 278 278 278 278 278 278 278 278 278 278 278 278 278 278 278 278 277 278
293 290 289 287 286 286 286 285 285 284 282 282 282 281 281 281 281 280 280 279 279 279 279 278 278 278 278 277 277 277 277 278 277 277 277 277 277 277 278 278 278 278 278
294 292 288 287 286 286 286 286 285 283 282 282 282 281 281 282 282 281 281 280 279 279 278 278 278 278 277 277 277 277 277 277 276 276 276 276 277 277 277 277 277 277 278
294 293 289 287 286 286 285 285 284 283 282 282 282 281 281 281 281 281 280 280 279 279 278 278 277 277 277 277 277 277 276 276 277 276 276 276 276 276 277 277 277 277 278
293 291 289 287 286 285 285 284 284 283 283 282 282 282 281 281 281 280 280 280 279 279 278 278 277 277 277 277 277 277 276 276 276 276 276 276 276 277 278 277 277 279 279
292 290 288 286 285 284 284 284 284 284 283 282 282 282 282 281 281 280 280 279 279 279 279 278 277 277 277 277 278 278 278 277 277 277 277 277 278 279 279 279 280 280 280
291 289 288 287 284 285 285 284 283 284 284 283 283 282 282 281 281 280 280 279 279 279 279 278 278 277 278 278 278 278 279 279 277 277 278 279 279 280 280 280 281 281 282

GFSGL_925_thetae_081.txt.gz
Theta_e
308 308 308 308 308 309 310 310 311 312 313 314 315 315 314 314 314 315 315 312 308 308 307 306 305 305 305 306 307 305 304 304 301 295 296 295 295 295 295 294 294 294 294
305 305 304 304 304 304 304 305 305 307 308 308 308 308 307 307 307 307 306 306 306 304 304 303 302 302 303 301 301 300 299 300 299 295 293 293 293 293 292 292 292 292 290
303 303 302 301 300 300 299 300 301 302 302 303 303 303 303 304 305 304 304 302 302 301 301 300 299 298 297 296 297 296 296 296 296 295 291 291 291 291 291 291 290 288 288
301 300 299 298 298 298 298 298 299 299 299 300 300 300 300 300 300 300 300 299 297 296 296 295 295 295 294 294 294 293 293 293 293 292 291 290 289 289 288 288 288 288 288
299 298 297 297 296 296 296 296 296 296 296 296 296 296 296 296 296 297 297 295 294 293 292 293 293 292 292 292 292 292 292 292 291 289 289 288 288 288 287 287 286 286 286
298 297 296 296 295 295 294 293 293 293 293 293 293 293 292 293 293 294 294 293 291 291 290 291 291 291 290 291 290 289 289 288 288 288 288 288 287 286 286 285 285 284 284
297 296 295 295 295 294 293 293 293 293 293 292 292 292 292 292 292 292 293 293 292 291 290 289 287 286 286 286 287 286 288 288 287 286 286 286 286 285 285 284 284 284 284
296 295 295 294 293 292 292 292 292 292 292 292 292 292 292 291 291 292 291 290 289 286 285 284 285 286 287 286 286 286 286 286 286 286 285 284 284 284 284 283 285 285 285
295 294 294 293 292 291 291 291 291 292 292 292 292 290 288 287 285 285 284 284 284 284 285 285 285 286 287 286 284 285 285 285 284 285 285 285 286 286 286 285 285 285 284
294 294 294 293 291 290 290 290 290 290 290 290 287 287 288 288 287 285 285 285 284 284 284 285 285 285 285 284 283 282 282 283 283 283 283 284 283 283 283 284 284 283 283
294 293 292 291 291 290 290 290 289 289 288 287 286 287 287 287 287 286 284 284 284 283 283 283 283 284 284 283 283 282 283 284 284 283 283 283 283 283 283 283 283 283 282
294 292 291 291 290 290 289 288 288 287 286 286 286 286 286 285 286 286 286 285 283 282 282 282 282 282 282 283 283 282 284 284 282 282 282 282 282 282 282 282 281 281 281
292 292 291 290 290 290 289 288 288 288 287 286 285 285 285 284 285 285 285 285 284 284 282 283 283 283 282 281 282 283 283 282 282 282 281 281 281 281 280 280 280 280 280
292 291 290 290 290 289 288 288 288 287 285 285 284 284 283 284 284 284 284 283 283 282 281 281 280 281 281 281 282 282 281 281 281 281 281 280 280 280 279 279 279 279 279
291 291 290 290 289 289 288 287 286 286 285 284 284 284 283 283 283 284 283 282 282 282 282 281 279 280 280 281 281 281 281 281 281 280 280 280 280 280 280 279 279 279 279
291 291 290 290 289 289 287 286 285 284 284 284 284 284 283 283 283 284 284 283 283 283 282 281 279 279 280 280 280 281 281 280 280 280 279 279 279 280 279 279 279 279 278
292 291 291 290 290 287 286 285 284 285 285 285 284 283 283 282 283 284 283 282 282 283 282 281 279 279 279 280 280 280 280 280 279 279 279 279 279 279 279 278 278 278 278
292 292 292 291 289 287 285 285 285 285 285 284 283 283 282 282 282 284 283 282 282 280 279 280 279 279 278 279 279 279 279 279 279 279 279 279 279 278 278 278 278 278 278
292 292 293 290 287 286 286 285 285 285 284 283 283 282 283 283 283 283 283 283 282 282 281 279 278 278 278 278 278 278 278 279 279 279 279 279 278 278 278 278 278 278 279
293 293 293 291 287 285 285 285 284 284 284 284 284 283 282 282 282 283 283 282 282 281 281 280 279 278 278 278 278 278 277 278 278 278 278 278 277 277 277 277 277 277 277
293 293 292 291 288 286 285 285 285 285 285 285 285 284 282 281 281 281 281 281 280 280 279 279 279 278 278 278 278 277 277 277 277 277 277 277 276 276 276 277 277 277 277
293 293 291 290 289 287 286 285 285 285 285 285 284 283 282 282 282 281 281 281 281 280 280 279 279 278 278 278 278 277 277 277 277 277 276 276 275 275 276 276 276 276 276
293 292 291 290 289 288 286 285 285 285 285 285 284 283 282 282 282 282 282 281 281 280 280 279 279 278 278 278 277 277 277 277 277 276 276 276 276 275 275 275 276 276 276
293 292 291 290 289 288 286 285 285 285 285 285 284 283 282 282 282 281 281 281 280 280 280 279 279 278 278 278 278 277 277 277 276 276 276 276 275 275 275 275 276 277 277
293 291 290 289 288 287 285 285 285 285 285 284 284 283 283 283 282 282 281 281 280 280 280 279 279 279 278 278 278 278 278 278 277 277 277 276 275 276 277 277 277 277 277
293 291 290 289 288 287 286 285 284 285 285 284 284 284 284 283 283 282 282 281 280 280 280 279 279 279 278 278 278 278 278 278 277 277 277 278 278 278 278 278 279 279 279

GFSGL_925_thetae_084.txt.gz
Theta_e
308 308 308 308 308 309 309 310 311 311 313 314 315 316 316 316 316 316 315 314 316 314 309 307 306 305 305 304 305 304 304 304 303 296 296 295 295 295 296 296 296 296 296
305 305 305 304 304 305 305 305 306 307 309 309 309 309 309 309 309 309 310 309 307 305 304 304 302 302 302 302 302 303 301 300 299 296 293 293 293 293 293 293 293 293 293
303 303 302 302 301 301 301 301 302 302 303 304 304 305 305 305 306 305 305 303 303 302 301 301 300 299 298 297 297 297 296 296 297 295 291 291 291 292 292 292 292 292 288
302 301 300 299 299 299 299 299 299 299 300 300 300 300 301 301 301 301 301 300 299 298 297 297 295 295 295 295 295 294 294 294 294 293 291 291 290 290 289 288 288 288 288
300 299 299 298 297 297 297 297 297 297 297 297 297 297 297 297 297 297 297 296 294 293 292 292 292 293 293 292 292 292 292 292 290 290 289 288 288 287 287 286 286 286 286
299 298 297 296 296 296 295 294 295 294 294 294 294 294 293 293 293 294 294 292 292 292 291 292 292 292 291 291 290 290 289 287 288 288 288 287 286 286 285 285 285 284 283
298 297 296 296 296 295 294 294 294 294 293 292 292 293 293 292 292 293 293 293 291 291 290 290 288 286 286 286 287 287 287 288 287 286 286 285 285 285 285 284 283 284 284
297 296 295 295 295 294 293 293 293 292 292 292 292 292 292 291 290 292 291 291 290 287 285 285 285 287 287 286 285 286 286 285 286 285 284 284 284 284 284 284 284 285 285
296 295 295 295 294 293 292 292 292 292 292 292 292 291 291 289 288 286 285 284 284 284 284 285 286 286 286 285 283 284 285 284 284 285 285 285 285 285 285 285 284 285 284
295 295 294 294 293 292 291 291 291 292 291 290 288 287 287 287 286 285 285 284 284 284 285 285 286 285 285 284 283 282 282 282 282 283 283 283 283 283 283 283 283 283 283
295 295 294 293 292 291 291 290 290 290 290 287 287 287 287 287 287 285 284 284 283 283 283 283 283 284 284 284 283 281 284 284 284 283 282 282 283 283 283 283 283 282 282
295 294 293 292 291 290 290 290 290 289 287 286 286 286 286 286 286 287 285 284 283 282 282 282 283 283 283 283 283 282 284 284 282 282 282 282 282 282 281 281 281 281 280
294 293 292 291 291 290 290 289 288 287 286 286 286 285 285 284 285 286 285 285 284 283 282 282 283 283 282 281 282 284 284 283 282 282 282 281 281 280 280 280 280 279 279
293 292 291 290 290 290 290 288 287 287 286 286 285 285 284 284 284 284 284 284 283 282 281 281 281 281 281 281 282 282 282 281 281 281 281 280 280 280 280 279 279 279 279
293 292 291 290 290 290 289 288 288 288 287 286 285 284 283 283 284 284 284 283 282 282 282 282 280 280 280 280 281 281 281 281 281 281 280 280 280 280 279 279 279 279 279
292 291 290 290 290 290 288 287 287 286 285 285 284 283 284 283 283 283 284 284 283 283 282 282 280 279 280 280 280 280 281 281 281 280 280 280 279 279 279 279 279 278 278
292 291 291 290 290 289 288 287 285 285 285 285 285 284 284 283 283 285 285 283 283 283 283 282 281 279 279 279 279 280 280 280 280 279 279 279 279 279 279 279 278 278 278
292 292 291 290 291 289 289 286 285 285 285 285 285 285 284 283 282 285 285 283 282 282 281 280 279 279 279 279 278 279 279 279 279 279 279 279 279 279 279 278 278 277 277
292 292 291 291 291 290 289 286 285 284 285 285 284 283 285 285 284 284 285 284 283 282 282 281 281 279 279 278 278 278 278 278 278 279 279 279 278 278 278 277 277 277 278
292 292 292 292 291 290 288 285 284 284 284 284 284 284 283 283 284 284 284 283 283 283 282 282 281 280 280 279 278 278 278 278 278 277 278 278 278 277 277 276 276 276 277
292 292 292 292 291 289 287 285 285 285 284 284 285 285 285 283 283 282 282 282 282 282 281 280 280 280 280 279 278 278 278 278 277 277 277 277 277 277 276 276 275 276 276
293 292 292 291 292 290 289 286 285 285 284 284 285 286 285 283 283 282 282 281 281 281 281 281 280 280 280 279 279 278 278 278 277 277 277 277 276 276 275 275 274 275 275
293 292 291 290 291 291 289 287 286 285 285 285 285 285 285 283 283 283 283 283 282 282 282 281 280 280 280 279 279 278 278 278 278 277 276 276 276 276 275 275 274 274 274
293 292 291 290 289 289 288 287 287 286 285 284 285 285 285 285 284 283 283 283 282 282 281 281 280 280 280 279 279 278 278 278 277 277 277 276 276 276 275 274 274 274 275
293 292 291 290 289 289 288 287 286 285 285 285 285 285 285 285 284 284 283 283 282 282 281 281 280 280 280 280 279 278 278 278 277 278 277 277 276 276 276 276 276 276 276
293 292 291 290 290 289 289 288 288 286 285 285 285 285 285 285 285 285 284 283 282 282 282 281 280 280 280 280 279 278 278 278 278 278 277 277 278 278 277 277 277 277 277

GFSGL_925_thetae_087.txt.gz
Theta_e
309 309 309 309 309 309 310 310 310 312 313 315 317 318 319 319 319 320 319 317 314 314 312 313 309 307 306 305 305 305 305 305 304 297 298 297 297 296 297 297 298 298 299
307 307 307 306 306 306 306 306 306 308 308 309 310 311 312 313 312 313 313 311 310 309 308 306 304 303 303 302 302 303 302 301 301 297 294 294 295 295 295 295 295 295 294
304 304 303 303 303 302 302 302 302 303 304 304 305 306 306 306 306 306 306 305 304 303 303 302 301 301 301 300 300 299 297 297 298 296 292 293 293 293 293 292 292 292 290
303 301 301 301 301 300 300 300 300 300 301 301 301 302 302 303 303 303 302 302 301 301 300 299 299 298 298 297 295 295 295 295 295 294 292 291 290 290 290 288 288 288 287
301 301 299 299 298 298 298 298 298 298 298 299 299 299 299 299 300 300 299 299 298 296 294 294 294 294 294 293 293 293 293 293 292 292 290 289 288 288 288 286 286 286 286
300 300 299 298 297 297 296 296 296 295 295 295 295 296 295 294 294 295 296 295 294 293 293 293 293 293 292 292 291 290 290 289 289 288 287 288 286 285 285 285 285 285 286
299 298 297 297 296 296 296 295 295 294 293 293 293 293 293 293 292 292 292 292 292 292 292 291 290 288 288 288 288 288 288 288 286 286 286 285 285 285 285 284 283 284 285
298 297 296 296 296 295 295 294 294 293 293 293 293 292 292 292 291 292 292 292 291 289 287 286 286 287 286 285 286 286 286 286 285 285 284 284 284 284 284 284 284 284 285
297 296 296 295 295 294 293 293 293 292 292 292 292 292 291 291 290 291 290 287 285 284 285 286 286 286 287 283 283 284 285 285 285 285 285 285 285 286 285 285 285 285 285
297 296 295 295 295 294 293 292 292 292 292 291 291 290 288 287 285 284 284 285 285 285 285 285 285 285 285 284 282 282 282 283 283 283 282 283 283 284 283 284 283 283 283
297 296 295 295 294 293 292 292 291 291 290 289 287 287 287 287 287 285 284 284 284 284 283 283 284 285 284 284 283 282 283 283 283 283 282 282 283 283 283 283 283 282 282
296 295 294 294 293 292 291 291 291 290 289 287 287 287 287 287 287 286 283 283 283 283 283 282 282 283 283 284 283 283 285 283 282 282 282 282 282 282 281 281 281 281 280
295 294 294 293 292 291 290 290 289 289 288 286 286 286 286 286 286 287 287 286 283 283 282 283 283 284 283 281 283 284 284 283 282 282 282 281 281 281 280 280 280 279 279
294 294 293 292 291 290 290 290 289 289 287 285 285 285 285 284 285 286 286 286 285 283 283 282 281 281 281 281 282 283 282 282 282 282 281 281 280 280 280 280 280 280 279
294 293 292 291 290 290 290 290 289 289 286 286 286 285 284 284 284 284 284 284 283 282 282 282 280 280 280 280 281 281 281 281 282 281 281 280 280 280 280 280 279 279 278
293 292 291 291 290 290 289 289 289 288 287 287 285 284 284 284 283 283 283 283 282 283 283 282 281 280 280 280 280 280 281 281 281 281 280 280 280 280 280 280 279 279 277
293 292 291 290 290 289 289 289 286 287 286 285 285 285 284 284 283 284 285 286 285 284 283 283 282 281 280 279 279 279 280 280 280 280 280 279 279 279 280 280 279 278 277
292 292 292 291 290 290 290 288 287 286 285 286 286 287 286 284 283 284 286 286 284 284 283 282 281 280 280 279 279 279 279 279 279 280 279 279 279 279 279 279 279 277 277
292 292 291 291 291 290 291 289 288 286 285 285 285 286 286 286 285 285 286 285 284 283 282 282 281 281 280 279 279 278 278 278 279 279 279 279 279 279 278 278 278 278 278
293 292 292 291 290 289 290 289 287 286 284 284 284 284 284 285 286 285 285 285 285 284 283 283 282 282 281 280 280 279 278 278 278 278 278 278 278 278 278 277 277 277 276
293 292 291 291 290 290 290 289 288 286 285 284 285 285 285 283 283 284 284 284 284 284 283 283 282 281 281 280 280 279 279 278 278 278 278 277 277 277 277 277 277 276 275
293 292 292 291 290 289 290 290 288 287 285 284 285 286 285 284 284 284 284 283 283 282 282 282 282 281 281 280 280 280 279 279 278 278 278 277 277 276 276 276 276 276 275
293 292 292 291 291 291 289 288 288 287 286 285 285 285 285 285 285 286 286 284 283 283 282 282 282 282 281 280 280 280 279 279 279 278 278 277 277 276 276 275 275 275 275
293 293 292 291 290 290 289 289 287 287 287 286 285 285 285 285 285 286 286 285 284 283 283 282 282 282 281 280 280 280 280 279 278 278 278 277 277 276 275 275 274 274 274
293 292 292 291 290 290 289 289 288 288 287 286 285 285 286 286 285 285 286 286 285 283 283 282 282 282 281 281 280 280 280 279 278 278 278 277 277 277 276 276 276 276 276
292 292 292 291 290 290 289 289 289 288 288 288 288 289 289 289 288 286 286 286 285 284 283 283 282 281 282 280 280 280 279 279 278 278 278 278 277 277 278 278 277 277 276

GFSGL_925_thetae_090.txt.gz
Theta_e
308 308 307 307 308 309 309 310 311 312 313 315 316 317 318 319 320 322 322 321 319 318 314 311 310 310 309 307 307 307 306 308 309 298 299 299 297 296 297 298 299 300 300
305 305 304 304 304 304 304 306 307 307 309 310 312 313 314 315 316 316 316 314 310 308 307 306 307 306 304 304 302 302 302 303 304 300 296 296 295 296 296 297 297 296 294
304 303 303 302 302 302 301 302 303 304 305 306 306 307 308 309 309 309 309 308 306 304 303 303 303 302 302 301 300 299 299 299 300 300 295 294 294 294 294 293 292 291 291
302 302 301 301 301 300 300 299 299 300 300 301 302 302 303 304 304 304 302 301 300 300 301 301 301 300 299 297 297 296 296 297 298 298 296 295 295 293 292 292 292 290 289
302 301 300 299 298 298 298 298 298 298 298 298 298 298 300 300 300 300 301 300 300 299 298 298 296 296 296 295 295 295 295 296 297 297 296 295 294 293 293 290 290 289 288
301 300 299 298 297 297 297 296 296 296 296 296 296 296 296 295 296 297 297 296 295 293 293 293 293 293 293 293 294 293 292 293 293 294 293 294 291 290 288 288 288 288 289
300 299 298 298 297 297 297 296 296 296 295 295 295 295 295 294 294 293 293 294 294 294 293 293 292 292 291 291 290 289 289 286 288 289 289 289 288 287 287 286 286 286 287
300 299 298 298 297 296 296 295 295 295 294 294 294 294 293 293 293 292 293 293 292 291 291 289 288 287 286 287 287 287 287 287 286 286 287 286 286 285 285 285 286 286 287
300 299 298 297 297 296 295 295 294 293 293 293 293 292 292 291 292 291 292 290 289 287 286 287 288 288 285 284 286 286 286 286 286 285 285 285 284 285 285 286 287 287 288
299 299 298 296 296 295 295 294 293 293 292 292 292 292 291 291 289 291 288 286 286 286 286 286 285 287 287 283 284 285 285 285 284 284 284 283 284 285 284 285 285 286 286
298 297 296 295 295 295 294 293 292 292 292 291 291 289 289 288 287 285 285 285 286 286 286 286 286 286 285 285 283 283 284 284 284 284 284 284 284 284 284 283 283 283 284
297 296 295 294 294 294 293 292 291 291 290 289 288 288 287 288 288 287 285 284 284 284 284 284 284 284 284 284 284 283 285 284 283 283 284 284 284 284 283 282 282 281 282
296 296 295 293 293 293 292 291 290 290 288 288 288 288 287 286 288 287 286 284 283 283 283 283 283 284 284 283 283 284 285 284 283 283 284 284 283 282 281 281 281 280 280
296 295 294 293 292 292 291 291 290 289 288 288 288 287 287 286 286 287 287 287 285 283 283 284 283 283 284 282 283 285 284 283 283 284 284 283 282 281 282 282 281 281 281
296 295 292 292 292 291 290 290 290 290 290 288 287 287 286 286 285 286 286 286 286 284 283 282 282 282 283 282 282 283 282 282 283 283 283 283 283 282 282 282 281 281 280
295 294 292 292 291 291 289 289 290 290 290 288 286 286 286 285 284 284 284 284 284 283 283 283 282 281 282 282 282 282 282 282 282 283 283 283 283 282 282 282 281 280 280
296 294 292 292 291 290 289 289 288 288 288 287 287 286 285 284 284 284 284 285 285 284 284 283 283 282 282 281 282 282 282 282 282 282 282 282 282 282 281 281 281 280 280
294 293 293 292 291 290 289 289 289 289 289 288 287 287 287 286 284 284 286 286 286 286 285 285 284 283 282 281 281 281 281 281 281 281 281 281 281 281 281 281 280 280 280
294 293 292 292 291 291 290 289 289 288 287 287 286 286 288 288 287 285 286 287 286 285 285 284 283 282 281 281 281 281 280 281 281 280 280 281 281 281 281 281 280 280 280
293 293 292 292 291 290 289 289 288 288 287 286 285 285 286 287 287 287 286 287 287 285 284 283 283 282 282 281 281 280 279 279 279 279 279 280 280 280 280 280 280 280 279
293 293 292 291 291 290 289 288 288 288 287 286 285 285 285 285 287 287 286 286 286 286 285 284 284 283 282 282 281 281 280 280 279 279 279 279 278 278 279 279 279 279 279
293 293 293 292 291 290 289 289 288 288 288 287 286 285 285 285 284 285 285 285 285 285 284 284 284 283 283 282 281 281 280 280 279 279 278 278 278 277 277 278 278 278 278
293 293 292 292 291 290 289 289 288 288 287 287 287 285 285 285 285 285 284 285 285 285 285 283 283 282 282 282 281 281 280 281 280 280 279 278 277 277 277 277 278 278 278
293 293 292 292 291 291 289 289 289 288 288 288 287 286 285 285 285 285 285 285 286 286 286 285 283 283 282 282 282 281 281 281 280 279 279 278 277 277 277 277 277 277 277
292 292 292 291 291 291 290 289 289 289 288 288 288 288 289 287 285 285 286 286 285 286 286 286 284 284 283 282 282 281 281 280 280 279 278 278 277 277 276 276 277 277 277
289 290 291 291 291 290 290 290 289 289 288 288 288 288 289 289 290 289 287 287 286 285 286 286 285 285 283 283 282 281 282 280 280 279 278 278 277 277 276 275 276 276 277

GFSGL_925_thetae_093.txt.gz
Theta_e
312 311 310 309 309 309 309 309 309 309 310 311 313 314 314 315 319 320 321 322 322 322 319 318 316 313 313 312 311 310 310 310 311 301 301 300 299 299 299 298 300 300 300
309 309 308 307 307 307 306 306 306 306 306 308 309 310 312 314 315 316 318 317 316 314 313 311 310 309 309 308 306 306 306 306 306 302 298 298 298 298 297 296 297 296 295
307 307 307 306 306 305 304 304 304 304 304 304 305 305 305 308 308 309 310 309 309 308 308 306 306 305 304 303 302 302 302 302 303 302 297 296 296 295 295 295 294 293 292
306 306 305 304 304 303 302 302 301 301 302 302 301 302 302 303 304 305 305 305 304 304 303 303 302 301 301 301 300 299 299 300 300 300 298 296 296 294 295 295 293 291 290
305 305 304 302 301 301 300 300 300 300 300 299 300 299 300 300 300 301 302 301 301 300 300 300 299 300 299 297 297 297 298 298 299 298 297 296 295 294 295 291 291 290 289
305 304 302 301 300 300 300 299 299 298 298 298 298 299 298 297 297 298 299 299 299 298 296 296 295 295 295 295 295 295 295 296 297 297 296 296 293 292 290 289 289 289 290
304 303 302 301 301 300 299 298 298 298 298 297 297 296 296 296 296 296 296 297 296 295 294 294 294 293 293 293 291 290 291 292 292 292 292 291 290 289 289 287 287 287 288
304 302 301 301 300 300 299 298 297 296 296 296 295 295 295 295 295 294 295 294 293 293 293 292 292 291 290 289 288 288 287 287 287 288 289 287 288 286 286 285 286 287 287
303 302 301 301 300 299 298 296 295 296 295 294 294 294 294 293 293 292 293 292 291 290 289 289 288 288 286 287 287 287 288 287 285 286 287 286 286 286 287 287 288 288 289
303 302 301 300 299 298 297 295 295 294 294 293 293 293 292 292 291 291 290 289 288 287 287 288 288 288 284 285 286 286 286 286 285 285 284 283 285 284 285 286 286 287 288
302 301 300 299 298 297 295 295 295 294 293 292 292 292 292 292 290 289 287 287 287 287 287 287 286 287 287 284 284 284 285 285 285 285 284 284 285 285 284 284 284 284 285
300 299 298 297 296 295 294 294 293 292 292 291 291 290 289 289 288 287 286 286 286 286 286 286 287 286 285 286 283 284 284 285 285 284 285 285 285 285 284 283 283 283 283
299 298 298 296 295 293 292 293 291 291 290 289 289 289 289 288 288 288 287 286 285 285 284 284 284 285 284 285 285 285 286 284 284 284 285 285 284 284 283 282 282 281 281
299 298 297 296 294 292 293 292 291 290 289 289 289 289 289 287 288 288 287 286 285 283 284 284 284 284 285 284 284 285 286 285 284 284 285 285 284 282 282 282 282 282 281
299 298 296 295 293 292 292 292 291 291 291 290 289 289 288 287 287 287 288 288 286 285 284 284 283 283 283 283 283 285 285 283 283 283 284 284 283 283 283 282 282 281 281
298 298 296 294 293 292 291 291 291 291 291 290 290 289 287 287 286 286 287 287 287 286 284 283 283 282 283 283 283 283 283 283 283 284 284 284 284 283 283 282 282 281 281
297 297 295 294 293 291 291 290 289 290 290 290 290 288 287 286 286 285 286 287 286 285 284 283 283 283 282 282 283 283 283 282 283 283 283 283 283 283 282 282 282 281 281
296 296 295 294 293 291 291 290 290 289 289 289 289 289 288 287 285 284 285 287 286 286 285 285 284 284 284 283 282 282 282 283 283 282 282 283 283 282 282 282 281 281 280
295 295 295 294 293 292 291 290 290 290 290 290 289 288 289 289 288 287 286 287 287 286 286 286 286 285 284 283 282 282 282 282 282 282 281 282 282 282 281 281 281 282 281
294 294 294 293 293 291 291 290 289 289 290 289 288 287 287 288 288 288 287 286 287 287 286 286 286 285 284 283 282 281 281 281 281 281 281 280 281 281 281 281 281 281 281
294 294 293 293 292 291 291 290 289 289 289 289 289 287 286 287 288 288 287 286 286 287 287 286 285 284 284 283 282 282 281 281 281 280 280 280 280 280 280 280 280 280 280
294 294 293 293 292 291 291 290 289 289 289 289 289 289 287 287 286 287 287 287 286 286 286 286 286 285 284 284 283 283 282 282 281 281 280 280 279 279 279 279 279 279 279
293 293 293 293 292 292 291 290 289 289 289 289 289 289 287 286 286 285 286 286 286 286 286 285 285 285 285 284 284 283 283 282 282 281 281 280 279 279 278 278 278 278 278
291 292 292 292 292 291 291 290 290 289 289 289 289 289 288 286 286 286 286 286 285 285 285 285 285 285 285 284 283 283 282 282 281 281 280 280 279 279 278 278 278 278 278
289 290 291 291 291 291 291 291 290 290 289 289 289 288 288 288 289 288 287 286 286 286 286 286 286 286 286 286 284 283 283 282 282 281 280 280 279 278 278 278 277 277 278
287 288 288 289 290 290 290 290 290 290 289 289 289 289 289 288 288 288 288 289 289 287 286 286 287 286 286 286 284 283 283 282 281 281 282 280 279 278 278 277 277 276 277

GFSGL_925_thetae_096.txt.gz
Theta_e
314 314 313 311 311 311 311 311 311 311 312 313 313 314 314 315 316 318 318 319 321 323 323 322 323 320 317 317 316 314 314 313 311 302 303 301 301 300 300 299 300 300 301
311 311 311 310 310 309 309 309 308 308 309 309 310 311 311 312 313 314 316 317 318 318 318 316 316 314 312 311 311 310 309 309 309 303 300 300 299 299 299 298 297 297 297
309 309 309 308 307 306 306 306 306 306 305 305 306 307 307 309 310 310 311 312 312 312 312 311 311 309 308 308 307 306 305 305 306 305 299 298 297 297 296 296 295 294 294
308 307 307 306 305 305 304 304 303 303 303 303 303 303 304 304 305 307 307 308 308 307 307 307 306 305 305 304 303 303 302 302 302 302 299 297 297 296 296 295 293 291 290
306 305 305 304 304 303 303 302 302 302 302 301 301 301 301 302 302 302 303 304 304 304 303 303 302 302 301 301 301 300 299 300 300 298 297 296 295 294 294 293 292 290 289
305 304 303 303 302 302 302 301 301 301 300 300 299 299 299 299 299 299 300 301 300 300 299 299 299 299 298 297 297 297 298 298 299 297 297 296 295 294 292 290 289 289 289
305 304 303 302 301 301 300 300 299 299 299 299 298 298 297 297 297 297 298 298 299 298 297 297 295 294 294 295 294 295 296 296 297 297 296 294 292 290 289 288 287 287 287
304 303 302 301 301 300 300 299 299 298 297 296 297 296 296 296 296 295 296 296 296 295 294 294 294 293 293 291 290 288 288 289 290 290 290 289 289 288 288 287 286 287 287
304 303 302 301 301 300 299 298 296 296 297 297 296 295 295 295 294 294 293 293 293 292 292 292 292 291 290 288 287 288 287 286 287 287 288 287 287 286 286 285 287 288 288
304 303 302 301 301 300 299 297 295 295 296 295 294 294 293 294 293 292 292 292 291 290 289 289 289 288 286 288 287 287 287 286 285 285 284 284 284 284 286 287 287 287 287
304 302 301 301 300 299 298 296 296 294 294 294 293 293 293 293 292 291 289 289 288 288 288 287 288 289 286 285 286 286 286 286 285 284 284 284 285 284 284 285 285 285 286
303 301 300 300 299 298 296 295 294 294 293 292 292 292 291 291 290 290 288 287 287 287 287 287 286 287 287 285 284 285 286 285 284 284 284 284 284 285 284 284 284 283 283
301 300 299 298 297 296 294 293 293 293 292 291 291 291 290 289 289 289 288 287 286 286 286 286 286 287 286 286 285 285 286 285 284 284 284 285 285 285 284 284 282 282 282
300 299 298 297 296 294 293 292 292 292 291 291 290 290 289 289 288 288 288 288 286 285 285 285 285 285 285 284 285 285 286 284 284 284 284 285 285 284 284 282 282 282 281
299 299 298 297 295 294 292 292 292 292 293 291 291 291 289 288 288 288 288 287 286 284 283 284 285 285 285 285 283 284 285 286 285 284 285 285 285 284 283 282 282 281 281
299 298 297 296 295 294 293 292 291 292 292 291 291 291 290 289 288 288 288 288 288 287 285 284 284 283 283 283 283 283 285 285 284 283 283 284 284 284 283 283 282 282 281
297 298 297 296 294 293 292 291 291 292 291 290 290 290 290 288 288 287 288 288 288 288 286 284 283 283 283 282 283 283 283 283 283 283 284 284 284 284 283 283 282 282 281
297 297 296 296 295 294 293 292 291 291 290 290 291 291 290 289 287 286 286 288 287 287 286 285 284 283 283 283 282 283 283 283 283 282 283 283 283 283 283 282 282 281 281
296 296 296 296 295 294 293 292 291 290 290 290 290 290 290 290 289 288 286 287 287 286 286 286 285 284 284 284 284 283 282 282 282 283 283 282 282 283 283 282 282 282 282
295 295 295 295 294 293 293 291 290 290 290 289 290 290 290 289 289 289 288 287 286 286 286 286 285 285 285 285 285 284 283 282 282 282 282 282 281 282 282 282 281 281 281
294 294 294 294 293 293 292 291 291 290 289 289 290 290 290 288 288 288 288 288 287 286 286 286 286 286 286 286 285 284 283 282 282 282 282 282 281 281 281 281 281 281 281
293 293 293 293 293 293 292 292 291 290 290 289 289 290 290 289 288 287 288 287 287 287 287 286 286 286 286 286 285 284 283 282 282 282 281 281 281 280 280 280 280 280 280
291 292 292 292 292 292 292 291 291 290 290 289 289 289 289 289 289 288 287 287 287 287 287 287 286 286 286 286 285 285 284 284 284 283 282 281 281 280 280 280 280 279 279
289 289 290 291 291 291 291 291 291 290 290 290 290 289 289 289 289 290 289 287 287 287 286 286 286 286 286 286 286 285 285 284 284 283 282 282 281 281 280 279 279 279 278
286 287 287 288 289 290 291 291 291 290 290 290 290 289 289 289 289 289 288 288 287 287 287 286 286 286 286 286 285 286 286 285 284 283 282 281 281 280 280 279 279 278 278
283 284 285 286 286 287 288 289 290 290 290 290 290 289 289 289 289 289 289 288 288 288 288 288 288 288 287 286 286 285 285 285 284 283 282 281 281 280 280 279 278 278 278

GFSGL_925_thetae_099.txt.gz
Theta_e
315 316 318 317 317 317 316 315 314 313 313 313 313 314 314 315 315 316 316 316 317 319 322 322 324 323 323 321 321 321 320 318 314 304 304 302 302 301 302 301 300 301 301
314 314 314 313 313 312 311 311 311 310 310 310 311 312 312 313 313 314 315 316 318 318 318 319 320 319 318 318 316 314 314 313 312 304 302 300 300 300 300 300 299 298 298
313 312 310 309 308 308 309 307 306 306 306 306 307 307 308 308 309 310 311 313 315 315 315 314 315 314 313 312 311 310 310 309 307 306 300 299 299 298 298 297 296 295 295
310 309 308 307 306 306 306 306 306 305 305 304 304 304 304 304 305 306 308 309 311 311 311 310 310 310 310 309 308 307 305 304 304 304 301 299 298 296 296 296 293 292 290
307 307 306 305 305 305 305 304 303 302 302 302 302 302 302 302 303 303 304 305 306 307 306 306 306 305 305 305 304 303 302 302 302 301 300 297 296 295 296 295 293 291 289
306 305 305 304 304 304 303 302 302 302 302 301 301 300 300 301 300 300 301 301 302 302 303 302 302 301 301 300 300 300 300 300 300 299 299 297 295 295 294 292 291 289 288
305 305 304 304 303 302 302 301 301 300 300 300 300 299 299 299 298 297 298 299 300 300 300 299 298 298 298 298 297 297 297 298 299 298 297 296 295 294 293 290 289 288 288
305 304 303 302 302 301 301 300 300 300 299 299 299 298 298 297 298 297 296 297 297 298 297 297 296 295 294 294 295 295 295 295 296 297 296 295 293 292 290 289 287 286 287
304 303 302 302 301 301 300 300 299 298 297 298 298 297 296 296 296 296 295 295 295 295 295 294 294 294 292 291 290 289 288 289 288 289 289 289 289 288 287 286 286 286 287
304 303 303 302 301 301 300 299 297 295 296 296 296 296 295 295 294 294 293 292 292 292 292 291 292 292 290 289 288 287 287 287 287 287 287 287 287 287 286 286 286 288 287
304 303 302 302 301 301 300 298 295 295 294 295 295 295 294 294 293 293 292 291 291 290 289 289 289 289 289 289 287 287 287 286 285 284 284 285 284 285 285 286 286 286 287
304 303 302 301 300 300 299 296 294 293 293 294 293 293 293 293 292 292 292 288 288 288 288 288 288 289 287 286 285 286 286 286 285 284 284 284 285 284 284 284 284 284 284
303 302 301 300 299 298 297 295 293 292 293 293 292 292 292 291 290 290 291 289 287 287 286 286 287 288 287 287 284 286 287 286 285 284 284 284 284 285 284 284 284 283 283
302 301 300 299 298 297 296 294 292 292 292 292 292 291 292 291 289 289 289 289 288 287 285 285 286 287 286 285 286 286 286 285 285 284 284 285 285 285 284 284 283 282 281
300 299 299 298 297 296 295 294 292 292 293 293 293 292 291 291 290 290 288 289 288 286 284 285 285 286 286 285 284 285 286 285 284 284 284 284 285 285 284 283 282 282 281
299 298 298 298 297 296 295 294 293 292 292 292 291 292 292 291 290 290 289 288 287 286 285 284 285 285 285 285 284 283 284 285 286 285 284 285 285 285 284 283 282 282 281
298 298 298 297 297 295 294 293 292 293 292 292 291 291 291 291 290 289 289 289 289 288 286 285 284 284 284 283 283 284 283 284 285 285 284 283 284 284 284 283 283 282 282
296 297 297 297 296 295 294 294 293 291 291 292 292 291 291 291 290 289 288 289 289 289 288 287 286 284 283 283 283 283 283 283 283 284 283 283 283 283 284 283 283 282 282
295 295 295 296 295 295 294 293 292 292 291 291 291 291 291 291 291 289 288 288 288 288 288 287 287 286 285 284 283 283 282 282 283 283 282 282 283 283 283 283 283 282 282
295 295 295 295 295 294 294 293 292 292 291 290 290 290 291 290 291 290 290 288 287 287 286 286 286 286 286 285 284 284 284 283 282 282 282 283 283 283 283 282 283 282 282
293 294 294 294 294 294 293 292 292 291 290 290 290 291 291 290 289 290 290 289 288 286 286 286 286 285 285 285 285 285 285 284 283 282 282 282 282 282 282 282 282 282 281
290 291 292 292 293 292 292 292 292 291 291 290 290 291 290 290 289 289 289 289 288 288 288 288 287 286 286 286 286 286 286 285 284 283 282 282 282 282 282 281 281 281 281
288 289 289 290 291 291 291 291 291 291 291 291 290 290 290 290 289 289 289 289 289 288 288 287 287 287 287 286 286 286 286 285 285 284 283 282 282 282 281 281 281 280 280
285 286 287 288 289 289 290 291 291 291 290 290 290 290 290 290 289 289 290 289 289 289 288 288 287 287 287 287 286 286 286 286 286 285 284 283 283 282 281 281 280 280 280
283 283 284 285 286 287 287 288 289 289 289 290 289 289 289 289 289 289 289 289 289 288 288 288 288 288 288 287 286 286 286 286 286 285 285 284 283 282 282 281 280 280 279
282 282 282 282 283 283 284 284 285 286 287 288 288 289 289 289 289 289 289 288 288 288 288 288 288 288 288 288 288 288 286 285 285 285 285 284 283 282 281 281 280 280 279

GFSGL_925_thetae_102.txt.gz
Theta_e
328 328 328 326 324 324 323 322 322 321 320 318 317 316 315 314 314 315 315 316 316 316 317 319 321 323 324 324 324 323 322 321 316 305 305 303 303 302 302 302 302 301 301
319 319 318 318 319 318 318 316 314 314 313 312 312 312 313 313 312 313 314 314 315 316 317 317 317 319 319 319 320 318 318 317 315 305 302 301 301 301 300 300 300 299 299
314 314 314 313 313 312 310 310 309 309 309 309 309 309 309 309 309 310 311 312 313 313 314 315 315 315 315 316 315 314 313 312 311 309 301 300 299 299 299 298 298 297 296
312 312 311 310 309 309 308 307 306 306 307 306 306 305 305 305 305 306 307 308 310 311 311 312 312 311 311 311 311 309 310 308 307 305 302 299 299 298 298 297 295 294 292
311 310 309 308 307 307 306 305 304 304 304 304 304 304 303 303 303 303 304 305 306 307 308 308 308 308 307 308 308 308 306 304 304 303 300 298 297 296 296 295 294 293 290
309 308 307 306 305 305 304 303 303 303 303 303 302 302 301 301 300 301 301 302 302 303 303 304 303 303 303 303 303 302 302 302 302 302 299 298 297 297 296 295 293 289 288
307 306 305 305 304 303 302 302 302 302 301 301 301 301 300 300 299 298 297 298 299 300 300 300 300 300 299 299 299 299 298 299 300 301 301 299 298 297 296 294 292 290 289
305 305 304 303 303 302 301 301 301 301 301 300 300 299 299 298 298 297 297 297 297 298 298 298 298 298 297 296 297 296 296 297 298 298 298 298 297 296 294 294 292 290 287
305 304 303 303 302 301 301 301 300 300 299 298 298 298 297 297 297 296 296 295 295 296 296 296 296 295 295 293 293 293 292 292 292 294 295 295 294 292 291 290 288 287 286
304 304 303 303 302 302 301 300 300 299 297 295 296 296 296 296 296 295 295 294 294 294 294 293 293 293 292 291 290 288 288 289 289 289 289 288 288 288 287 287 287 286 287
305 304 303 302 302 301 301 300 299 297 295 294 296 296 295 295 295 294 294 293 292 292 292 291 291 291 290 291 289 287 287 287 287 287 287 287 287 286 286 286 286 287 288
304 304 303 302 301 301 300 299 298 295 294 294 294 295 295 294 294 293 293 292 290 290 290 290 289 290 289 289 288 287 287 286 285 284 285 284 284 285 285 285 285 286 287
304 303 302 301 301 300 299 298 296 294 293 293 293 293 294 294 293 292 292 292 289 288 287 287 287 288 289 288 287 285 287 287 285 284 284 284 285 284 284 284 284 284 284
302 302 301 300 300 299 298 297 296 294 293 292 292 292 293 293 292 290 290 291 291 288 287 286 286 287 288 287 286 286 287 287 285 285 284 284 284 284 284 284 284 283 282
301 300 300 299 298 298 297 297 295 295 294 293 293 293 292 292 293 292 290 290 289 289 287 285 286 287 288 286 286 286 286 286 285 284 284 284 285 285 284 284 284 282 281
299 299 299 299 298 298 297 296 295 294 294 293 293 292 292 292 291 290 290 290 289 288 287 285 285 285 286 286 285 284 285 285 286 284 284 284 284 284 284 284 283 282 281
297 297 297 298 298 297 296 295 294 295 294 293 293 292 292 292 291 291 290 290 290 289 287 285 284 284 284 285 285 285 284 284 284 286 285 284 284 285 284 284 283 282 282
296 296 296 296 296 296 296 295 294 293 293 293 293 292 292 292 291 291 290 289 289 290 288 286 286 286 285 284 284 283 283 283 283 284 285 285 284 284 284 284 283 283 282
295 295 295 295 295 295 295 295 294 293 292 292 292 292 292 292 292 291 290 289 288 288 289 288 288 288 287 286 285 284 283 283 283 283 284 284 284 283 283 283 283 283 283
293 294 294 294 294 294 294 294 293 292 292 292 291 291 291 290 290 291 291 290 288 288 287 288 288 288 287 287 286 286 284 283 283 282 283 283 283 283 283 283 283 283 283
291 291 292 293 293 294 293 293 292 292 292 291 291 292 291 290 289 289 290 290 290 289 287 287 287 287 286 286 285 285 285 285 284 283 283 283 282 282 282 282 282 282 282
288 289 289 290 291 292 292 292 292 291 291 291 291 291 291 290 290 290 289 289 289 290 290 289 288 288 288 287 287 286 285 285 285 285 284 284 283 282 282 282 282 282 281
286 286 287 288 289 289 290 290 291 291 291 291 290 290 290 290 290 290 290 290 289 289 289 289 288 288 288 287 287 287 286 286 286 285 285 284 284 283 282 282 281 281 281
283 283 284 285 285 287 288 288 289 289 289 289 289 289 289 289 289 289 289 289 289 289 289 289 288 288 288 288 287 287 287 287 286 286 286 285 284 283 282 281 281 281 281
283 282 282 282 283 283 284 284 285 285 286 288 288 288 288 287 288 288 288 288 288 288 288 288 288 288 288 288 287 287 288 288 287 286 286 285 284 284 282 282 281 281 281
281 281 281 281 281 281 282 282 282 282 283 283 284 284 285 286 287 287 287 288 287 287 288 287 287 287 287 287 287 287 287 287 287 286 285 285 284 283 282 282 281 281 281

GFSGL_925_thetae_105.txt.gz
Theta_e
330 329 328 327 326 325 324 325 322 321 320 320 320 320 318 317 316 315 314 314 315 315 315 315 315 317 318 320 322 323 322 321 318 306 307 306 306 305 304 303 303 303 302
327 325 324 323 323 322 321 320 319 318 317 316 314 313 313 312 312 312 312 312 313 313 314 314 315 315 316 316 318 319 319 318 316 305 304 302 302 302 302 302 300 301 300
322 322 320 319 319 318 317 315 313 312 311 310 310 309 309 309 309 308 308 309 309 311 311 312 312 313 314 314 313 314 314 313 313 310 300 300 300 300 299 299 298 298 298
314 314 314 313 313 312 311 310 309 308 308 307 307 306 306 305 305 305 305 305 306 308 309 309 310 310 310 311 310 310 310 309 309 308 303 300 300 299 299 297 295 295 295
312 311 311 310 309 308 307 307 306 306 305 304 304 303 303 303 303 303 303 303 303 304 305 306 306 307 307 307 307 307 307 306 305 304 301 299 298 297 297 297 295 294 293
310 309 308 307 306 306 305 304 304 304 303 302 302 302 302 302 301 300 300 300 300 301 301 302 302 303 303 303 303 303 304 303 303 302 301 300 299 298 297 296 295 291 290
308 307 306 305 305 304 304 303 302 302 302 302 301 301 301 300 299 299 298 298 298 298 298 298 299 300 300 300 300 300 300 300 299 300 301 301 300 300 298 296 294 293 290
305 305 304 304 304 303 303 302 302 301 301 300 300 300 300 299 298 297 297 297 296 296 297 298 297 297 298 297 298 298 298 298 298 299 299 300 300 299 299 299 297 293 289
305 304 304 304 303 302 302 301 301 300 300 299 299 299 299 298 298 296 296 296 295 295 295 296 296 296 295 295 294 295 294 294 294 296 297 297 297 296 296 295 292 289 286
305 305 304 303 302 302 301 301 300 300 299 299 297 297 297 297 297 296 296 295 294 294 294 294 294 294 293 292 292 291 291 291 290 291 292 292 292 291 291 291 292 289 286
305 304 304 303 302 302 301 300 300 299 298 296 295 296 296 296 296 296 295 295 294 292 292 292 292 292 292 292 291 288 288 288 288 289 289 288 288 288 287 287 287 287 286
304 304 303 302 302 301 301 300 299 298 297 295 294 294 295 296 295 295 295 294 294 292 290 290 290 290 290 290 291 289 287 287 287 287 287 287 287 286 286 286 286 286 287
304 303 303 302 301 301 300 299 298 297 295 295 294 294 294 295 295 294 294 293 294 291 289 289 288 288 290 289 289 287 287 288 286 284 285 285 284 284 285 285 285 285 285
303 302 302 301 300 300 299 298 298 296 295 294 293 293 294 294 294 294 294 292 292 292 289 288 286 287 287 289 288 287 287 287 287 285 284 284 284 284 284 284 284 284 283
301 301 300 300 299 299 298 298 297 297 296 295 294 294 293 293 294 293 293 292 291 290 290 288 287 286 288 288 287 286 286 286 286 285 284 284 284 284 284 284 284 283 282
299 299 299 299 299 298 298 297 297 296 296 295 294 293 293 293 293 292 292 291 291 290 289 288 287 285 286 287 287 286 285 286 286 285 284 284 284 284 284 284 284 283 282
297 297 297 297 297 297 297 297 296 296 295 295 295 294 294 293 293 292 292 290 291 291 290 288 287 285 285 285 285 285 285 284 285 285 285 284 284 284 284 284 284 283 282
296 296 296 296 296 296 296 296 296 295 294 295 295 294 294 293 293 293 292 291 290 290 290 289 287 287 286 285 284 284 284 284 284 284 284 285 284 284 284 284 284 283 283
293 294 295 295 295 295 295 295 295 294 294 294 294 294 294 293 292 292 292 292 290 290 289 289 289 289 288 288 288 287 285 284 283 283 283 283 284 284 284 283 284 283 283
292 292 293 294 294 294 294 294 294 293 293 293 292 293 293 292 291 291 291 292 291 291 290 288 288 288 288 288 288 287 287 286 284 283 283 283 283 284 284 283 282 283 283
289 290 290 291 292 292 293 293 293 292 292 292 292 292 292 291 291 290 290 289 291 290 290 290 289 288 288 287 287 286 286 285 285 285 283 283 282 282 283 282 282 282 282
286 287 288 288 289 290 291 291 291 291 291 291 291 291 291 291 290 290 290 290 290 289 289 289 289 289 289 289 289 288 287 286 286 285 284 284 283 283 282 282 282 282 282
284 284 284 285 286 288 288 289 289 289 290 290 290 289 290 290 290 290 290 290 289 289 289 289 289 288 288 289 289 288 287 288 287 286 285 284 284 284 283 282 282 281 281
283 283 283 283 283 284 284 285 285 286 287 287 288 288 288 288 288 288 288 288 288 288 288 288 288 288 288 288 288 288 288 288 288 287 286 285 284 284 283 282 282 282 281
282 282 282 282 282 282 282 282 282 282 283 283 284 284 284 285 286 286 287 287 287 287 287 287 287 287 287 287 287 287 287 287 287 287 286 286 285 284 284 283 282 281 281
281 281 281 281 281 281 281 281 281 281 281 281 281 281 281 282 282 283 284 284 285 286 286 286 287 287 286 286 286 286 286 286 286 286 286 285 285 284 283 283 282 282 281

GFSGL_925_thetae_108.txt.gz
Theta_e
330 331 331 330 329 328 327 326 325 324 321 320 321 320 320 320 319 317 315 313 313 314 314 313 313 314 315 315 316 317 320 319 319 310 309 307 307 305 305 305 305 304 304
328 328 327 327 325 325 324 323 322 320 319 318 318 317 315 313 312 311 311 310 310 311 311 312 311 311 314 313 314 315 316 317 316 310 306 305 303 305 303 303 302 302 302
324 324 323 322 322 320 319 319 318 317 316 313 311 310 309 309 308 307 306 306 306 307 308 309 309 310 311 311 312 312 312 312 312 310 303 302 301 301 301 301 300 299 299
320 320 319 318 318 317 316 315 314 311 309 308 308 307 306 305 304 304 304 304 304 305 306 306 307 307 307 308 308 309 309 309 308 307 303 301 301 300 300 299 297 297 297
313 314 313 312 312 311 310 308 307 306 306 305 305 304 303 303 303 303 303 303 303 302 303 303 303 303 303 304 305 305 306 306 305 304 302 300 299 298 298 297 296 295 294
310 310 309 309 308 306 305 305 305 305 304 304 303 303 303 302 301 301 301 301 300 299 299 299 299 300 300 301 302 302 302 302 302 302 302 301 301 299 298 298 295 290 290
309 307 306 306 305 305 304 304 304 303 303 302 302 302 301 300 300 299 299 298 298 297 297 298 298 299 299 299 299 300 300 300 300 300 300 301 301 301 300 297 295 294 293
307 306 305 305 304 303 303 302 302 302 301 301 301 301 300 299 298 297 297 297 296 295 296 296 297 297 297 297 297 297 297 297 298 298 299 299 300 300 300 300 299 295 291
305 304 304 303 303 302 302 301 301 301 300 300 300 300 299 298 297 297 296 296 296 295 295 296 296 295 295 295 295 294 294 294 294 295 296 297 298 298 298 297 294 291 287
304 304 304 303 302 302 301 301 301 300 300 299 299 298 298 298 297 297 296 296 295 295 294 294 294 293 293 293 293 291 291 291 291 291 293 294 294 293 294 294 296 293 289
304 304 303 303 303 302 301 301 300 300 299 299 298 298 297 297 297 296 296 295 295 295 293 292 292 292 292 292 292 292 289 288 289 289 289 289 290 290 290 290 290 291 290
304 303 302 302 301 301 301 300 300 299 298 298 297 296 296 296 296 296 296 295 295 295 294 291 291 291 291 291 291 291 289 288 287 287 287 287 287 287 286 286 286 287 287
304 303 302 302 301 300 300 300 299 298 298 297 296 295 296 296 295 295 295 295 294 295 294 292 290 288 288 290 290 289 288 288 287 286 286 286 286 286 285 286 286 286 286
302 302 301 301 300 300 300 299 299 298 297 297 295 295 295 295 295 295 294 294 294 293 293 291 290 287 287 287 290 288 287 286 287 287 286 284 284 284 284 284 284 284 284
301 300 300 300 300 299 299 299 299 299 298 297 296 296 295 294 294 294 294 294 293 292 290 290 289 288 286 287 288 288 287 286 286 287 286 284 284 284 284 284 284 283 283
299 299 299 299 299 298 298 298 298 298 297 296 296 295 295 294 293 293 293 293 292 291 290 290 289 288 287 286 286 287 286 286 285 286 286 285 284 283 284 283 284 284 283
296 296 297 297 297 297 297 297 297 297 296 296 295 295 295 294 294 294 293 293 292 291 292 291 290 289 288 286 285 285 285 285 285 285 285 285 284 283 283 283 283 283 283
294 294 295 295 295 295 296 296 296 295 295 296 296 295 294 294 294 294 294 293 292 291 291 291 290 289 288 287 286 285 285 284 284 284 284 284 285 283 283 283 284 283 283
292 292 292 293 294 294 295 295 295 295 294 294 295 294 294 294 293 293 293 293 293 292 291 290 290 289 289 289 289 288 287 287 285 284 284 284 284 284 284 283 283 284 284
290 290 291 291 292 293 293 293 293 293 293 293 293 293 293 293 292 292 291 291 291 292 292 292 291 290 289 288 288 288 288 287 286 286 285 283 283 283 283 284 284 283 284
287 287 288 288 289 290 291 291 291 291 292 292 291 292 291 291 291 291 291 290 290 290 290 290 290 290 289 289 288 288 287 287 287 286 285 285 284 282 282 283 283 283 283
284 285 285 285 287 288 289 289 290 290 290 290 290 291 290 290 290 290 290 290 290 290 289 289 289 289 289 288 289 288 288 288 288 287 286 285 284 284 283 282 282 282 282
283 283 283 283 283 284 285 286 287 287 288 288 288 289 289 289 289 288 288 288 288 288 288 288 288 288 288 288 287 287 287 288 288 287 287 286 285 284 283 282 282 281 281
282 282 282 282 282 283 282 283 283 283 284 284 284 285 285 285 286 287 286 287 287 287 287 287 287 287 287 287 287 287 287 287 287 287 286 286 286 285 283 282 282 282 282
282 281 281 281 281 281 281 281 281 281 281 281 281 282 282 282 282 282 283 283 284 284 285 286 286 286 286 287 287 286 286 286 286 286 286 285 285 285 284 283 283 282 282
281 281 280 280 280 280 280 280 281 281 281 280 280 280 280 279 279 279 280 281 281 282 282 283 284 284 285 285 285 286 286 286 285 285 285 285 284 284 284 283 283 282 282

GFSGL_925_thetae_111.txt.gz
Theta_e
329 330 330 330 330 328 328 328 327 326 325 324 323 321 320 320 319 318 316 314 313 313 313 313 312 311 312 313 314 315 315 316 316 315 314 314 311 311 308 307 306 306 306
328 328 328 328 327 327 326 325 323 322 320 319 319 318 317 315 313 311 311 310 310 310 310 310 309 309 310 312 312 312 313 314 312 313 310 309 307 306 306 305 304 304 304
326 326 323 322 323 322 321 319 318 317 317 317 316 314 311 310 309 308 307 306 306 306 307 307 308 308 308 307 308 308 310 311 311 310 307 305 303 303 302 302 302 301 300
322 321 321 320 319 318 317 316 316 316 315 312 309 308 307 306 305 305 305 304 304 304 305 305 305 305 305 305 305 306 306 308 308 307 305 302 301 301 301 301 299 298 298
318 317 317 316 316 316 314 313 311 309 308 307 306 305 304 304 304 304 304 303 303 302 302 302 302 302 302 302 302 303 303 305 305 305 303 301 300 299 299 299 298 297 297
315 315 313 312 310 310 309 308 306 306 305 305 304 303 302 302 302 303 303 302 301 300 300 300 299 300 300 300 300 301 301 301 302 302 302 301 302 302 300 299 297 293 291
309 307 307 307 307 306 305 305 304 303 302 302 302 301 301 301 301 301 301 300 300 298 298 298 298 298 298 298 298 299 299 299 299 299 299 300 300 301 301 298 297 295 295
306 306 305 305 305 303 303 303 302 302 301 301 301 302 301 300 300 299 300 298 297 296 296 296 296 296 297 297 297 296 297 297 296 296 297 298 298 299 299 300 299 296 293
304 304 304 304 303 303 302 302 301 301 301 301 301 301 300 300 298 297 297 297 296 295 295 295 296 296 296 295 295 294 294 294 293 294 295 296 297 298 298 297 295 293 289
304 304 303 303 303 302 301 301 301 300 300 300 300 300 300 299 298 297 297 296 296 296 295 294 294 294 294 294 294 293 291 291 291 291 292 293 294 294 295 295 295 293 291
304 303 302 302 302 302 301 301 301 300 300 299 299 299 299 298 297 297 297 297 296 296 295 295 293 293 293 293 293 293 291 289 288 289 289 290 291 291 291 292 292 292 292
304 304 303 302 302 301 301 300 300 299 298 298 298 297 297 296 296 296 296 296 295 295 295 294 293 291 291 291 292 292 291 288 288 287 287 287 287 287 287 288 289 289 289
303 302 302 301 301 300 300 300 299 298 298 297 296 296 297 296 296 296 296 295 295 295 295 294 292 291 289 289 291 290 290 288 288 287 286 286 286 286 286 286 285 286 286
302 301 301 301 300 300 300 299 299 298 297 297 297 297 296 296 296 296 295 295 295 294 294 294 292 290 288 287 288 289 289 288 287 287 286 285 284 284 284 285 285 285 285
301 300 300 299 299 299 298 298 299 299 299 298 297 297 296 295 296 295 295 295 294 294 292 291 291 290 288 287 287 287 288 287 286 286 286 286 284 284 284 284 284 284 283
298 298 298 299 298 298 298 298 298 298 298 297 297 297 296 295 295 294 294 294 293 293 291 290 290 290 288 287 286 286 286 287 286 286 286 285 285 284 283 283 283 283 283
295 295 295 295 296 296 296 296 296 296 296 296 296 296 296 296 295 294 294 294 293 293 292 292 291 291 289 289 288 286 285 285 285 285 285 285 285 284 283 283 283 283 283
292 293 293 293 294 294 294 295 295 295 295 296 296 296 295 295 295 294 294 294 294 293 292 292 291 291 290 289 289 288 287 286 285 284 284 285 285 284 284 283 283 283 283
291 291 292 292 292 293 293 293 294 294 294 294 294 295 294 294 294 294 293 293 294 293 293 292 292 291 290 290 289 289 288 288 287 286 284 284 284 284 284 284 283 283 283
289 289 290 290 291 291 292 292 292 292 292 293 293 293 293 292 292 293 292 292 292 291 291 291 292 291 291 290 290 289 288 288 287 287 286 285 284 283 283 284 283 283 284
285 285 287 287 288 288 289 290 290 291 291 291 291 291 291 291 291 291 291 291 291 290 290 289 290 290 290 290 289 289 289 288 287 287 286 286 285 284 283 283 283 283 283
283 283 283 284 284 285 287 288 288 289 289 289 289 290 290 290 290 289 289 289 289 289 289 289 289 289 289 289 289 288 288 288 288 288 287 287 286 285 284 283 282 282 282
283 283 283 283 282 283 283 283 284 285 285 286 287 287 287 287 287 287 287 287 287 287 287 287 287 287 287 287 287 287 287 287 287 287 287 287 286 286 285 283 282 282 282
284 282 282 282 282 282 282 282 282 282 282 282 282 283 283 283 283 283 284 284 284 285 286 286 286 286 286 286 286 286 286 286 286 286 286 285 285 286 285 284 283 282 282
283 282 281 281 281 281 281 281 281 281 281 281 280 281 281 281 280 280 280 280 281 282 282 283 284 284 284 285 285 285 285 285 285 285 285 285 285 285 284 284 284 283 282
282 281 281 280 280 280 279 279 280 280 280 280 280 280 280 279 279 278 279 279 280 280 280 280 280 281 281 282 282 283 284 285 285 285 285 285 285 284 284 284 283 283 282

GFSGL_925_thetae_114.txt.gz
Theta_e
329 328 326 326 324 323 324 327 330 329 327 328 328 326 325 324 323 322 322 320 317 316 315 314 314 313 314 314 315 315 315 316 316 315 315 315 315 311 310 308 308 308 309
327 328 327 326 326 326 326 326 327 326 328 327 325 323 321 320 320 318 317 313 313 313 312 312 312 309 311 312 312 313 313 313 312 313 313 313 311 307 307 306 306 306 305
323 324 324 324 324 323 323 324 324 324 323 320 319 319 318 317 312 309 309 308 309 309 309 309 308 308 309 308 308 308 309 309 308 308 308 308 307 305 303 303 303 303 303
319 319 319 320 321 320 320 319 318 318 318 317 316 314 311 309 307 306 306 305 305 305 306 305 305 305 305 306 307 307 305 306 307 306 306 304 302 303 302 302 300 300 300
316 316 315 315 317 317 316 314 313 313 313 312 309 307 306 305 305 305 305 304 304 303 303 303 303 302 302 302 303 304 303 303 305 304 303 302 300 300 300 300 299 298 298
313 311 311 312 311 310 310 309 308 307 306 305 304 304 304 304 304 304 304 303 302 301 301 300 300 300 299 300 300 300 300 301 301 301 301 301 301 301 300 300 298 295 294
308 307 306 307 307 307 308 307 306 305 304 304 303 303 302 302 302 303 303 302 301 300 299 299 298 298 298 298 298 299 298 298 299 299 298 300 299 300 300 299 298 297 296
306 305 304 304 303 303 302 302 302 302 302 302 302 301 301 301 301 301 301 300 299 298 298 297 297 297 297 297 297 297 296 296 296 295 296 297 297 298 298 298 299 296 294
305 304 303 303 302 301 301 301 301 301 301 301 301 301 301 301 300 299 299 298 298 297 297 296 296 296 296 296 296 296 295 293 294 293 294 295 296 297 297 297 296 293 291
305 304 303 302 302 301 301 301 300 300 301 300 300 300 299 298 298 297 298 298 297 297 297 296 296 295 295 295 294 294 294 293 291 291 292 292 294 294 295 294 294 293 292
303 302 302 302 302 301 300 300 300 300 299 299 297 297 297 297 297 297 297 298 298 297 296 295 295 295 294 293 293 293 292 291 289 289 289 289 290 291 291 292 292 292 293
303 303 302 302 301 300 300 300 299 298 298 298 298 297 297 297 298 297 297 296 296 296 296 295 294 293 292 292 292 292 292 291 288 288 287 287 287 288 288 289 289 290 291
302 301 301 300 300 299 299 298 298 298 299 298 296 297 297 297 296 297 296 296 296 295 295 295 295 293 291 290 290 291 291 291 289 288 287 286 286 286 286 286 286 287 287
301 300 300 300 299 298 298 298 299 298 298 298 297 297 298 296 296 295 295 295 295 295 294 294 294 292 291 289 288 290 290 289 289 288 288 287 285 285 285 285 285 285 285
300 301 300 300 299 298 298 297 298 298 298 298 297 297 297 296 297 296 295 295 294 294 293 293 292 291 290 289 288 288 289 288 288 288 287 287 286 285 285 284 284 284 286
297 297 297 298 298 298 298 298 298 298 298 298 298 297 297 297 296 296 295 294 294 294 292 292 290 290 290 289 289 288 288 287 287 287 287 287 286 286 285 284 284 284 285
294 294 295 295 295 297 296 296 296 297 297 297 297 297 297 296 296 295 294 294 294 294 294 293 292 291 291 290 289 289 288 287 286 286 286 286 286 285 285 285 284 285 285
292 292 292 293 292 293 294 294 294 295 296 296 297 296 296 295 295 295 295 294 294 294 294 293 292 292 291 290 290 289 289 287 286 285 285 285 285 285 285 285 285 285 285
290 291 291 291 291 292 292 292 293 293 293 294 294 295 295 295 294 294 294 294 294 294 294 293 293 292 292 291 290 289 289 288 288 287 286 285 284 285 285 285 285 285 285
288 288 289 289 289 290 290 291 291 292 292 292 292 293 293 293 293 293 293 293 293 293 292 292 292 292 291 291 290 290 289 288 288 287 287 286 285 284 285 285 285 285 285
285 284 285 285 286 287 288 289 289 289 290 290 291 291 291 291 291 291 291 291 291 291 291 290 290 290 290 290 290 289 289 288 288 288 287 286 286 285 285 285 285 284 285
284 283 283 284 284 284 286 286 287 287 288 288 289 289 289 290 290 290 290 290 289 289 289 289 289 289 289 289 289 288 288 287 287 287 288 288 287 286 285 285 285 284 284
284 283 283 283 283 283 283 283 284 284 285 285 285 286 287 287 287 287 287 287 287 287 287 287 287 287 286 287 287 287 287 287 286 286 286 286 286 286 286 285 284 284 284
284 283 283 283 282 283 283 283 283 282 282 283 283 283 283 283 283 283 283 283 284 284 284 285 285 285 286 286 286 286 286 286 285 285 285 285 285 285 284 284 284 284 284
284 283 282 282 282 282 282 282 282 282 282 282 281 281 282 281 281 280 280 280 280 281 282 281 282 283 284 284 284 284 285 285 285 285 285 284 284 284 284 284 284 284 284
283 282 282 281 281 281 281 280 280 281 281 281 281 281 281 280 279 279 279 279 279 280 280 279 279 279 280 281 281 282 282 283 283 283 284 285 284 285 284 284 284 284 284

GFSGL_925_thetae_117.txt.gz
Theta_e
328 327 327 327 326 326 326 327 326 326 327 326 326 326 327 327 328 327 326 324 324 322 321 318 316 315 315 315 315 315 314 314 315 315 315 314 314 313 312 311 310 309 310
329 328 327 325 325 326 326 325 324 323 323 322 325 327 328 327 325 323 321 321 318 317 316 315 314 313 312 313 313 314 312 311 311 311 311 310 311 309 307 308 307 307 307
329 327 326 325 325 325 325 325 325 326 325 325 326 325 324 321 320 318 317 315 314 313 313 312 312 310 311 311 309 308 308 308 307 308 308 307 308 308 306 305 305 304 304
325 326 324 324 324 323 323 324 324 323 321 320 322 320 318 316 314 313 311 310 310 309 309 309 308 307 308 308 308 308 306 306 306 306 306 305 305 304 302 302 302 302 302
321 320 320 320 319 318 318 317 316 315 315 315 315 313 312 311 310 308 307 307 306 306 305 305 304 304 303 304 303 305 304 303 303 303 303 302 302 302 301 301 300 300 299
317 315 316 316 315 314 315 314 313 312 313 312 311 310 307 307 306 306 305 305 304 304 303 302 302 301 301 301 300 300 300 301 301 301 301 301 301 301 301 300 298 297 296
311 310 310 310 310 310 309 309 308 309 309 308 307 306 305 305 305 305 304 303 303 303 302 301 301 300 299 299 299 299 299 298 298 298 297 299 300 299 299 299 298 297 298
309 308 308 308 307 306 306 305 305 304 304 303 303 303 303 303 303 303 303 303 302 301 300 300 299 299 298 298 298 298 297 296 295 296 295 296 296 296 297 297 297 297 296
307 306 306 305 304 304 304 304 303 303 302 302 302 302 302 302 302 302 301 300 300 300 299 298 298 297 297 297 296 296 296 296 294 294 294 294 294 295 296 296 295 294 292
306 305 305 304 304 304 303 302 301 301 301 301 300 301 301 301 300 301 300 300 299 299 298 297 297 296 296 296 295 295 295 294 293 292 292 292 292 293 294 294 293 293 293
305 304 303 303 303 303 302 302 301 301 300 300 300 300 300 299 299 299 299 299 299 298 297 296 295 296 294 294 294 294 294 293 292 291 290 289 289 290 291 291 292 292 293
304 303 303 302 302 301 301 300 300 299 299 299 299 299 299 299 299 298 298 298 298 297 297 296 295 295 294 292 293 293 293 292 291 289 288 288 288 287 288 288 289 290 291
304 303 303 302 301 301 300 300 300 300 301 300 299 299 298 298 298 298 297 297 297 296 296 296 295 295 294 292 291 292 292 292 291 289 288 288 287 286 286 286 286 287 288
301 301 300 301 301 300 300 300 301 300 301 301 299 298 300 298 297 297 297 296 296 296 296 295 295 295 293 292 290 289 289 291 291 290 289 288 287 286 285 285 285 285 286
300 301 301 300 299 299 298 299 299 300 300 300 300 299 300 299 298 298 297 297 296 296 295 294 294 293 292 291 290 290 289 290 289 288 288 288 287 286 285 285 284 285 286
298 297 297 297 298 299 299 299 299 300 299 298 298 298 298 298 297 297 296 296 295 294 293 292 292 291 290 291 290 289 289 289 288 288 288 287 287 287 286 285 284 284 285
294 294 295 296 296 296 297 296 296 297 298 298 298 298 298 297 297 296 295 295 295 294 293 293 293 292 291 291 291 290 289 289 288 288 287 287 286 286 286 286 285 284 285
293 292 293 293 293 293 293 293 294 294 295 296 296 296 296 296 295 295 295 294 294 294 294 294 294 293 293 292 291 290 290 289 289 287 286 286 286 286 285 285 285 285 285
291 291 291 291 291 291 291 292 292 292 293 293 294 294 294 295 295 295 295 295 294 294 294 294 294 294 293 292 291 290 290 289 289 288 287 286 286 286 285 285 286 286 285
288 287 287 289 289 288 289 290 290 290 291 291 292 292 292 293 293 294 294 294 294 294 294 293 293 293 293 292 292 291 290 290 289 288 287 287 286 286 285 285 285 286 285
286 286 286 285 286 286 286 288 288 289 289 289 290 290 290 290 290 291 291 291 291 291 291 291 291 290 290 290 290 290 289 289 289 288 288 287 287 286 286 285 285 285 285
286 285 285 285 284 284 285 285 285 286 287 288 288 288 289 289 289 289 289 289 289 289 289 289 289 289 289 289 289 289 288 288 288 288 287 287 287 287 287 286 286 285 285
286 285 284 284 284 284 284 284 284 284 284 284 285 285 286 286 286 286 286 287 287 286 287 287 287 287 287 287 287 287 287 287 287 287 286 286 286 286 286 286 286 286 285
285 285 284 284 284 284 284 283 283 283 283 283 283 283 283 283 283 283 283 283 284 284 284 284 285 285 285 285 285 285 286 286 286 286 285 285 285 285 285 285 285 285 285
285 285 284 284 283 283 283 283 282 282 282 282 282 282 282 282 281 281 281 280 280 281 281 282 281 281 283 283 284 284 284 284 284 285 285 285 284 284 285 285 284 284 284
286 285 283 283 283 282 282 282 281 281 281 281 281 281 281 281 281 280 279 279 279 280 280 280 280 279 279 279 280 280 281 281 281 282 283 283 284 284 284 284 284 284 284